<?xml version='1.0' encoding='UTF-8'?><gpx version="1.1" creator="JPX - https://github.com/jenetics/jpx" xmlns="http://www.topografix.com/GPX/1/1"><trk><trkseg><trkpt lat="43.70563278611132" lon="7.284485101540599"><ele>23.0</ele><time>2026-04-29T05:49:49Z</time></trkpt><trkpt lat="43.705553695323424" lon="7.284411683526128"><ele>23.0</ele><time>2026-04-29T05:49:51Z</time></trkpt><trkpt lat="43.7054659486764" lon="7.284293855971479"><ele>23.0</ele><time>2026-04-29T05:49:53Z</time></trkpt><trkpt lat="43.70537035943549" lon="7.284205070675173"><ele>23.0</ele><time>2026-04-29T05:49:55Z</time></trkpt><trkpt lat="43.70527047699032" lon="7.284106169317842"><ele>23.0</ele><time>2026-04-29T05:49:57Z</time></trkpt><trkpt lat="43.705186400070495" lon="7.284018151259213"><ele>23.0</ele><time>2026-04-29T05:49:59Z</time></trkpt><trkpt lat="43.705134286545146" lon="7.283960438609895"><ele>23.0</ele><time>2026-04-29T05:50:01Z</time></trkpt><trkpt lat="43.705060188230185" lon="7.283856939101854"><ele>23.0</ele><time>2026-04-29T05:50:05Z</time></trkpt><trkpt lat="43.70501753133373" lon="7.28375093129088"><ele>23.0</ele><time>2026-04-29T05:50:07Z</time></trkpt><trkpt lat="43.704951433810415" lon="7.283700352310045"><ele>23.0</ele><time>2026-04-29T05:50:08Z</time></trkpt><trkpt lat="43.70488241900446" lon="7.283666835629568"><ele>23.0</ele><time>2026-04-29T05:50:09Z</time></trkpt><trkpt lat="43.70481546724067" lon="7.283623051386125"><ele>23.0</ele><time>2026-04-29T05:50:10Z</time></trkpt><trkpt lat="43.70473198160132" lon="7.283563412493185"><ele>23.0</ele><time>2026-04-29T05:50:11Z</time></trkpt><trkpt lat="43.704659644032745" lon="7.283539586792813"><ele>23.0</ele><time>2026-04-29T05:50:12Z</time></trkpt><trkpt lat="43.70460257000394" lon="7.283495883572075"><ele>23.0</ele><time>2026-04-29T05:50:13Z</time></trkpt><trkpt lat="43.704511131654705" lon="7.283448931220333"><ele>23.0</ele><time>2026-04-29T05:50:15Z</time></trkpt><trkpt lat="43.7044376732348" lon="7.2833932746788905"><ele>23.0</ele><time>2026-04-29T05:50:22Z</time></trkpt><trkpt lat="43.70441768690182" lon="7.283303631090697"><ele>23.0</ele><time>2026-04-29T05:50:24Z</time></trkpt><trkpt lat="43.70434398950542" lon="7.283188708823088"><ele>23.0</ele><time>2026-04-29T05:50:26Z</time></trkpt><trkpt lat="43.704278693353665" lon="7.283159428122508"><ele>23.0</ele><time>2026-04-29T05:50:27Z</time></trkpt><trkpt lat="43.70423015724394" lon="7.283097385300803"><ele>23.0</ele><time>2026-04-29T05:50:28Z</time></trkpt><trkpt lat="43.704127092407596" lon="7.283020367658435"><ele>23.0</ele><time>2026-04-29T05:50:30Z</time></trkpt><trkpt lat="43.70406399888216" lon="7.282987828978766"><ele>23.0</ele><time>2026-04-29T05:50:32Z</time></trkpt><trkpt lat="43.7039652274853" lon="7.28289209623954"><ele>23.0</ele><time>2026-04-29T05:50:35Z</time></trkpt><trkpt lat="43.7038385304983" lon="7.2828075272029515"><ele>23.0</ele><time>2026-04-29T05:50:37Z</time></trkpt><trkpt lat="43.70376595388492" lon="7.282753653489231"><ele>23.0</ele><time>2026-04-29T05:50:38Z</time></trkpt><trkpt lat="43.703702473355904" lon="7.282695630397521"><ele>23.0</ele><time>2026-04-29T05:50:39Z</time></trkpt><trkpt lat="43.70364083931442" lon="7.282651915396702"><ele>22.25</ele><time>2026-04-29T05:50:40Z</time></trkpt><trkpt lat="43.703531971177654" lon="7.282589627673134"><ele>21.5</ele><time>2026-04-29T05:50:42Z</time></trkpt><trkpt lat="43.703457566101704" lon="7.282520088326038"><ele>20.75</ele><time>2026-04-29T05:50:44Z</time></trkpt><trkpt lat="43.70331556781393" lon="7.282686164568322"><ele>20.0</ele><time>2026-04-29T05:50:47.001Z</time></trkpt><trkpt lat="43.703308845505894" lon="7.282784082962408"><ele>20.0</ele><time>2026-04-29T05:50:48.001Z</time></trkpt><trkpt lat="43.703279527827185" lon="7.282888341604299"><ele>20.0</ele><time>2026-04-29T05:50:49.001Z</time></trkpt><trkpt lat="43.70324959110278" lon="7.282989537774259"><ele>20.0</ele><time>2026-04-29T05:50:50.001Z</time></trkpt><trkpt lat="43.703224619792124" lon="7.283074174083267"><ele>20.0</ele><time>2026-04-29T05:50:51.001Z</time></trkpt><trkpt lat="43.70319973779488" lon="7.283156451596133"><ele>20.0</ele><time>2026-04-29T05:50:52.001Z</time></trkpt><trkpt lat="43.70315858426464" lon="7.283301161301512"><ele>20.0</ele><time>2026-04-29T05:50:54.001Z</time></trkpt><trkpt lat="43.70311320936669" lon="7.2834192762035626"><ele>20.0</ele><time>2026-04-29T05:50:56.001Z</time></trkpt><trkpt lat="43.70307613528131" lon="7.283496884984734"><ele>20.0</ele><time>2026-04-29T05:50:59.001Z</time></trkpt><trkpt lat="43.702998685935384" lon="7.2835083443112545"><ele>20.0</ele><time>2026-04-29T05:51:03Z</time></trkpt><trkpt lat="43.70290266891928" lon="7.283451776672492"><ele>20.0</ele><time>2026-04-29T05:51:05Z</time></trkpt><trkpt lat="43.70281186007103" lon="7.283392725486999"><ele>20.0</ele><time>2026-04-29T05:51:07Z</time></trkpt><trkpt lat="43.702725948023584" lon="7.283343560492512"><ele>20.0</ele><time>2026-04-29T05:51:09Z</time></trkpt><trkpt lat="43.70260732259883" lon="7.283275280301717"><ele>20.0</ele><time>2026-04-29T05:51:11Z</time></trkpt><trkpt lat="43.702530205077174" lon="7.283225533089541"><ele>20.0</ele><time>2026-04-29T05:51:12Z</time></trkpt><trkpt lat="43.70243904381351" lon="7.28318483625923"><ele>20.0</ele><time>2026-04-29T05:51:13Z</time></trkpt><trkpt lat="43.70235125731487" lon="7.283134918955596"><ele>20.0</ele><time>2026-04-29T05:51:14Z</time></trkpt><trkpt lat="43.70225541008548" lon="7.283086084832618"><ele>20.0</ele><time>2026-04-29T05:51:15Z</time></trkpt><trkpt lat="43.7021767141963" lon="7.283027321309786"><ele>20.2</ele><time>2026-04-29T05:51:16Z</time></trkpt><trkpt lat="43.702110230837775" lon="7.282989329821394"><ele>20.4</ele><time>2026-04-29T05:51:17Z</time></trkpt><trkpt lat="43.702018207543524" lon="7.282929258639141"><ele>20.6</ele><time>2026-04-29T05:51:19Z</time></trkpt><trkpt lat="43.70190945899588" lon="7.28288517901782"><ele>20.8</ele><time>2026-04-29T05:52:25Z</time></trkpt><trkpt lat="43.70182941218219" lon="7.282830196935593"><ele>21.0</ele><time>2026-04-29T05:52:29Z</time></trkpt><trkpt lat="43.70192927329578" lon="7.2827073894469825"><ele>21.166666666666668</ele><time>2026-04-29T05:52:31Z</time></trkpt><trkpt lat="43.70195715543112" lon="7.28261614958958"><ele>21.333333333333332</ele><time>2026-04-29T05:52:32Z</time></trkpt><trkpt lat="43.70199770142934" lon="7.282483469431381"><ele>21.5</ele><time>2026-04-29T05:52:34Z</time></trkpt><trkpt lat="43.70202347351076" lon="7.282399627141314"><ele>21.666666666666664</ele><time>2026-04-29T05:52:37Z</time></trkpt><trkpt lat="43.70205402487806" lon="7.282300283755945"><ele>21.833333333333332</ele><time>2026-04-29T05:52:56Z</time></trkpt><trkpt lat="43.70208486507191" lon="7.282200001447337"><ele>22.0</ele><time>2026-04-29T05:52:58Z</time></trkpt><trkpt lat="43.70214004245458" lon="7.282020578324615"><ele>22.0</ele><time>2026-04-29T05:53:00Z</time></trkpt><trkpt lat="43.702170450035105" lon="7.281920319762923"><ele>22.0</ele><time>2026-04-29T05:53:01Z</time></trkpt><trkpt lat="43.70220884287091" lon="7.281794446906452"><ele>22.0</ele><time>2026-04-29T05:53:02Z</time></trkpt><trkpt lat="43.70224568961911" lon="7.281673642879518"><ele>22.0</ele><time>2026-04-29T05:53:03Z</time></trkpt><trkpt lat="43.7022780154232" lon="7.281567595604443"><ele>22.0</ele><time>2026-04-29T05:53:04Z</time></trkpt><trkpt lat="43.702308250118726" lon="7.281465302295449"><ele>22.0</ele><time>2026-04-29T05:53:05Z</time></trkpt><trkpt lat="43.70233381583718" lon="7.281376732441481"><ele>22.0</ele><time>2026-04-29T05:53:06Z</time></trkpt><trkpt lat="43.70237104874034" lon="7.281247742727448"><ele>22.0</ele><time>2026-04-29T05:53:08Z</time></trkpt><trkpt lat="43.70239704258251" lon="7.281158847838973"><ele>22.0</ele><time>2026-04-29T05:53:10Z</time></trkpt><trkpt lat="43.702428308868484" lon="7.281056134566014"><ele>22.0</ele><time>2026-04-29T05:53:13Z</time></trkpt><trkpt lat="43.70245761671495" lon="7.2809611815325965"><ele>22.0</ele><time>2026-04-29T05:53:15Z</time></trkpt><trkpt lat="43.70249782198654" lon="7.280829440140642"><ele>22.0</ele><time>2026-04-29T05:53:17Z</time></trkpt><trkpt lat="43.702536891245224" lon="7.280709881237648"><ele>21.400000000000002</ele><time>2026-04-29T05:53:19Z</time></trkpt><trkpt lat="43.7025783897158" lon="7.280583775585648"><ele>20.8</ele><time>2026-04-29T05:53:21Z</time></trkpt><trkpt lat="43.70260492738766" lon="7.280503957488511"><ele>20.2</ele><time>2026-04-29T05:53:22Z</time></trkpt><trkpt lat="43.70265349154733" lon="7.280358917098264"><ele>19.6</ele><time>2026-04-29T05:53:24Z</time></trkpt><trkpt lat="43.702697902053615" lon="7.280228581932648"><ele>19.0</ele><time>2026-04-29T05:53:26Z</time></trkpt><trkpt lat="43.70271611746503" lon="7.280122051828417"><ele>19.5</ele><time>2026-04-29T05:53:28Z</time></trkpt><trkpt lat="43.70275173005941" lon="7.280046327363035"><ele>20.0</ele><time>2026-04-29T05:53:30Z</time></trkpt><trkpt lat="43.70281131333398" lon="7.279961831383631"><ele>20.5</ele><time>2026-04-29T05:53:43Z</time></trkpt><trkpt lat="43.70285438778306" lon="7.279837412464065"><ele>21.0</ele><time>2026-04-29T05:53:45Z</time></trkpt><trkpt lat="43.70287974929683" lon="7.279751236238687"><ele>21.5</ele><time>2026-04-29T05:53:46Z</time></trkpt><trkpt lat="43.702906235071445" lon="7.279659005877447"><ele>22.0</ele><time>2026-04-29T05:53:47Z</time></trkpt><trkpt lat="43.702936222870626" lon="7.279564294329733"><ele>22.0</ele><time>2026-04-29T05:53:48Z</time></trkpt><trkpt lat="43.70296911408215" lon="7.2794675869165975"><ele>22.0</ele><time>2026-04-29T05:53:49Z</time></trkpt><trkpt lat="43.703000657847575" lon="7.279371151143503"><ele>22.0</ele><time>2026-04-29T05:53:50Z</time></trkpt><trkpt lat="43.7030289793877" lon="7.279281169438315"><ele>22.0</ele><time>2026-04-29T05:53:51Z</time></trkpt><trkpt lat="43.70305493460184" lon="7.279200093954072"><ele>22.0</ele><time>2026-04-29T05:53:52Z</time></trkpt><trkpt lat="43.70307931978625" lon="7.2790421021908855"><ele>22.0</ele><time>2026-04-29T05:53:54Z</time></trkpt><trkpt lat="43.70310769941971" lon="7.278915368053215"><ele>21.75</ele><time>2026-04-29T05:53:56Z</time></trkpt><trkpt lat="43.7029225367418" lon="7.278856478760301"><ele>21.5</ele><time>2026-04-29T05:53:57Z</time></trkpt><trkpt lat="43.702840641732145" lon="7.278814712208804"><ele>21.25</ele><time>2026-04-29T05:53:58Z</time></trkpt><trkpt lat="43.702754745515016" lon="7.278765210984904"><ele>21.0</ele><time>2026-04-29T05:53:59Z</time></trkpt><trkpt lat="43.70267704916639" lon="7.278719357849421"><ele>20.8</ele><time>2026-04-29T05:54:00Z</time></trkpt><trkpt lat="43.702597390232185" lon="7.2786651099727315"><ele>20.6</ele><time>2026-04-29T05:54:01Z</time></trkpt><trkpt lat="43.702517433423395" lon="7.278608430656283"><ele>20.4</ele><time>2026-04-29T05:54:02Z</time></trkpt><trkpt lat="43.70242490806119" lon="7.278551622717361"><ele>20.2</ele><time>2026-04-29T05:54:03Z</time></trkpt><trkpt lat="43.70233172105153" lon="7.278492989120481"><ele>20.0</ele><time>2026-04-29T05:54:04Z</time></trkpt><trkpt lat="43.70224761603819" lon="7.278437836368074"><ele>20.0</ele><time>2026-04-29T05:54:05Z</time></trkpt><trkpt lat="43.702174600713064" lon="7.278385363514095"><ele>20.0</ele><time>2026-04-29T05:54:06Z</time></trkpt><trkpt lat="43.702099088489405" lon="7.278333697495428"><ele>20.0</ele><time>2026-04-29T05:54:07Z</time></trkpt><trkpt lat="43.70203166000317" lon="7.278285586396109"><ele>20.0</ele><time>2026-04-29T05:54:08Z</time></trkpt><trkpt lat="43.701971912453814" lon="7.27825042189099"><ele>20.0</ele><time>2026-04-29T05:54:09Z</time></trkpt><trkpt lat="43.70189390831471" lon="7.278199816127584"><ele>20.0</ele><time>2026-04-29T05:54:11Z</time></trkpt><trkpt lat="43.70182476619941" lon="7.278155774424659"><ele>20.166666666666668</ele><time>2026-04-29T05:54:14Z</time></trkpt><trkpt lat="43.70176348622684" lon="7.278107223354932"><ele>20.333333333333336</ele><time>2026-04-29T05:54:17Z</time></trkpt><trkpt lat="43.70169151852116" lon="7.278056037118106"><ele>20.5</ele><time>2026-04-29T05:54:20Z</time></trkpt><trkpt lat="43.70162922833765" lon="7.278014232865285"><ele>20.666666666666668</ele><time>2026-04-29T05:54:23Z</time></trkpt><trkpt lat="43.70155223323543" lon="7.277956906244771"><ele>20.833333333333332</ele><time>2026-04-29T05:54:26Z</time></trkpt><trkpt lat="43.70146516308037" lon="7.277909075470147"><ele>21.0</ele><time>2026-04-29T05:54:28Z</time></trkpt><trkpt lat="43.70136537120695" lon="7.277841009726944"><ele>21.0</ele><time>2026-04-29T05:54:30Z</time></trkpt><trkpt lat="43.70125605958069" lon="7.277765744653717"><ele>21.0</ele><time>2026-04-29T05:54:32Z</time></trkpt><trkpt lat="43.70119132963672" lon="7.277717000310352"><ele>21.0</ele><time>2026-04-29T05:54:33Z</time></trkpt><trkpt lat="43.70112539794302" lon="7.2776697533733365"><ele>21.0</ele><time>2026-04-29T05:54:34Z</time></trkpt><trkpt lat="43.70105653519683" lon="7.277621021285228"><ele>21.0</ele><time>2026-04-29T05:54:35Z</time></trkpt><trkpt lat="43.70099663414848" lon="7.2775785004057125"><ele>21.0</ele><time>2026-04-29T05:54:36Z</time></trkpt><trkpt lat="43.700936834646775" lon="7.27753807786126"><ele>20.400000000000002</ele><time>2026-04-29T05:54:37Z</time></trkpt><trkpt lat="43.70087884766002" lon="7.277498787501602"><ele>19.8</ele><time>2026-04-29T05:54:38Z</time></trkpt><trkpt lat="43.70078063761954" lon="7.27742870257238"><ele>19.200000000000003</ele><time>2026-04-29T05:54:40Z</time></trkpt><trkpt lat="43.70070206138238" lon="7.277377559174861"><ele>18.6</ele><time>2026-04-29T05:54:42Z</time></trkpt><trkpt lat="43.70062271317194" lon="7.277313538570271"><ele>18.0</ele><time>2026-04-29T05:54:44Z</time></trkpt><trkpt lat="43.70052719014407" lon="7.27724260381299"><ele>18.0</ele><time>2026-04-29T05:54:46Z</time></trkpt><trkpt lat="43.70042894132559" lon="7.277174430250301"><ele>18.0</ele><time>2026-04-29T05:54:48Z</time></trkpt><trkpt lat="43.700324317864386" lon="7.277108043893839"><ele>18.0</ele><time>2026-04-29T05:54:50Z</time></trkpt><trkpt lat="43.70024288261998" lon="7.277055051276545"><ele>18.0</ele><time>2026-04-29T05:54:52Z</time></trkpt><trkpt lat="43.70017266725266" lon="7.277014411699703"><ele>18.0</ele><time>2026-04-29T05:54:54Z</time></trkpt><trkpt lat="43.700110075189315" lon="7.2769780710343195"><ele>17.833333333333332</ele><time>2026-04-29T05:54:56Z</time></trkpt><trkpt lat="43.70003815237212" lon="7.276940478009373"><ele>17.666666666666668</ele><time>2026-04-29T05:54:58.001Z</time></trkpt><trkpt lat="43.69996840034876" lon="7.276902690360202"><ele>17.5</ele><time>2026-04-29T05:55:00.001Z</time></trkpt><trkpt lat="43.69990372868353" lon="7.2768578450559644"><ele>17.333333333333336</ele><time>2026-04-29T05:55:12Z</time></trkpt><trkpt lat="43.69984531311652" lon="7.2768203499845185"><ele>17.166666666666668</ele><time>2026-04-29T05:55:15Z</time></trkpt><trkpt lat="43.69975979873817" lon="7.27677201404682"><ele>17.0</ele><time>2026-04-29T05:55:17Z</time></trkpt><trkpt lat="43.699700178405266" lon="7.276724369556388"><ele>17.0</ele><time>2026-04-29T05:55:18Z</time></trkpt><trkpt lat="43.69963032688034" lon="7.276668573753688"><ele>17.0</ele><time>2026-04-29T05:55:19Z</time></trkpt><trkpt lat="43.69955935438732" lon="7.276610708667065"><ele>17.0</ele><time>2026-04-29T05:55:20Z</time></trkpt><trkpt lat="43.69949156200827" lon="7.276558593689916"><ele>17.0</ele><time>2026-04-29T05:55:21Z</time></trkpt><trkpt lat="43.69942614687462" lon="7.276511823529148"><ele>17.0</ele><time>2026-04-29T05:55:22Z</time></trkpt><trkpt lat="43.69936675221435" lon="7.276472882180176"><ele>17.0</ele><time>2026-04-29T05:55:23Z</time></trkpt><trkpt lat="43.69928135534541" lon="7.276402408385265"><ele>16.4</ele><time>2026-04-29T05:55:25Z</time></trkpt><trkpt lat="43.699208234166406" lon="7.276332680191882"><ele>15.799999999999999</ele><time>2026-04-29T05:55:27Z</time></trkpt><trkpt lat="43.6991456398749" lon="7.276285786832454"><ele>15.2</ele><time>2026-04-29T05:55:29Z</time></trkpt><trkpt lat="43.69906821767126" lon="7.276202238680997"><ele>14.6</ele><time>2026-04-29T05:55:31Z</time></trkpt><trkpt lat="43.69898200324623" lon="7.2760538584438255"><ele>14.0</ele><time>2026-04-29T05:55:33Z</time></trkpt><trkpt lat="43.69892159053544" lon="7.275964840179624"><ele>14.000000000000002</ele><time>2026-04-29T05:55:34Z</time></trkpt><trkpt lat="43.698868338252936" lon="7.275864932722218"><ele>14.0</ele><time>2026-04-29T05:55:35Z</time></trkpt><trkpt lat="43.69882452972216" lon="7.275759449364793"><ele>14.0</ele><time>2026-04-29T05:55:36Z</time></trkpt><trkpt lat="43.698792623880266" lon="7.2756542536453965"><ele>14.0</ele><time>2026-04-29T05:55:37Z</time></trkpt><trkpt lat="43.698760907102255" lon="7.275541966495861"><ele>14.000000000000002</ele><time>2026-04-29T05:55:38Z</time></trkpt><trkpt lat="43.69873043022407" lon="7.275419582727691"><ele>14.0</ele><time>2026-04-29T05:55:39Z</time></trkpt><trkpt lat="43.698703704297664" lon="7.275310768336711"><ele>14.500000000000002</ele><time>2026-04-29T05:55:40Z</time></trkpt><trkpt lat="43.698677837095794" lon="7.275212159830199"><ele>15.0</ele><time>2026-04-29T05:55:41Z</time></trkpt><trkpt lat="43.6986601288387" lon="7.275110402687241"><ele>15.5</ele><time>2026-04-29T05:55:42Z</time></trkpt><trkpt lat="43.69864142264877" lon="7.2750135279774995"><ele>16.0</ele><time>2026-04-29T05:55:43Z</time></trkpt><trkpt lat="43.698616358579194" lon="7.274922677295965"><ele>16.5</ele><time>2026-04-29T05:55:44Z</time></trkpt><trkpt lat="43.6985834955605" lon="7.274776558868617"><ele>17.0</ele><time>2026-04-29T05:55:46Z</time></trkpt><trkpt lat="43.698560680271136" lon="7.274689851150791"><ele>17.166666666666668</ele><time>2026-04-29T05:55:48Z</time></trkpt><trkpt lat="43.698539220502106" lon="7.274601579697402"><ele>17.333333333333336</ele><time>2026-04-29T05:55:50Z</time></trkpt><trkpt lat="43.69850928388832" lon="7.2744999556751715"><ele>17.5</ele><time>2026-04-29T05:56:02Z</time></trkpt><trkpt lat="43.69848182491985" lon="7.274376301573196"><ele>17.666666666666668</ele><time>2026-04-29T05:56:04Z</time></trkpt><trkpt lat="43.69845508825795" lon="7.274273427471961"><ele>17.833333333333332</ele><time>2026-04-29T05:56:05Z</time></trkpt><trkpt lat="43.69842559430715" lon="7.274167220501303"><ele>18.0</ele><time>2026-04-29T05:56:06Z</time></trkpt><trkpt lat="43.69839166710166" lon="7.2740520963508715"><ele>18.2</ele><time>2026-04-29T05:56:07Z</time></trkpt><trkpt lat="43.69835727461592" lon="7.273929397653344"><ele>18.4</ele><time>2026-04-29T05:56:08Z</time></trkpt><trkpt lat="43.69832266092865" lon="7.27381344973766"><ele>18.599999999999998</ele><time>2026-04-29T05:56:09Z</time></trkpt><trkpt lat="43.698282720695495" lon="7.2736851365641755"><ele>18.8</ele><time>2026-04-29T05:56:10Z</time></trkpt><trkpt lat="43.698250700443275" lon="7.27357306149316"><ele>19.0</ele><time>2026-04-29T05:56:11Z</time></trkpt><trkpt lat="43.698226414296826" lon="7.2734686764639"><ele>19.0</ele><time>2026-04-29T05:56:12Z</time></trkpt><trkpt lat="43.6981943112692" lon="7.273328970211926"><ele>19.0</ele><time>2026-04-29T05:56:14Z</time></trkpt><trkpt lat="43.69816829867744" lon="7.2732180507377375"><ele>19.0</ele><time>2026-04-29T05:56:16Z</time></trkpt><trkpt lat="43.69814957116661" lon="7.273123644095104"><ele>19.0</ele><time>2026-04-29T05:56:19Z</time></trkpt><trkpt lat="43.69812091539484" lon="7.273033763251628"><ele>19.0</ele><time>2026-04-29T05:56:34Z</time></trkpt><trkpt lat="43.698080614984036" lon="7.272883398778719"><ele>19.0</ele><time>2026-04-29T05:56:36Z</time></trkpt><trkpt lat="43.69805553889715" lon="7.272791827376758"><ele>18.666666666666664</ele><time>2026-04-29T05:56:37Z</time></trkpt><trkpt lat="43.69802864056269" lon="7.272693611792328"><ele>18.333333333333332</ele><time>2026-04-29T05:56:38Z</time></trkpt><trkpt lat="43.69800213623802" lon="7.27258796217124"><ele>18.0</ele><time>2026-04-29T05:56:39Z</time></trkpt><trkpt lat="43.697973129505044" lon="7.2724754885755125"><ele>17.666666666666668</ele><time>2026-04-29T05:56:40Z</time></trkpt><trkpt lat="43.697945710412164" lon="7.27235880649605"><ele>17.333333333333336</ele><time>2026-04-29T05:56:41Z</time></trkpt><trkpt lat="43.69792645928524" lon="7.27227529800242"><ele>17.0</ele><time>2026-04-29T05:56:42Z</time></trkpt><trkpt lat="43.69790374581516" lon="7.272183993816721"><ele>17.0</ele><time>2026-04-29T05:56:44Z</time></trkpt><trkpt lat="43.6978772547396" lon="7.272082278120416"><ele>17.0</ele><time>2026-04-29T05:56:49Z</time></trkpt><trkpt lat="43.697858834241956" lon="7.271992810951487"><ele>17.0</ele><time>2026-04-29T05:56:51Z</time></trkpt><trkpt lat="43.69784063372446" lon="7.271873609922477"><ele>17.0</ele><time>2026-04-29T05:56:54Z</time></trkpt><trkpt lat="43.69782720679996" lon="7.27176870626425"><ele>17.0</ele><time>2026-04-29T05:57:06Z</time></trkpt><trkpt lat="43.697807665089336" lon="7.2716743716277366"><ele>17.0</ele><time>2026-04-29T05:57:08Z</time></trkpt><trkpt lat="43.69777759326145" lon="7.271558763609268"><ele>16.833333333333336</ele><time>2026-04-29T05:57:10Z</time></trkpt><trkpt lat="43.69775092254186" lon="7.271452278504197"><ele>16.666666666666668</ele><time>2026-04-29T05:57:12Z</time></trkpt><trkpt lat="43.69772919946825" lon="7.271358581956912"><ele>16.5</ele><time>2026-04-29T05:57:14Z</time></trkpt><trkpt lat="43.69770633179469" lon="7.271259681036479"><ele>16.333333333333332</ele><time>2026-04-29T05:57:18Z</time></trkpt><trkpt lat="43.697683694745386" lon="7.271171949214778"><ele>16.166666666666664</ele><time>2026-04-29T05:57:45Z</time></trkpt><trkpt lat="43.69764276958835" lon="7.271029322539175"><ele>16.0</ele><time>2026-04-29T05:57:48Z</time></trkpt><trkpt lat="43.69760919699735" lon="7.270906189532697"><ele>15.833333333333332</ele><time>2026-04-29T05:57:50Z</time></trkpt><trkpt lat="43.69759127574096" lon="7.270811729069674"><ele>15.666666666666666</ele><time>2026-04-29T05:57:52Z</time></trkpt><trkpt lat="43.69756309079885" lon="7.270704723390619"><ele>15.5</ele><time>2026-04-29T05:57:55Z</time></trkpt><trkpt lat="43.697545733252994" lon="7.270619889686335"><ele>15.333333333333332</ele><time>2026-04-29T05:58:17Z</time></trkpt><trkpt lat="43.69752728896369" lon="7.270529423882775"><ele>15.166666666666666</ele><time>2026-04-29T05:58:19Z</time></trkpt><trkpt lat="43.697481733469786" lon="7.270373773252709"><ele>15.0</ele><time>2026-04-29T05:58:21Z</time></trkpt><trkpt lat="43.69743823467226" lon="7.270275046017395"><ele>15.166666666666666</ele><time>2026-04-29T05:58:22Z</time></trkpt><trkpt lat="43.69739353443532" lon="7.270174061788059"><ele>15.333333333333332</ele><time>2026-04-29T05:58:23Z</time></trkpt><trkpt lat="43.697355834693276" lon="7.2700714834319955"><ele>15.5</ele><time>2026-04-29T05:58:24Z</time></trkpt><trkpt lat="43.69732193771004" lon="7.269974087956706"><ele>15.666666666666666</ele><time>2026-04-29T05:58:25Z</time></trkpt><trkpt lat="43.69729299410571" lon="7.269874895776066"><ele>15.833333333333332</ele><time>2026-04-29T05:58:26Z</time></trkpt><trkpt lat="43.69725364089661" lon="7.269764684689119"><ele>16.0</ele><time>2026-04-29T05:58:27Z</time></trkpt><trkpt lat="43.697213386329295" lon="7.26965210691074"><ele>16.0</ele><time>2026-04-29T05:58:28Z</time></trkpt><trkpt lat="43.69716926779188" lon="7.269533898756612"><ele>16.0</ele><time>2026-04-29T05:58:29Z</time></trkpt><trkpt lat="43.69712624339981" lon="7.269429864129176"><ele>16.0</ele><time>2026-04-29T05:58:30Z</time></trkpt><trkpt lat="43.69708130350168" lon="7.269318651679357"><ele>16.0</ele><time>2026-04-29T05:58:31Z</time></trkpt><trkpt lat="43.697034828043954" lon="7.269208760020638"><ele>16.0</ele><time>2026-04-29T05:58:32Z</time></trkpt><trkpt lat="43.69698821496619" lon="7.2691051646088285"><ele>15.999999999999998</ele><time>2026-04-29T05:58:33Z</time></trkpt><trkpt lat="43.69694090383644" lon="7.268994258298402"><ele>16.0</ele><time>2026-04-29T05:58:34Z</time></trkpt><trkpt lat="43.696895889160594" lon="7.268893538467797"><ele>16.0</ele><time>2026-04-29T05:58:35Z</time></trkpt><trkpt lat="43.696854916984904" lon="7.268797751174139"><ele>16.0</ele><time>2026-04-29T05:58:36Z</time></trkpt><trkpt lat="43.69681874242442" lon="7.26870808215822"><ele>15.999999999999998</ele><time>2026-04-29T05:58:37Z</time></trkpt><trkpt lat="43.69678693448291" lon="7.2686252975395975"><ele>16.0</ele><time>2026-04-29T05:58:38Z</time></trkpt><trkpt lat="43.69672530278156" lon="7.268481715864623"><ele>16.2</ele><time>2026-04-29T05:58:40Z</time></trkpt><trkpt lat="43.69668427376557" lon="7.26838150131516"><ele>16.400000000000002</ele><time>2026-04-29T05:58:42Z</time></trkpt><trkpt lat="43.69663494128687" lon="7.2682617943553"><ele>16.6</ele><time>2026-04-29T05:58:49Z</time></trkpt><trkpt lat="43.69658076113988" lon="7.268107557992355"><ele>16.8</ele><time>2026-04-29T05:58:51Z</time></trkpt><trkpt lat="43.69652779450141" lon="7.268006447495277"><ele>17.0</ele><time>2026-04-29T05:58:52Z</time></trkpt><trkpt lat="43.69648533332442" lon="7.267906006588208"><ele>16.666666666666668</ele><time>2026-04-29T05:58:53Z</time></trkpt><trkpt lat="43.6964598668065" lon="7.267811946629083"><ele>16.333333333333336</ele><time>2026-04-29T05:58:54Z</time></trkpt><trkpt lat="43.696416502033806" lon="7.267703787593039"><ele>16.0</ele><time>2026-04-29T05:58:55Z</time></trkpt><trkpt lat="43.696368864209525" lon="7.26758306921724"><ele>15.666666666666668</ele><time>2026-04-29T05:58:56Z</time></trkpt><trkpt lat="43.6963195223288" lon="7.267469366081551"><ele>15.333333333333334</ele><time>2026-04-29T05:58:57Z</time></trkpt><trkpt lat="43.69627317427674" lon="7.2673615420350925"><ele>15.0</ele><time>2026-04-29T05:58:58Z</time></trkpt><trkpt lat="43.69622850457761" lon="7.267258491687525"><ele>14.666666666666666</ele><time>2026-04-29T05:58:59Z</time></trkpt><trkpt lat="43.69618433411295" lon="7.267163285176414"><ele>14.333333333333332</ele><time>2026-04-29T05:59:00Z</time></trkpt><trkpt lat="43.69614480216051" lon="7.267077055841951"><ele>14.0</ele><time>2026-04-29T05:59:01Z</time></trkpt><trkpt lat="43.696107777165636" lon="7.267003075370408"><ele>13.666666666666666</ele><time>2026-04-29T05:59:02Z</time></trkpt><trkpt lat="43.6960283200777" lon="7.266889543638485"><ele>13.333333333333332</ele><time>2026-04-29T05:59:04Z</time></trkpt><trkpt lat="43.69596743241844" lon="7.266821543956554"><ele>13.0</ele><time>2026-04-29T05:59:06Z</time></trkpt><trkpt lat="43.69588544850024" lon="7.266728631431738"><ele>12.833333333333332</ele><time>2026-04-29T05:59:08Z</time></trkpt><trkpt lat="43.69582503852443" lon="7.266694633868195"><ele>12.666666666666666</ele><time>2026-04-29T05:59:09Z</time></trkpt><trkpt lat="43.69576282560316" lon="7.266662880181399"><ele>12.5</ele><time>2026-04-29T05:59:10Z</time></trkpt><trkpt lat="43.6956942023254" lon="7.266613535559673"><ele>12.333333333333332</ele><time>2026-04-29T05:59:11Z</time></trkpt><trkpt lat="43.69561833781381" lon="7.266540961651999"><ele>12.166666666666666</ele><time>2026-04-29T05:59:12Z</time></trkpt><trkpt lat="43.69552226482814" lon="7.266501620308031"><ele>12.0</ele><time>2026-04-29T05:59:13Z</time></trkpt><trkpt lat="43.69544656991187" lon="7.266454094929619"><ele>12.166666666666666</ele><time>2026-04-29T05:59:14Z</time></trkpt><trkpt lat="43.69538061920271" lon="7.266388529207498"><ele>12.333333333333332</ele><time>2026-04-29T05:59:15Z</time></trkpt><trkpt lat="43.69531281255131" lon="7.266352707265368"><ele>12.5</ele><time>2026-04-29T05:59:16Z</time></trkpt><trkpt lat="43.69525208567051" lon="7.2663276159408845"><ele>12.666666666666666</ele><time>2026-04-29T05:59:17Z</time></trkpt><trkpt lat="43.69513459973393" lon="7.266299533758049"><ele>12.833333333333332</ele><time>2026-04-29T05:59:19Z</time></trkpt><trkpt lat="43.69505295550262" lon="7.266275355842986"><ele>13.0</ele><time>2026-04-29T05:59:21.001Z</time></trkpt><trkpt lat="43.69502891056181" lon="7.2659815182996015"><ele>12.999999999999998</ele><time>2026-04-29T05:59:24Z</time></trkpt><trkpt lat="43.69502650296675" lon="7.265891862852435"><ele>13.0</ele><time>2026-04-29T05:59:25Z</time></trkpt><trkpt lat="43.69502400277091" lon="7.265803586891127"><ele>13.0</ele><time>2026-04-29T05:59:26Z</time></trkpt><trkpt lat="43.695015105621614" lon="7.265692101567486"><ele>13.0</ele><time>2026-04-29T05:59:27Z</time></trkpt><trkpt lat="43.69501039249237" lon="7.265562943879828"><ele>12.999999999999998</ele><time>2026-04-29T05:59:28Z</time></trkpt><trkpt lat="43.69500347192173" lon="7.2654320585818715"><ele>13.0</ele><time>2026-04-29T05:59:29Z</time></trkpt><trkpt lat="43.69499388443786" lon="7.2652926418825565"><ele>12.4</ele><time>2026-04-29T05:59:30Z</time></trkpt><trkpt lat="43.69498461172988" lon="7.265137745539014"><ele>11.8</ele><time>2026-04-29T05:59:31Z</time></trkpt><trkpt lat="43.69497662473693" lon="7.264983633293715"><ele>11.2</ele><time>2026-04-29T05:59:32Z</time></trkpt><trkpt lat="43.694971875450435" lon="7.264839497578899"><ele>10.6</ele><time>2026-04-29T05:59:33Z</time></trkpt><trkpt lat="43.69496786623072" lon="7.264698772436978"><ele>10.0</ele><time>2026-04-29T05:59:34Z</time></trkpt><trkpt lat="43.69496553154009" lon="7.26456152195419"><ele>10.0</ele><time>2026-04-29T05:59:35Z</time></trkpt><trkpt lat="43.69495635700414" lon="7.264425871088432"><ele>10.0</ele><time>2026-04-29T05:59:36Z</time></trkpt><trkpt lat="43.694949674815476" lon="7.264297748501562"><ele>10.0</ele><time>2026-04-29T05:59:37Z</time></trkpt><trkpt lat="43.69494634327649" lon="7.264164776190141"><ele>10.0</ele><time>2026-04-29T05:59:38Z</time></trkpt><trkpt lat="43.69494351770145" lon="7.2640314728158755"><ele>10.0</ele><time>2026-04-29T05:59:39Z</time></trkpt><trkpt lat="43.6949403651769" lon="7.263888197703691"><ele>10.6</ele><time>2026-04-29T05:59:40Z</time></trkpt><trkpt lat="43.69493623626228" lon="7.263746406952154"><ele>11.2</ele><time>2026-04-29T05:59:41Z</time></trkpt><trkpt lat="43.69493110117734" lon="7.263607909943287"><ele>11.8</ele><time>2026-04-29T05:59:42Z</time></trkpt><trkpt lat="43.69492512637948" lon="7.263463719639915"><ele>12.4</ele><time>2026-04-29T05:59:43Z</time></trkpt><trkpt lat="43.69491573796244" lon="7.263322266863467"><ele>13.0</ele><time>2026-04-29T05:59:44Z</time></trkpt><trkpt lat="43.694906574085095" lon="7.263184942795976"><ele>13.2</ele><time>2026-04-29T05:59:45Z</time></trkpt><trkpt lat="43.69489807663203" lon="7.2630586490385936"><ele>13.4</ele><time>2026-04-29T05:59:46Z</time></trkpt><trkpt lat="43.69488911890568" lon="7.262936354504784"><ele>13.599999999999998</ele><time>2026-04-29T05:59:47Z</time></trkpt><trkpt lat="43.694881003145525" lon="7.262816737554363"><ele>13.799999999999999</ele><time>2026-04-29T05:59:48Z</time></trkpt><trkpt lat="43.69486927009624" lon="7.262688833664781"><ele>14.0</ele><time>2026-04-29T05:59:49Z</time></trkpt><trkpt lat="43.694858249936296" lon="7.262566636158384"><ele>14.0</ele><time>2026-04-29T05:59:50Z</time></trkpt><trkpt lat="43.694851185345506" lon="7.262445946612017"><ele>13.999999999999998</ele><time>2026-04-29T05:59:51Z</time></trkpt><trkpt lat="43.6948531375218" lon="7.262325720059884"><ele>13.999999999999998</ele><time>2026-04-29T05:59:52Z</time></trkpt><trkpt lat="43.694834076117495" lon="7.262206161409514"><ele>14.0</ele><time>2026-04-29T05:59:53Z</time></trkpt><trkpt lat="43.69483814475495" lon="7.262076076871264"><ele>14.0</ele><time>2026-04-29T05:59:54Z</time></trkpt><trkpt lat="43.694824268623854" lon="7.261946397880572"><ele>13.799999999999999</ele><time>2026-04-29T05:59:55Z</time></trkpt><trkpt lat="43.69481338284674" lon="7.261810414913443"><ele>13.599999999999998</ele><time>2026-04-29T05:59:56Z</time></trkpt><trkpt lat="43.69480227091997" lon="7.261674012265396"><ele>13.4</ele><time>2026-04-29T05:59:57Z</time></trkpt><trkpt lat="43.694790695035266" lon="7.261538937767022"><ele>13.2</ele><time>2026-04-29T05:59:58Z</time></trkpt><trkpt lat="43.694781720317074" lon="7.261399893531371"><ele>13.0</ele><time>2026-04-29T05:59:59Z</time></trkpt><trkpt lat="43.69476933989671" lon="7.261262661713296"><ele>13.0</ele><time>2026-04-29T06:00:00Z</time></trkpt><trkpt lat="43.69475661528671" lon="7.2611265451493034"><ele>13.0</ele><time>2026-04-29T06:00:01Z</time></trkpt><trkpt lat="43.6947401746789" lon="7.260996992909987"><ele>13.0</ele><time>2026-04-29T06:00:02Z</time></trkpt><trkpt lat="43.694720893617045" lon="7.260865961576303"><ele>13.0</ele><time>2026-04-29T06:00:03Z</time></trkpt><trkpt lat="43.69470199635097" lon="7.260732611270407"><ele>13.0</ele><time>2026-04-29T06:00:04Z</time></trkpt><trkpt lat="43.69468372072034" lon="7.260598282157769"><ele>13.4</ele><time>2026-04-29T06:00:05Z</time></trkpt><trkpt lat="43.69466585011769" lon="7.2604723089795655"><ele>13.8</ele><time>2026-04-29T06:00:06Z</time></trkpt><trkpt lat="43.69464560528908" lon="7.260339250661706"><ele>14.2</ele><time>2026-04-29T06:00:07Z</time></trkpt><trkpt lat="43.6946262292388" lon="7.260208949839309"><ele>14.6</ele><time>2026-04-29T06:00:08Z</time></trkpt><trkpt lat="43.69460390991379" lon="7.260078181406214"><ele>15.0</ele><time>2026-04-29T06:00:09Z</time></trkpt><trkpt lat="43.69458657753701" lon="7.259952489922187"><ele>15.0</ele><time>2026-04-29T06:00:10Z</time></trkpt><trkpt lat="43.69456787853886" lon="7.259840960380372"><ele>15.0</ele><time>2026-04-29T06:00:11Z</time></trkpt><trkpt lat="43.6945510459717" lon="7.259741690932147"><ele>15.0</ele><time>2026-04-29T06:00:12Z</time></trkpt><trkpt lat="43.69452499617538" lon="7.2595875410377815"><ele>15.0</ele><time>2026-04-29T06:00:14Z</time></trkpt><trkpt lat="43.694496070042675" lon="7.25941711667347"><ele>15.0</ele><time>2026-04-29T06:00:16Z</time></trkpt><trkpt lat="43.69447621530806" lon="7.2593141091126325"><ele>14.833333333333334</ele><time>2026-04-29T06:00:17Z</time></trkpt><trkpt lat="43.694459501569696" lon="7.259210845526027"><ele>14.666666666666668</ele><time>2026-04-29T06:00:18Z</time></trkpt><trkpt lat="43.69444285991677" lon="7.25911090880201"><ele>14.5</ele><time>2026-04-29T06:00:19Z</time></trkpt><trkpt lat="43.69442818192271" lon="7.259011348689011"><ele>14.333333333333334</ele><time>2026-04-29T06:00:20Z</time></trkpt><trkpt lat="43.69441834746665" lon="7.258904240177863"><ele>14.166666666666668</ele><time>2026-04-29T06:00:21Z</time></trkpt><trkpt lat="43.69440655335914" lon="7.258786007099107"><ele>14.0</ele><time>2026-04-29T06:00:22Z</time></trkpt><trkpt lat="43.694389654709894" lon="7.25867247307294"><ele>14.000000000000002</ele><time>2026-04-29T06:00:23Z</time></trkpt><trkpt lat="43.69437352544946" lon="7.258567135415417"><ele>14.0</ele><time>2026-04-29T06:00:24Z</time></trkpt><trkpt lat="43.69435357143389" lon="7.258463478920527"><ele>14.0</ele><time>2026-04-29T06:00:25Z</time></trkpt><trkpt lat="43.69432836204684" lon="7.258349565657676"><ele>14.0</ele><time>2026-04-29T06:00:26Z</time></trkpt><trkpt lat="43.694301817634944" lon="7.2582274168646945"><ele>14.000000000000002</ele><time>2026-04-29T06:00:27Z</time></trkpt><trkpt lat="43.69427470927188" lon="7.258101996495976"><ele>14.0</ele><time>2026-04-29T06:00:28Z</time></trkpt><trkpt lat="43.69424678829798" lon="7.257977637815013"><ele>14.000000000000002</ele><time>2026-04-29T06:00:29Z</time></trkpt><trkpt lat="43.69421650334354" lon="7.25786041165796"><ele>14.0</ele><time>2026-04-29T06:00:30Z</time></trkpt><trkpt lat="43.694190523201925" lon="7.25774912187857"><ele>14.0</ele><time>2026-04-29T06:00:31Z</time></trkpt><trkpt lat="43.694165843108486" lon="7.257640019665195"><ele>14.0</ele><time>2026-04-29T06:00:32Z</time></trkpt><trkpt lat="43.694140504575586" lon="7.2575339755677675"><ele>14.000000000000002</ele><time>2026-04-29T06:00:33Z</time></trkpt><trkpt lat="43.69411534570186" lon="7.257423054863953"><ele>14.0</ele><time>2026-04-29T06:00:34Z</time></trkpt><trkpt lat="43.694088823385634" lon="7.257309965575568"><ele>14.333333333333334</ele><time>2026-04-29T06:00:35Z</time></trkpt><trkpt lat="43.69406386464415" lon="7.257193407330341"><ele>14.666666666666668</ele><time>2026-04-29T06:00:36Z</time></trkpt><trkpt lat="43.6940450864448" lon="7.2570785290004505"><ele>15.0</ele><time>2026-04-29T06:00:37Z</time></trkpt><trkpt lat="43.69402530538078" lon="7.256963301966841"><ele>15.333333333333332</ele><time>2026-04-29T06:00:38Z</time></trkpt><trkpt lat="43.69400158789106" lon="7.256844768906535"><ele>15.666666666666666</ele><time>2026-04-29T06:00:39Z</time></trkpt><trkpt lat="43.693972915852875" lon="7.256724649114872"><ele>16.0</ele><time>2026-04-29T06:00:40Z</time></trkpt><trkpt lat="43.69394740656585" lon="7.256604680998418"><ele>16.0</ele><time>2026-04-29T06:00:41Z</time></trkpt><trkpt lat="43.693921345241826" lon="7.256484645383258"><ele>16.0</ele><time>2026-04-29T06:00:42Z</time></trkpt><trkpt lat="43.69389340952971" lon="7.256352515954663"><ele>16.0</ele><time>2026-04-29T06:00:43Z</time></trkpt><trkpt lat="43.693863316893996" lon="7.2562243675420275"><ele>16.0</ele><time>2026-04-29T06:00:44Z</time></trkpt><trkpt lat="43.69382633028852" lon="7.256082324786073"><ele>16.0</ele><time>2026-04-29T06:00:45Z</time></trkpt><trkpt lat="43.6937891226445" lon="7.25594063954585"><ele>15.999999999999998</ele><time>2026-04-29T06:00:46Z</time></trkpt><trkpt lat="43.69375570536542" lon="7.255810241260761"><ele>16.0</ele><time>2026-04-29T06:00:47Z</time></trkpt><trkpt lat="43.69372214496309" lon="7.2556931039063635"><ele>16.0</ele><time>2026-04-29T06:00:48Z</time></trkpt><trkpt lat="43.693695695555384" lon="7.255589619271492"><ele>16.0</ele><time>2026-04-29T06:00:49Z</time></trkpt><trkpt lat="43.69367346293474" lon="7.255494787363851"><ele>15.999999999999998</ele><time>2026-04-29T06:00:50Z</time></trkpt><trkpt lat="43.693653306650795" lon="7.255397086950211"><ele>16.0</ele><time>2026-04-29T06:00:51Z</time></trkpt><trkpt lat="43.69363521403325" lon="7.255300012243969"><ele>15.999999999999998</ele><time>2026-04-29T06:00:52Z</time></trkpt><trkpt lat="43.69361404115642" lon="7.25520927739453"><ele>16.0</ele><time>2026-04-29T06:00:53Z</time></trkpt><trkpt lat="43.693586522180915" lon="7.255116562210413"><ele>16.0</ele><time>2026-04-29T06:00:54Z</time></trkpt><trkpt lat="43.69356420919983" lon="7.2550153317995525"><ele>16.0</ele><time>2026-04-29T06:00:55Z</time></trkpt><trkpt lat="43.693541781928005" lon="7.254897649397017"><ele>15.999999999999998</ele><time>2026-04-29T06:00:56Z</time></trkpt><trkpt lat="43.69351669568676" lon="7.2547657744982885"><ele>16.0</ele><time>2026-04-29T06:00:57Z</time></trkpt><trkpt lat="43.69349180348629" lon="7.254631154766136"><ele>14.8</ele><time>2026-04-29T06:00:58Z</time></trkpt><trkpt lat="43.69346544797829" lon="7.254486238149175"><ele>13.600000000000001</ele><time>2026-04-29T06:00:59Z</time></trkpt><trkpt lat="43.69343358100568" lon="7.254332975776218"><ele>12.4</ele><time>2026-04-29T06:01:00Z</time></trkpt><trkpt lat="43.693400427229" lon="7.254184350918207"><ele>11.2</ele><time>2026-04-29T06:01:01Z</time></trkpt><trkpt lat="43.69337041900049" lon="7.25403886723211"><ele>10.0</ele><time>2026-04-29T06:01:02Z</time></trkpt><trkpt lat="43.69334032509807" lon="7.253896032697471"><ele>10.0</ele><time>2026-04-29T06:01:03Z</time></trkpt><trkpt lat="43.693308193412484" lon="7.253755121773006"><ele>10.0</ele><time>2026-04-29T06:01:04Z</time></trkpt><trkpt lat="43.69327908279966" lon="7.253616892104205"><ele>10.0</ele><time>2026-04-29T06:01:05Z</time></trkpt><trkpt lat="43.693249974962534" lon="7.253479547423404"><ele>10.0</ele><time>2026-04-29T06:01:06Z</time></trkpt><trkpt lat="43.693219795751055" lon="7.253342816563834"><ele>10.0</ele><time>2026-04-29T06:01:06.999Z</time></trkpt><trkpt lat="43.69318968028848" lon="7.253204493752726"><ele>10.8</ele><time>2026-04-29T06:01:07.999Z</time></trkpt><trkpt lat="43.69315985062409" lon="7.253064657611918"><ele>11.6</ele><time>2026-04-29T06:01:08.999Z</time></trkpt><trkpt lat="43.693127437179804" lon="7.252926666207856"><ele>12.399999999999999</ele><time>2026-04-29T06:01:09.999Z</time></trkpt><trkpt lat="43.69309421775888" lon="7.252787769164847"><ele>13.2</ele><time>2026-04-29T06:01:10.999Z</time></trkpt><trkpt lat="43.693062344858426" lon="7.252649422127827"><ele>14.0</ele><time>2026-04-29T06:01:11.999Z</time></trkpt><trkpt lat="43.69303103574361" lon="7.252508862286465"><ele>14.0</ele><time>2026-04-29T06:01:12.999Z</time></trkpt><trkpt lat="43.693000587583775" lon="7.252368579872875"><ele>13.999999999999998</ele><time>2026-04-29T06:01:13.999Z</time></trkpt><trkpt lat="43.69297202258749" lon="7.25223509744684"><ele>13.999999999999998</ele><time>2026-04-29T06:01:15Z</time></trkpt><trkpt lat="43.692940646426365" lon="7.252102541111388"><ele>14.0</ele><time>2026-04-29T06:01:16Z</time></trkpt><trkpt lat="43.69290897009523" lon="7.251968201314666"><ele>14.0</ele><time>2026-04-29T06:01:17Z</time></trkpt><trkpt lat="43.692879756407294" lon="7.251841367548076"><ele>14.0</ele><time>2026-04-29T06:01:18Z</time></trkpt><trkpt lat="43.69284532911566" lon="7.251716901082219"><ele>13.999999999999998</ele><time>2026-04-29T06:01:19Z</time></trkpt><trkpt lat="43.692804891521234" lon="7.251589352887374"><ele>13.999999999999998</ele><time>2026-04-29T06:01:20Z</time></trkpt><trkpt lat="43.69276211376513" lon="7.25146393018178"><ele>14.0</ele><time>2026-04-29T06:01:21Z</time></trkpt><trkpt lat="43.69271795797795" lon="7.251336813303674"><ele>14.0</ele><time>2026-04-29T06:01:22Z</time></trkpt><trkpt lat="43.692677234156626" lon="7.251214154097763"><ele>13.399999999999999</ele><time>2026-04-29T06:01:23Z</time></trkpt><trkpt lat="43.69263340209726" lon="7.251094509326717"><ele>12.799999999999999</ele><time>2026-04-29T06:01:24Z</time></trkpt><trkpt lat="43.692592145244845" lon="7.250977861160342"><ele>12.2</ele><time>2026-04-29T06:01:25Z</time></trkpt><trkpt lat="43.69255371697926" lon="7.250863094262683"><ele>11.600000000000001</ele><time>2026-04-29T06:01:26Z</time></trkpt><trkpt lat="43.69251589196284" lon="7.250750072700457"><ele>11.0</ele><time>2026-04-29T06:01:27Z</time></trkpt><trkpt lat="43.692479636125796" lon="7.250643246838849"><ele>11.571428571428571</ele><time>2026-04-29T06:01:28Z</time></trkpt><trkpt lat="43.692450679894485" lon="7.250553790783205"><ele>12.142857142857142</ele><time>2026-04-29T06:01:29Z</time></trkpt><trkpt lat="43.692423243766555" lon="7.250473981540871"><ele>12.714285714285715</ele><time>2026-04-29T06:01:30Z</time></trkpt><trkpt lat="43.69238371709683" lon="7.250349022298389"><ele>13.285714285714285</ele><time>2026-04-29T06:01:32Z</time></trkpt><trkpt lat="43.69236258984368" lon="7.250246645523337"><ele>13.857142857142856</ele><time>2026-04-29T06:01:35Z</time></trkpt><trkpt lat="43.69232973502133" lon="7.250163616367522"><ele>14.428571428571429</ele><time>2026-04-29T06:01:39Z</time></trkpt><trkpt lat="43.69229206364471" lon="7.250087549241994"><ele>15.0</ele><time>2026-04-29T06:01:46Z</time></trkpt><trkpt lat="43.692235161469455" lon="7.250026534218921"><ele>15.0</ele><time>2026-04-29T06:04:58.999Z</time></trkpt><trkpt lat="43.69221071836482" lon="7.249908963080158"><ele>15.0</ele><time>2026-04-29T06:05:01.001Z</time></trkpt><trkpt lat="43.69216113108933" lon="7.249798302832875"><ele>15.0</ele><time>2026-04-29T06:05:03.001Z</time></trkpt><trkpt lat="43.6920925876122" lon="7.2496286718479785"><ele>15.0</ele><time>2026-04-29T06:05:05.001Z</time></trkpt><trkpt lat="43.692057406799584" lon="7.249516459089117"><ele>15.0</ele><time>2026-04-29T06:05:06.001Z</time></trkpt><trkpt lat="43.69202131691442" lon="7.249394952195805"><ele>14.8</ele><time>2026-04-29T06:05:07.001Z</time></trkpt><trkpt lat="43.69197834060795" lon="7.249253578903303"><ele>14.6</ele><time>2026-04-29T06:05:08.001Z</time></trkpt><trkpt lat="43.69193478808222" lon="7.249107018817081"><ele>14.399999999999999</ele><time>2026-04-29T06:05:09.001Z</time></trkpt><trkpt lat="43.69189141586462" lon="7.248987573081009"><ele>14.2</ele><time>2026-04-29T06:05:10.001Z</time></trkpt><trkpt lat="43.691852197148584" lon="7.24887499187853"><ele>14.0</ele><time>2026-04-29T06:05:11.001Z</time></trkpt><trkpt lat="43.69181737922597" lon="7.248773271653224"><ele>13.333333333333334</ele><time>2026-04-29T06:05:12.001Z</time></trkpt><trkpt lat="43.6917866413571" lon="7.248671937264154"><ele>12.666666666666668</ele><time>2026-04-29T06:05:13.001Z</time></trkpt><trkpt lat="43.69175299897613" lon="7.248576421740067"><ele>12.0</ele><time>2026-04-29T06:05:14.001Z</time></trkpt><trkpt lat="43.691715530861735" lon="7.248472390471433"><ele>11.333333333333334</ele><time>2026-04-29T06:05:15.001Z</time></trkpt><trkpt lat="43.69167629108573" lon="7.248361129140595"><ele>10.666666666666668</ele><time>2026-04-29T06:05:16.001Z</time></trkpt><trkpt lat="43.691636244072974" lon="7.248247215888374"><ele>10.0</ele><time>2026-04-29T06:05:17.001Z</time></trkpt><trkpt lat="43.69159402997" lon="7.2481298256547575"><ele>11.0</ele><time>2026-04-29T06:05:18Z</time></trkpt><trkpt lat="43.69155311551494" lon="7.248011331555906"><ele>12.0</ele><time>2026-04-29T06:05:19Z</time></trkpt><trkpt lat="43.69151182000697" lon="7.247891571392965"><ele>13.0</ele><time>2026-04-29T06:05:20Z</time></trkpt><trkpt lat="43.69147114770796" lon="7.2477722172352985"><ele>14.0</ele><time>2026-04-29T06:05:21Z</time></trkpt><trkpt lat="43.69142885821343" lon="7.247648262871226"><ele>15.0</ele><time>2026-04-29T06:05:22Z</time></trkpt><trkpt lat="43.69138663422447" lon="7.24752469510111"><ele>15.0</ele><time>2026-04-29T06:05:23Z</time></trkpt><trkpt lat="43.691345307765694" lon="7.247401327058411"><ele>15.0</ele><time>2026-04-29T06:05:24Z</time></trkpt><trkpt lat="43.69130272445653" lon="7.247274715889138"><ele>15.0</ele><time>2026-04-29T06:05:25Z</time></trkpt><trkpt lat="43.69126027034645" lon="7.247143046439443"><ele>15.0</ele><time>2026-04-29T06:05:26Z</time></trkpt><trkpt lat="43.69121475073798" lon="7.2470097697308296"><ele>15.0</ele><time>2026-04-29T06:05:27Z</time></trkpt><trkpt lat="43.69117424140232" lon="7.246888093681201"><ele>14.833333333333334</ele><time>2026-04-29T06:05:28Z</time></trkpt><trkpt lat="43.691134527164834" lon="7.246779245870924"><ele>14.666666666666668</ele><time>2026-04-29T06:05:29Z</time></trkpt><trkpt lat="43.69109935768668" lon="7.246680082763838"><ele>14.5</ele><time>2026-04-29T06:05:30Z</time></trkpt><trkpt lat="43.69106713976375" lon="7.246588608430974"><ele>14.333333333333334</ele><time>2026-04-29T06:05:31Z</time></trkpt><trkpt lat="43.69103979370356" lon="7.2465082161577445"><ele>14.166666666666668</ele><time>2026-04-29T06:05:32Z</time></trkpt><trkpt lat="43.69099224650317" lon="7.246364391159136"><ele>14.0</ele><time>2026-04-29T06:05:34Z</time></trkpt><trkpt lat="43.6909577847094" lon="7.24626950668648"><ele>13.333333333333334</ele><time>2026-04-29T06:05:36Z</time></trkpt><trkpt lat="43.69092419523663" lon="7.246162155728554"><ele>12.666666666666668</ele><time>2026-04-29T06:05:38Z</time></trkpt><trkpt lat="43.69089569411382" lon="7.246077436926095"><ele>12.0</ele><time>2026-04-29T06:05:40Z</time></trkpt><trkpt lat="43.690864916539525" lon="7.245979009209352"><ele>11.333333333333334</ele><time>2026-04-29T06:05:58Z</time></trkpt><trkpt lat="43.690817876558405" lon="7.245846548339987"><ele>10.666666666666668</ele><time>2026-04-29T06:06:00Z</time></trkpt><trkpt lat="43.69077991206737" lon="7.245751459710454"><ele>10.0</ele><time>2026-04-29T06:06:01Z</time></trkpt><trkpt lat="43.69073829866773" lon="7.245647991597097"><ele>10.8</ele><time>2026-04-29T06:06:02Z</time></trkpt><trkpt lat="43.69069245056361" lon="7.245531589189691"><ele>11.6</ele><time>2026-04-29T06:06:03Z</time></trkpt><trkpt lat="43.69064845098615" lon="7.245408933487925"><ele>12.399999999999999</ele><time>2026-04-29T06:06:04Z</time></trkpt><trkpt lat="43.69060173052855" lon="7.245288301546533"><ele>13.2</ele><time>2026-04-29T06:06:05Z</time></trkpt><trkpt lat="43.69055520237472" lon="7.245170120398946"><ele>14.0</ele><time>2026-04-29T06:06:06Z</time></trkpt><trkpt lat="43.69050866185871" lon="7.245054040957486"><ele>14.0</ele><time>2026-04-29T06:06:07Z</time></trkpt><trkpt lat="43.69046148349673" lon="7.244931006972323"><ele>13.999999999999998</ele><time>2026-04-29T06:06:08Z</time></trkpt><trkpt lat="43.690412991578356" lon="7.2448014921591835"><ele>13.999999999999998</ele><time>2026-04-29T06:06:09Z</time></trkpt><trkpt lat="43.69036647589863" lon="7.244674785511385"><ele>14.0</ele><time>2026-04-29T06:06:10Z</time></trkpt><trkpt lat="43.69032379035717" lon="7.24455206235129"><ele>14.0</ele><time>2026-04-29T06:06:11Z</time></trkpt><trkpt lat="43.690278746496986" lon="7.244427127289736"><ele>14.0</ele><time>2026-04-29T06:06:12Z</time></trkpt><trkpt lat="43.69023202865148" lon="7.244306226383654"><ele>13.999999999999998</ele><time>2026-04-29T06:06:13Z</time></trkpt><trkpt lat="43.6901853833633" lon="7.2441866481396175"><ele>13.999999999999998</ele><time>2026-04-29T06:06:14Z</time></trkpt><trkpt lat="43.6901381693414" lon="7.244063495555889"><ele>14.0</ele><time>2026-04-29T06:06:15Z</time></trkpt><trkpt lat="43.69009104659014" lon="7.243938981680558"><ele>14.0</ele><time>2026-04-29T06:06:16Z</time></trkpt><trkpt lat="43.69004049229033" lon="7.243813549051991"><ele>14.0</ele><time>2026-04-29T06:06:17Z</time></trkpt><trkpt lat="43.689987824537944" lon="7.243690808948378"><ele>13.999999999999998</ele><time>2026-04-29T06:06:18Z</time></trkpt><trkpt lat="43.6899342350499" lon="7.2435688904267055"><ele>13.999999999999998</ele><time>2026-04-29T06:06:19Z</time></trkpt><trkpt lat="43.68988050119828" lon="7.24344697231574"><ele>14.0</ele><time>2026-04-29T06:06:20Z</time></trkpt><trkpt lat="43.68982422696566" lon="7.24332319408212"><ele>14.0</ele><time>2026-04-29T06:06:21Z</time></trkpt><trkpt lat="43.689765018399235" lon="7.24319955038154"><ele>14.0</ele><time>2026-04-29T06:06:22Z</time></trkpt><trkpt lat="43.68970386250639" lon="7.243074516649202"><ele>13.999999999999998</ele><time>2026-04-29T06:06:23Z</time></trkpt><trkpt lat="43.68964468868017" lon="7.242946842657982"><ele>13.999999999999998</ele><time>2026-04-29T06:06:24Z</time></trkpt><trkpt lat="43.68958363276772" lon="7.242814777249296"><ele>14.0</ele><time>2026-04-29T06:06:25Z</time></trkpt><trkpt lat="43.68952080984257" lon="7.242694041304267"><ele>14.0</ele><time>2026-04-29T06:06:26Z</time></trkpt><trkpt lat="43.68946222695489" lon="7.242567680633337"><ele>13.6</ele><time>2026-04-29T06:06:27Z</time></trkpt><trkpt lat="43.689403492767504" lon="7.2424445811214"><ele>13.2</ele><time>2026-04-29T06:06:28Z</time></trkpt><trkpt lat="43.68934391831751" lon="7.242325037059632"><ele>12.799999999999999</ele><time>2026-04-29T06:06:29Z</time></trkpt><trkpt lat="43.68927918426565" lon="7.242214717874215"><ele>12.399999999999999</ele><time>2026-04-29T06:06:30Z</time></trkpt><trkpt lat="43.68920673948346" lon="7.242115775809367"><ele>12.0</ele><time>2026-04-29T06:06:31Z</time></trkpt><trkpt lat="43.68914101395558" lon="7.242011987358747"><ele>12.0</ele><time>2026-04-29T06:06:32Z</time></trkpt><trkpt lat="43.689081250320505" lon="7.241917107609105"><ele>12.0</ele><time>2026-04-29T06:06:33Z</time></trkpt><trkpt lat="43.68902072260531" lon="7.241817516327034"><ele>12.0</ele><time>2026-04-29T06:06:34Z</time></trkpt><trkpt lat="43.68895949095981" lon="7.24171448242901"><ele>12.0</ele><time>2026-04-29T06:06:35Z</time></trkpt><trkpt lat="43.688899352250175" lon="7.241620839977307"><ele>12.0</ele><time>2026-04-29T06:06:36Z</time></trkpt><trkpt lat="43.688840238330485" lon="7.241525009941424"><ele>12.0</ele><time>2026-04-29T06:06:37Z</time></trkpt><trkpt lat="43.68878209116902" lon="7.241426846040252"><ele>12.0</ele><time>2026-04-29T06:06:38Z</time></trkpt><trkpt lat="43.688726390413095" lon="7.24132209011842"><ele>12.0</ele><time>2026-04-29T06:06:39Z</time></trkpt><trkpt lat="43.688670144925084" lon="7.241211335493966"><ele>12.0</ele><time>2026-04-29T06:06:40Z</time></trkpt><trkpt lat="43.6886142686929" lon="7.24109650132953"><ele>12.0</ele><time>2026-04-29T06:06:41Z</time></trkpt><trkpt lat="43.68855276392606" lon="7.240982997710419"><ele>12.0</ele><time>2026-04-29T06:06:42Z</time></trkpt><trkpt lat="43.688493490564056" lon="7.240871212692063"><ele>12.0</ele><time>2026-04-29T06:06:43Z</time></trkpt><trkpt lat="43.6884310572735" lon="7.240756403567123"><ele>12.0</ele><time>2026-04-29T06:06:44Z</time></trkpt><trkpt lat="43.688368336297266" lon="7.240641619268241"><ele>12.0</ele><time>2026-04-29T06:06:45Z</time></trkpt><trkpt lat="43.68830583743106" lon="7.240524560178527"><ele>12.0</ele><time>2026-04-29T06:06:46Z</time></trkpt><trkpt lat="43.688241380428956" lon="7.240406459928386"><ele>12.8</ele><time>2026-04-29T06:06:47Z</time></trkpt><trkpt lat="43.688174127843475" lon="7.240287821907864"><ele>13.6</ele><time>2026-04-29T06:06:48Z</time></trkpt><trkpt lat="43.68810862041468" lon="7.240170226534635"><ele>14.400000000000002</ele><time>2026-04-29T06:06:49Z</time></trkpt><trkpt lat="43.68804181803893" lon="7.240048042609386"><ele>15.200000000000001</ele><time>2026-04-29T06:06:50Z</time></trkpt><trkpt lat="43.68797365166602" lon="7.2399297095054544"><ele>16.0</ele><time>2026-04-29T06:06:51Z</time></trkpt><trkpt lat="43.68790565428375" lon="7.2398168250499255"><ele>15.4</ele><time>2026-04-29T06:06:52Z</time></trkpt><trkpt lat="43.68784138226357" lon="7.23970892369409"><ele>14.8</ele><time>2026-04-29T06:06:53Z</time></trkpt><trkpt lat="43.68777982948043" lon="7.239603211970587"><ele>14.200000000000001</ele><time>2026-04-29T06:06:54Z</time></trkpt><trkpt lat="43.68771877420489" lon="7.239498683157489"><ele>13.600000000000001</ele><time>2026-04-29T06:06:55Z</time></trkpt><trkpt lat="43.68765584153893" lon="7.23939244624203"><ele>13.0</ele><time>2026-04-29T06:06:56Z</time></trkpt><trkpt lat="43.68758719136182" lon="7.239281585969415"><ele>13.0</ele><time>2026-04-29T06:06:57Z</time></trkpt><trkpt lat="43.687513352286004" lon="7.239163431721281"><ele>13.0</ele><time>2026-04-29T06:06:58Z</time></trkpt><trkpt lat="43.68743897716825" lon="7.239047594719215"><ele>13.0</ele><time>2026-04-29T06:06:59Z</time></trkpt><trkpt lat="43.68736974198428" lon="7.2389353972264"><ele>13.0</ele><time>2026-04-29T06:07:00Z</time></trkpt><trkpt lat="43.68730593781258" lon="7.2388356180813265"><ele>13.0</ele><time>2026-04-29T06:07:01Z</time></trkpt><trkpt lat="43.68725259912269" lon="7.238752858208769"><ele>13.166666666666666</ele><time>2026-04-29T06:07:02Z</time></trkpt><trkpt lat="43.68720248856553" lon="7.238678284640818"><ele>13.333333333333332</ele><time>2026-04-29T06:07:03Z</time></trkpt><trkpt lat="43.68712604812537" lon="7.238563959498515"><ele>13.5</ele><time>2026-04-29T06:07:05Z</time></trkpt><trkpt lat="43.68706910371043" lon="7.23848046332535"><ele>13.666666666666668</ele><time>2026-04-29T06:07:07Z</time></trkpt><trkpt lat="43.68701477006213" lon="7.238399322482811"><ele>13.833333333333334</ele><time>2026-04-29T06:07:10Z</time></trkpt><trkpt lat="43.68696195067048" lon="7.238331330639147"><ele>14.0</ele><time>2026-04-29T06:07:28Z</time></trkpt><trkpt lat="43.6869060610591" lon="7.238257015316472"><ele>14.0</ele><time>2026-04-29T06:07:30Z</time></trkpt><trkpt lat="43.68682629685076" lon="7.23814596411418"><ele>13.999999999999998</ele><time>2026-04-29T06:07:32Z</time></trkpt><trkpt lat="43.68677825687775" lon="7.23807882944686"><ele>13.999999999999998</ele><time>2026-04-29T06:07:33Z</time></trkpt><trkpt lat="43.6867193091357" lon="7.237999310452148"><ele>14.0</ele><time>2026-04-29T06:07:34Z</time></trkpt><trkpt lat="43.68665501549931" lon="7.237911137321649"><ele>14.0</ele><time>2026-04-29T06:07:35Z</time></trkpt><trkpt lat="43.6865875290465" lon="7.237814614214416"><ele>14.0</ele><time>2026-04-29T06:07:36Z</time></trkpt><trkpt lat="43.68651346279734" lon="7.237711591018561"><ele>13.999999999999998</ele><time>2026-04-29T06:07:37Z</time></trkpt><trkpt lat="43.68643880517052" lon="7.2376129617916405"><ele>13.999999999999998</ele><time>2026-04-29T06:07:38Z</time></trkpt><trkpt lat="43.686356747199454" lon="7.237510863296509"><ele>14.0</ele><time>2026-04-29T06:07:39Z</time></trkpt><trkpt lat="43.686271525622026" lon="7.237405426662177"><ele>14.0</ele><time>2026-04-29T06:07:40Z</time></trkpt><trkpt lat="43.68618481113551" lon="7.2372946904415985"><ele>13.6</ele><time>2026-04-29T06:07:41Z</time></trkpt><trkpt lat="43.68610006140928" lon="7.237188301210575"><ele>13.2</ele><time>2026-04-29T06:07:42Z</time></trkpt><trkpt lat="43.68601748355181" lon="7.237087377485074"><ele>12.799999999999999</ele><time>2026-04-29T06:07:43Z</time></trkpt><trkpt lat="43.68593646766324" lon="7.236998564558227"><ele>12.399999999999999</ele><time>2026-04-29T06:07:44Z</time></trkpt><trkpt lat="43.685854752181726" lon="7.236897278998619"><ele>12.0</ele><time>2026-04-29T06:07:45Z</time></trkpt><trkpt lat="43.685773823527526" lon="7.236796711922686"><ele>11.6</ele><time>2026-04-29T06:07:46Z</time></trkpt><trkpt lat="43.68569051644948" lon="7.23669368150882"><ele>11.2</ele><time>2026-04-29T06:07:47Z</time></trkpt><trkpt lat="43.68560583877146" lon="7.236593498478071"><ele>10.8</ele><time>2026-04-29T06:07:48Z</time></trkpt><trkpt lat="43.68552227318502" lon="7.236496809965746"><ele>10.4</ele><time>2026-04-29T06:07:49Z</time></trkpt><trkpt lat="43.68543675916739" lon="7.236399116867109"><ele>10.0</ele><time>2026-04-29T06:07:50Z</time></trkpt><trkpt lat="43.68535225820911" lon="7.236296589983666"><ele>10.0</ele><time>2026-04-29T06:07:51Z</time></trkpt><trkpt lat="43.685269867250916" lon="7.236196103588899"><ele>10.0</ele><time>2026-04-29T06:07:52Z</time></trkpt><trkpt lat="43.68518950653276" lon="7.236098940324784"><ele>10.0</ele><time>2026-04-29T06:07:53Z</time></trkpt><trkpt lat="43.68511005190165" lon="7.236003877956939"><ele>10.0</ele><time>2026-04-29T06:07:54Z</time></trkpt><trkpt lat="43.685023790861926" lon="7.2359079063379435"><ele>10.0</ele><time>2026-04-29T06:07:55Z</time></trkpt><trkpt lat="43.684936174550614" lon="7.235815410571823"><ele>9.6</ele><time>2026-04-29T06:07:56Z</time></trkpt><trkpt lat="43.684850554926456" lon="7.235716965907316"><ele>9.2</ele><time>2026-04-29T06:07:57Z</time></trkpt><trkpt lat="43.68476338979936" lon="7.235621701781946"><ele>8.8</ele><time>2026-04-29T06:07:58Z</time></trkpt><trkpt lat="43.68467400401882" lon="7.235533236715173"><ele>8.4</ele><time>2026-04-29T06:07:59Z</time></trkpt><trkpt lat="43.68457581757111" lon="7.235462155187877"><ele>8.0</ele><time>2026-04-29T06:08:00Z</time></trkpt><trkpt lat="43.684484859771025" lon="7.235363458039335"><ele>9.0</ele><time>2026-04-29T06:08:01Z</time></trkpt><trkpt lat="43.684399047338" lon="7.235256338227803"><ele>10.0</ele><time>2026-04-29T06:08:02Z</time></trkpt><trkpt lat="43.68431273653152" lon="7.235156575507593"><ele>11.0</ele><time>2026-04-29T06:08:03Z</time></trkpt><trkpt lat="43.68422579837497" lon="7.235059256797713"><ele>12.0</ele><time>2026-04-29T06:08:04Z</time></trkpt><trkpt lat="43.6841384962486" lon="7.234962556971538"><ele>12.0</ele><time>2026-04-29T06:08:05Z</time></trkpt><trkpt lat="43.684053722441114" lon="7.234863202734946"><ele>12.0</ele><time>2026-04-29T06:08:06Z</time></trkpt><trkpt lat="43.68396574129873" lon="7.2347674050955275"><ele>12.0</ele><time>2026-04-29T06:08:07Z</time></trkpt><trkpt lat="43.683881100642516" lon="7.234673290902826"><ele>12.0</ele><time>2026-04-29T06:08:08Z</time></trkpt><trkpt lat="43.68379424258547" lon="7.234578822311812"><ele>12.0</ele><time>2026-04-29T06:08:09Z</time></trkpt><trkpt lat="43.68370818421296" lon="7.234482791833414"><ele>12.25</ele><time>2026-04-29T06:08:10Z</time></trkpt><trkpt lat="43.68361943184781" lon="7.234384525390542"><ele>12.5</ele><time>2026-04-29T06:08:11Z</time></trkpt><trkpt lat="43.683533153704836" lon="7.2342855297235085"><ele>12.75</ele><time>2026-04-29T06:08:12Z</time></trkpt><trkpt lat="43.68344470711523" lon="7.234183335354037"><ele>13.0</ele><time>2026-04-29T06:08:13Z</time></trkpt><trkpt lat="43.683357841539575" lon="7.234083264929364"><ele>12.499999999999998</ele><time>2026-04-29T06:08:14Z</time></trkpt><trkpt lat="43.68327370958521" lon="7.233986786601341"><ele>12.0</ele><time>2026-04-29T06:08:15Z</time></trkpt><trkpt lat="43.68320813706625" lon="7.233917493840932"><ele>11.5</ele><time>2026-04-29T06:08:16Z</time></trkpt><trkpt lat="43.68315728021688" lon="7.233862140157248"><ele>11.0</ele><time>2026-04-29T06:08:17Z</time></trkpt><trkpt lat="43.68309063944781" lon="7.2337878077047115"><ele>10.5</ele><time>2026-04-29T06:08:19Z</time></trkpt><trkpt lat="43.68302628010762" lon="7.23372649878895"><ele>10.0</ele><time>2026-04-29T06:08:51Z</time></trkpt><trkpt lat="43.68292791373898" lon="7.233615773997866"><ele>10.0</ele><time>2026-04-29T06:08:53Z</time></trkpt><trkpt lat="43.68286540479669" lon="7.233549264137669"><ele>10.0</ele><time>2026-04-29T06:08:54Z</time></trkpt><trkpt lat="43.68279540697492" lon="7.233473241004599"><ele>10.0</ele><time>2026-04-29T06:08:55Z</time></trkpt><trkpt lat="43.682718654543685" lon="7.2333837944962776"><ele>10.0</ele><time>2026-04-29T06:08:56Z</time></trkpt><trkpt lat="43.68263896625468" lon="7.233293557771589"><ele>10.0</ele><time>2026-04-29T06:08:57Z</time></trkpt><trkpt lat="43.68256312981877" lon="7.233212784866928"><ele>10.5</ele><time>2026-04-29T06:08:58Z</time></trkpt><trkpt lat="43.682494285543015" lon="7.23313797010629"><ele>11.0</ele><time>2026-04-29T06:08:59Z</time></trkpt><trkpt lat="43.68242955237017" lon="7.233065437773531"><ele>11.5</ele><time>2026-04-29T06:09:00Z</time></trkpt><trkpt lat="43.68237021306208" lon="7.232999076404622"><ele>12.0</ele><time>2026-04-29T06:09:01Z</time></trkpt><trkpt lat="43.68231830641066" lon="7.232938747337989"><ele>12.499999999999998</ele><time>2026-04-29T06:09:02Z</time></trkpt><trkpt lat="43.68223008963785" lon="7.232838965518597"><ele>13.0</ele><time>2026-04-29T06:09:04Z</time></trkpt><trkpt lat="43.68214533875001" lon="7.232728117287965"><ele>12.999999999999998</ele><time>2026-04-29T06:09:05.999Z</time></trkpt><trkpt lat="43.68208807079999" lon="7.23265536942052"><ele>13.0</ele><time>2026-04-29T06:09:07.999Z</time></trkpt><trkpt lat="43.682030964456025" lon="7.232590223064434"><ele>13.0</ele><time>2026-04-29T06:09:12Z</time></trkpt><trkpt lat="43.68196162481141" lon="7.23251321936629"><ele>13.0</ele><time>2026-04-29T06:09:16Z</time></trkpt><trkpt lat="43.68190372349599" lon="7.232450951426395"><ele>12.999999999999998</ele><time>2026-04-29T06:09:18Z</time></trkpt><trkpt lat="43.68182215031882" lon="7.232373139577088"><ele>13.0</ele><time>2026-04-29T06:09:20Z</time></trkpt><trkpt lat="43.68174552096412" lon="7.232294378215924"><ele>12.333333333333332</ele><time>2026-04-29T06:09:22Z</time></trkpt><trkpt lat="43.68167488141534" lon="7.2322202888602884"><ele>11.666666666666666</ele><time>2026-04-29T06:09:24Z</time></trkpt><trkpt lat="43.681602710995584" lon="7.232150846110505"><ele>11.0</ele><time>2026-04-29T06:09:27Z</time></trkpt><trkpt lat="43.68155292456577" lon="7.232097238656184"><ele>10.333333333333332</ele><time>2026-04-29T06:09:29Z</time></trkpt><trkpt lat="43.6814957839834" lon="7.232032258896608"><ele>9.666666666666666</ele><time>2026-04-29T06:09:32Z</time></trkpt><trkpt lat="43.68144229476333" lon="7.231974794932335"><ele>9.0</ele><time>2026-04-29T06:09:36Z</time></trkpt><trkpt lat="43.68137155461726" lon="7.231911240562325"><ele>9.0</ele><time>2026-04-29T06:10:00Z</time></trkpt><trkpt lat="43.68132139030564" lon="7.231855707914715"><ele>9.0</ele><time>2026-04-29T06:10:01Z</time></trkpt><trkpt lat="43.68125670274253" lon="7.231784217242164"><ele>9.0</ele><time>2026-04-29T06:10:02Z</time></trkpt><trkpt lat="43.681190028345604" lon="7.23171193435667"><ele>9.0</ele><time>2026-04-29T06:10:03Z</time></trkpt><trkpt lat="43.68110866453878" lon="7.231630754750826"><ele>9.0</ele><time>2026-04-29T06:10:04Z</time></trkpt><trkpt lat="43.68101812929657" lon="7.231542932994183"><ele>9.0</ele><time>2026-04-29T06:10:05Z</time></trkpt><trkpt lat="43.68092479062014" lon="7.23145224264897"><ele>10.5</ele><time>2026-04-29T06:10:06Z</time></trkpt><trkpt lat="43.68083472855029" lon="7.231374182256221"><ele>12.0</ele><time>2026-04-29T06:10:07Z</time></trkpt><trkpt lat="43.68073757526376" lon="7.231292955549802"><ele>13.5</ele><time>2026-04-29T06:10:08Z</time></trkpt><trkpt lat="43.68063699810532" lon="7.2312056284013275"><ele>15.0</ele><time>2026-04-29T06:10:09Z</time></trkpt><trkpt lat="43.6805361827766" lon="7.23111842809358"><ele>15.0</ele><time>2026-04-29T06:10:10Z</time></trkpt><trkpt lat="43.68043311984908" lon="7.2310311525093915"><ele>15.0</ele><time>2026-04-29T06:10:11Z</time></trkpt><trkpt lat="43.6803338467229" lon="7.2309509969876515"><ele>15.0</ele><time>2026-04-29T06:10:12Z</time></trkpt><trkpt lat="43.68023455871548" lon="7.230873824389125"><ele>15.0</ele><time>2026-04-29T06:10:13Z</time></trkpt><trkpt lat="43.68013756292142" lon="7.230797013379609"><ele>14.8</ele><time>2026-04-29T06:10:14Z</time></trkpt><trkpt lat="43.6800462758445" lon="7.230727657387995"><ele>14.6</ele><time>2026-04-29T06:10:15Z</time></trkpt><trkpt lat="43.67995510800512" lon="7.230659174276459"><ele>14.399999999999999</ele><time>2026-04-29T06:10:16Z</time></trkpt><trkpt lat="43.67986374948586" lon="7.230589448852823"><ele>14.2</ele><time>2026-04-29T06:10:17Z</time></trkpt><trkpt lat="43.679768986279505" lon="7.230519828216596"><ele>14.0</ele><time>2026-04-29T06:10:18Z</time></trkpt><trkpt lat="43.67967602619865" lon="7.230453302247904"><ele>14.0</ele><time>2026-04-29T06:10:19Z</time></trkpt><trkpt lat="43.67958237914226" lon="7.230384944073258"><ele>13.999999999999998</ele><time>2026-04-29T06:10:20Z</time></trkpt><trkpt lat="43.67948605068555" lon="7.230311332111049"><ele>13.999999999999998</ele><time>2026-04-29T06:10:21Z</time></trkpt><trkpt lat="43.67938714389323" lon="7.230231994242007"><ele>14.0</ele><time>2026-04-29T06:10:22Z</time></trkpt><trkpt lat="43.67928572253492" lon="7.230153464582968"><ele>14.0</ele><time>2026-04-29T06:10:23Z</time></trkpt><trkpt lat="43.67918566983819" lon="7.230078348994551"><ele>14.25</ele><time>2026-04-29T06:10:24Z</time></trkpt><trkpt lat="43.67908259064836" lon="7.230003184664625"><ele>14.5</ele><time>2026-04-29T06:10:25Z</time></trkpt><trkpt lat="43.67898011688804" lon="7.2299291128771666"><ele>14.75</ele><time>2026-04-29T06:10:26Z</time></trkpt><trkpt lat="43.67887833411943" lon="7.229852308784923"><ele>15.0</ele><time>2026-04-29T06:10:27Z</time></trkpt><trkpt lat="43.67877357405442" lon="7.229775393921072"><ele>15.0</ele><time>2026-04-29T06:10:28Z</time></trkpt><trkpt lat="43.67867187445631" lon="7.229702335420133"><ele>15.0</ele><time>2026-04-29T06:10:29Z</time></trkpt><trkpt lat="43.67857315302486" lon="7.22962986502055"><ele>15.0</ele><time>2026-04-29T06:10:30Z</time></trkpt><trkpt lat="43.67847473520339" lon="7.229559568254296"><ele>15.0</ele><time>2026-04-29T06:10:31Z</time></trkpt><trkpt lat="43.678377727378304" lon="7.229485467042715"><ele>15.0</ele><time>2026-04-29T06:10:32Z</time></trkpt><trkpt lat="43.67827754661813" lon="7.2294099595918375"><ele>14.25</ele><time>2026-04-29T06:10:33Z</time></trkpt><trkpt lat="43.67817368508798" lon="7.229333929912637"><ele>13.5</ele><time>2026-04-29T06:10:34Z</time></trkpt><trkpt lat="43.67807139496712" lon="7.229261797229096"><ele>12.75</ele><time>2026-04-29T06:10:35Z</time></trkpt><trkpt lat="43.67796893645776" lon="7.229186082871332"><ele>12.0</ele><time>2026-04-29T06:10:36Z</time></trkpt><trkpt lat="43.67786375003462" lon="7.229112496336039"><ele>11.25</ele><time>2026-04-29T06:10:37Z</time></trkpt><trkpt lat="43.67775776496306" lon="7.22903762248819"><ele>10.5</ele><time>2026-04-29T06:10:38Z</time></trkpt><trkpt lat="43.677650250689645" lon="7.228962799331796"><ele>9.75</ele><time>2026-04-29T06:10:39Z</time></trkpt><trkpt lat="43.67753965106063" lon="7.228889263495858"><ele>9.0</ele><time>2026-04-29T06:10:40Z</time></trkpt><trkpt lat="43.67742770219893" lon="7.228819642966561"><ele>9.0</ele><time>2026-04-29T06:10:41Z</time></trkpt><trkpt lat="43.67731675561707" lon="7.228753965769301"><ele>9.0</ele><time>2026-04-29T06:10:42Z</time></trkpt><trkpt lat="43.6772086025449" lon="7.228692775403053"><ele>9.0</ele><time>2026-04-29T06:10:43Z</time></trkpt><trkpt lat="43.67709938404503" lon="7.228630488978985"><ele>9.0</ele><time>2026-04-29T06:10:44Z</time></trkpt><trkpt lat="43.67698808359033" lon="7.228565566910056"><ele>8.5</ele><time>2026-04-29T06:10:45Z</time></trkpt><trkpt lat="43.67686920365609" lon="7.228498155318599"><ele>8.0</ele><time>2026-04-29T06:10:46Z</time></trkpt><trkpt lat="43.67675560002644" lon="7.228437563150417"><ele>7.5</ele><time>2026-04-29T06:10:47Z</time></trkpt><trkpt lat="43.67664270823182" lon="7.228371543072645"><ele>7.0</ele><time>2026-04-29T06:10:48Z</time></trkpt><trkpt lat="43.67652901445011" lon="7.228309400258481"><ele>7.0</ele><time>2026-04-29T06:10:49Z</time></trkpt><trkpt lat="43.676416031968984" lon="7.228245091335722"><ele>7.0</ele><time>2026-04-29T06:10:50Z</time></trkpt><trkpt lat="43.67630211832146" lon="7.228183392036257"><ele>7.0</ele><time>2026-04-29T06:10:51Z</time></trkpt><trkpt lat="43.67618625260222" lon="7.228115935358311"><ele>7.0</ele><time>2026-04-29T06:10:52Z</time></trkpt><trkpt lat="43.67606976408332" lon="7.228047977908106"><ele>7.5</ele><time>2026-04-29T06:10:53Z</time></trkpt><trkpt lat="43.67595327224658" lon="7.227981024214081"><ele>8.0</ele><time>2026-04-29T06:10:53.999Z</time></trkpt><trkpt lat="43.67583801838057" lon="7.227913881977514"><ele>8.5</ele><time>2026-04-29T06:10:54.999Z</time></trkpt><trkpt lat="43.67572273477197" lon="7.227847041214814"><ele>9.0</ele><time>2026-04-29T06:10:55.999Z</time></trkpt><trkpt lat="43.675605572812245" lon="7.227780092015283"><ele>9.0</ele><time>2026-04-29T06:10:56.999Z</time></trkpt><trkpt lat="43.67548868744953" lon="7.227712543219641"><ele>9.0</ele><time>2026-04-29T06:10:57.999Z</time></trkpt><trkpt lat="43.6753716808276" lon="7.227644556576724"><ele>9.0</ele><time>2026-04-29T06:10:58.999Z</time></trkpt><trkpt lat="43.67525356051454" lon="7.227578375267557"><ele>9.0</ele><time>2026-04-29T06:10:59.999Z</time></trkpt><trkpt lat="43.675138308534294" lon="7.227513180153944"><ele>8.75</ele><time>2026-04-29T06:11:00.999Z</time></trkpt><trkpt lat="43.67502104922206" lon="7.227448808123952"><ele>8.5</ele><time>2026-04-29T06:11:01.999Z</time></trkpt><trkpt lat="43.6749028622485" lon="7.227377416774059"><ele>8.25</ele><time>2026-04-29T06:11:02.999Z</time></trkpt><trkpt lat="43.67478577035127" lon="7.227306722917141"><ele>8.0</ele><time>2026-04-29T06:11:03.999Z</time></trkpt><trkpt lat="43.674666952991" lon="7.227237328300571"><ele>8.0</ele><time>2026-04-29T06:11:04.999Z</time></trkpt><trkpt lat="43.674544455017475" lon="7.22717062083289"><ele>8.0</ele><time>2026-04-29T06:11:05.999Z</time></trkpt><trkpt lat="43.674423407470904" lon="7.227102934358026"><ele>8.0</ele><time>2026-04-29T06:11:06.999Z</time></trkpt><trkpt lat="43.67430190870687" lon="7.227033323185592"><ele>8.0</ele><time>2026-04-29T06:11:07.999Z</time></trkpt><trkpt lat="43.67418399234241" lon="7.226965493474207"><ele>8.0</ele><time>2026-04-29T06:11:08.999Z</time></trkpt><trkpt lat="43.674070985951836" lon="7.226899236081021"><ele>8.0</ele><time>2026-04-29T06:11:09.999Z</time></trkpt><trkpt lat="43.673956931413905" lon="7.226836393468661"><ele>8.0</ele><time>2026-04-29T06:11:10.999Z</time></trkpt><trkpt lat="43.67383708372747" lon="7.226763652610183"><ele>8.0</ele><time>2026-04-29T06:11:11.999Z</time></trkpt><trkpt lat="43.673718580560305" lon="7.226694775176806"><ele>8.25</ele><time>2026-04-29T06:11:12.999Z</time></trkpt><trkpt lat="43.67360086066203" lon="7.226622784117165"><ele>8.5</ele><time>2026-04-29T06:11:13.999Z</time></trkpt><trkpt lat="43.67348625072872" lon="7.226545295520774"><ele>8.75</ele><time>2026-04-29T06:11:14.999Z</time></trkpt><trkpt lat="43.67337169605841" lon="7.226465959384429"><ele>9.0</ele><time>2026-04-29T06:11:15.999Z</time></trkpt><trkpt lat="43.67325608305723" lon="7.2263826919455685"><ele>8.5</ele><time>2026-04-29T06:11:16.999Z</time></trkpt><trkpt lat="43.67314318619943" lon="7.226299964156209"><ele>8.0</ele><time>2026-04-29T06:11:17.999Z</time></trkpt><trkpt lat="43.673031582661174" lon="7.226212017878758"><ele>7.5</ele><time>2026-04-29T06:11:18.999Z</time></trkpt><trkpt lat="43.67292448421787" lon="7.226125165612681"><ele>7.0</ele><time>2026-04-29T06:11:19.999Z</time></trkpt><trkpt lat="43.67281975541077" lon="7.226037009161675"><ele>7.0</ele><time>2026-04-29T06:11:20.999Z</time></trkpt><trkpt lat="43.672720384812685" lon="7.225951772851111"><ele>6.999999999999999</ele><time>2026-04-29T06:11:21.999Z</time></trkpt><trkpt lat="43.67262718514765" lon="7.225866624116221"><ele>6.999999999999999</ele><time>2026-04-29T06:11:22.999Z</time></trkpt><trkpt lat="43.67254171021227" lon="7.2257875968173195"><ele>7.0</ele><time>2026-04-29T06:11:23.999Z</time></trkpt><trkpt lat="43.67246060725902" lon="7.225709140757391"><ele>7.0</ele><time>2026-04-29T06:11:24.999Z</time></trkpt><trkpt lat="43.67238636347525" lon="7.225632274258872"><ele>7.000000000000001</ele><time>2026-04-29T06:11:25.999Z</time></trkpt><trkpt lat="43.67231612303953" lon="7.2255588705927085"><ele>7.0</ele><time>2026-04-29T06:11:26.999Z</time></trkpt><trkpt lat="43.67224767760043" lon="7.225490731924304"><ele>7.0</ele><time>2026-04-29T06:11:27.999Z</time></trkpt><trkpt lat="43.67218693532466" lon="7.225421713229299"><ele>7.0</ele><time>2026-04-29T06:11:28.999Z</time></trkpt><trkpt lat="43.67213400527584" lon="7.225357214122174"><ele>7.000000000000001</ele><time>2026-04-29T06:11:29.999Z</time></trkpt><trkpt lat="43.672051180292925" lon="7.225250029336024"><ele>7.0</ele><time>2026-04-29T06:11:31.999Z</time></trkpt><trkpt lat="43.67199193239492" lon="7.225179009982617"><ele>7.0</ele><time>2026-04-29T06:11:33.999Z</time></trkpt><trkpt lat="43.67193335459507" lon="7.225122047615815"><ele>6.999999999999999</ele><time>2026-04-29T06:11:52.999Z</time></trkpt><trkpt lat="43.67186104207322" lon="7.225031718558311"><ele>6.999999999999999</ele><time>2026-04-29T06:11:55.999Z</time></trkpt><trkpt lat="43.67179382205555" lon="7.224942969083349"><ele>7.0</ele><time>2026-04-29T06:11:57.999Z</time></trkpt><trkpt lat="43.67169837987134" lon="7.22482503081525"><ele>7.0</ele><time>2026-04-29T06:11:59.999Z</time></trkpt><trkpt lat="43.67164263158658" lon="7.22475469262097"><ele>7.199999999999999</ele><time>2026-04-29T06:12:00.999Z</time></trkpt><trkpt lat="43.671587014811344" lon="7.224677911118963"><ele>7.3999999999999995</ele><time>2026-04-29T06:12:01.999Z</time></trkpt><trkpt lat="43.671535714731164" lon="7.224614143627577"><ele>7.6000000000000005</ele><time>2026-04-29T06:12:02.999Z</time></trkpt><trkpt lat="43.671449738875104" lon="7.224501233330155"><ele>7.800000000000001</ele><time>2026-04-29T06:12:04.999Z</time></trkpt><trkpt lat="43.67136203595757" lon="7.224380065701155"><ele>8.0</ele><time>2026-04-29T06:12:06.999Z</time></trkpt><trkpt lat="43.671315289098935" lon="7.224313846793663"><ele>7.999999999999999</ele><time>2026-04-29T06:12:07.999Z</time></trkpt><trkpt lat="43.67125901445374" lon="7.2242347261680635"><ele>8.0</ele><time>2026-04-29T06:12:08.999Z</time></trkpt><trkpt lat="43.67120254430693" lon="7.224154612309197"><ele>8.0</ele><time>2026-04-29T06:12:09.999Z</time></trkpt><trkpt lat="43.67114247655817" lon="7.224071314003552"><ele>8.0</ele><time>2026-04-29T06:12:10.999Z</time></trkpt><trkpt lat="43.67108636539719" lon="7.223995218565879"><ele>7.999999999999999</ele><time>2026-04-29T06:12:11.999Z</time></trkpt><trkpt lat="43.671034664757116" lon="7.223924082983614"><ele>8.0</ele><time>2026-04-29T06:12:12.999Z</time></trkpt><trkpt lat="43.670976567104944" lon="7.223842416728632"><ele>8.200000000000001</ele><time>2026-04-29T06:12:13.999Z</time></trkpt><trkpt lat="43.670909853276314" lon="7.2237493898669465"><ele>8.4</ele><time>2026-04-29T06:12:14.999Z</time></trkpt><trkpt lat="43.67083462609452" lon="7.223641375120163"><ele>8.600000000000001</ele><time>2026-04-29T06:12:15.999Z</time></trkpt><trkpt lat="43.670758453488325" lon="7.223529346186509"><ele>8.8</ele><time>2026-04-29T06:12:16.999Z</time></trkpt><trkpt lat="43.67068362734385" lon="7.223422217471687"><ele>9.0</ele><time>2026-04-29T06:12:17.999Z</time></trkpt><trkpt lat="43.670606592440656" lon="7.223311393304925"><ele>9.0</ele><time>2026-04-29T06:12:18.999Z</time></trkpt><trkpt lat="43.670532986846474" lon="7.2232064448195805"><ele>9.0</ele><time>2026-04-29T06:12:19.999Z</time></trkpt><trkpt lat="43.670467838969" lon="7.223092448124973"><ele>9.0</ele><time>2026-04-29T06:12:20.999Z</time></trkpt><trkpt lat="43.670406381689446" lon="7.222977453578889"><ele>9.0</ele><time>2026-04-29T06:12:21.999Z</time></trkpt><trkpt lat="43.67032706899602" lon="7.222907403158779"><ele>9.0</ele><time>2026-04-29T06:12:22.999Z</time></trkpt><trkpt lat="43.67026142191266" lon="7.222818739195691"><ele>9.4</ele><time>2026-04-29T06:12:23.999Z</time></trkpt><trkpt lat="43.670199016085995" lon="7.222735877933502"><ele>9.8</ele><time>2026-04-29T06:12:24.999Z</time></trkpt><trkpt lat="43.6701388091549" lon="7.222645471898491"><ele>10.200000000000001</ele><time>2026-04-29T06:12:25.999Z</time></trkpt><trkpt lat="43.670073797420415" lon="7.222547003115303"><ele>10.600000000000001</ele><time>2026-04-29T06:12:26.999Z</time></trkpt><trkpt lat="43.670001166940956" lon="7.222442899556442"><ele>11.0</ele><time>2026-04-29T06:12:27.999Z</time></trkpt><trkpt lat="43.66992653913044" lon="7.222342536216022"><ele>10.5</ele><time>2026-04-29T06:12:28.999Z</time></trkpt><trkpt lat="43.66985499576921" lon="7.222249345312368"><ele>10.0</ele><time>2026-04-29T06:12:29.999Z</time></trkpt><trkpt lat="43.66979043114931" lon="7.222166135621698"><ele>9.5</ele><time>2026-04-29T06:12:30.999Z</time></trkpt><trkpt lat="43.66972484053044" lon="7.222079183852394"><ele>9.0</ele><time>2026-04-29T06:12:31.999Z</time></trkpt><trkpt lat="43.66966774810362" lon="7.222008089385862"><ele>8.5</ele><time>2026-04-29T06:12:32.999Z</time></trkpt><trkpt lat="43.66961506304859" lon="7.221934764184067"><ele>8.0</ele><time>2026-04-29T06:12:33.999Z</time></trkpt><trkpt lat="43.66957067256612" lon="7.221868144399721"><ele>7.999999999999999</ele><time>2026-04-29T06:12:34.999Z</time></trkpt><trkpt lat="43.669524122539976" lon="7.221796161435071"><ele>8.0</ele><time>2026-04-29T06:12:35.999Z</time></trkpt><trkpt lat="43.66947051109354" lon="7.221722787755441"><ele>8.0</ele><time>2026-04-29T06:12:36.999Z</time></trkpt><trkpt lat="43.66941783979258" lon="7.2216522213278935"><ele>8.0</ele><time>2026-04-29T06:12:37.999Z</time></trkpt><trkpt lat="43.66937274037071" lon="7.221588200940865"><ele>7.999999999999999</ele><time>2026-04-29T06:12:38.999Z</time></trkpt><trkpt lat="43.66929593508585" lon="7.2214831406220075"><ele>8.0</ele><time>2026-04-29T06:12:40.999Z</time></trkpt><trkpt lat="43.66921503384413" lon="7.2213767553482215"><ele>7.800000000000001</ele><time>2026-04-29T06:12:42.999Z</time></trkpt><trkpt lat="43.669123012568974" lon="7.221256086996282"><ele>7.6000000000000005</ele><time>2026-04-29T06:12:44.999Z</time></trkpt><trkpt lat="43.66908142945158" lon="7.221190540527202"><ele>7.3999999999999995</ele><time>2026-04-29T06:12:45.999Z</time></trkpt><trkpt lat="43.668992207778025" lon="7.221079186378808"><ele>7.199999999999999</ele><time>2026-04-29T06:12:47.999Z</time></trkpt><trkpt lat="43.66894967480799" lon="7.221014346117374"><ele>7.0</ele><time>2026-04-29T06:12:48.999Z</time></trkpt><trkpt lat="43.668865983113406" lon="7.220910091693106"><ele>7.000000000000001</ele><time>2026-04-29T06:12:50.999Z</time></trkpt><trkpt lat="43.66881898184174" lon="7.220849998450681"><ele>7.0</ele><time>2026-04-29T06:12:51.999Z</time></trkpt><trkpt lat="43.668767976072125" lon="7.220779936374154"><ele>7.0</ele><time>2026-04-29T06:12:52.999Z</time></trkpt><trkpt lat="43.66871354764079" lon="7.220701957705763"><ele>7.0</ele><time>2026-04-29T06:12:53.999Z</time></trkpt><trkpt lat="43.66865500446299" lon="7.220620103484327"><ele>7.000000000000001</ele><time>2026-04-29T06:12:54.999Z</time></trkpt><trkpt lat="43.668588984958845" lon="7.220530069342711"><ele>7.0</ele><time>2026-04-29T06:12:55.999Z</time></trkpt><trkpt lat="43.66852332458291" lon="7.220438101377249"><ele>6.8</ele><time>2026-04-29T06:12:56.999Z</time></trkpt><trkpt lat="43.668453263261405" lon="7.220337800698931"><ele>6.6</ele><time>2026-04-29T06:12:57.999Z</time></trkpt><trkpt lat="43.66838682823843" lon="7.220242280388168"><ele>6.3999999999999995</ele><time>2026-04-29T06:12:58.999Z</time></trkpt><trkpt lat="43.66831985855926" lon="7.220143314602986"><ele>6.199999999999999</ele><time>2026-04-29T06:12:59.999Z</time></trkpt><trkpt lat="43.668256558270116" lon="7.220040509459722"><ele>6.0</ele><time>2026-04-29T06:13:00.999Z</time></trkpt><trkpt lat="43.66819121660822" lon="7.219931970969984"><ele>6.0</ele><time>2026-04-29T06:13:01.999Z</time></trkpt><trkpt lat="43.66813137221952" lon="7.219822917132719"><ele>6.0</ele><time>2026-04-29T06:13:02.999Z</time></trkpt><trkpt lat="43.66807276986783" lon="7.219716314228196"><ele>6.0</ele><time>2026-04-29T06:13:03.999Z</time></trkpt><trkpt lat="43.66801001429585" lon="7.219597926668042"><ele>6.0</ele><time>2026-04-29T06:13:04.999Z</time></trkpt><trkpt lat="43.66794750551707" lon="7.219469726164599"><ele>6.0</ele><time>2026-04-29T06:13:05.999Z</time></trkpt><trkpt lat="43.66788477916204" lon="7.2193271207101"><ele>5.75</ele><time>2026-04-29T06:13:06.999Z</time></trkpt><trkpt lat="43.66782578339489" lon="7.219177886110624"><ele>5.5</ele><time>2026-04-29T06:13:07.999Z</time></trkpt><trkpt lat="43.66776499340521" lon="7.219029448965958"><ele>5.25</ele><time>2026-04-29T06:13:08.999Z</time></trkpt><trkpt lat="43.66770264872031" lon="7.218880484333063"><ele>5.0</ele><time>2026-04-29T06:13:09.999Z</time></trkpt><trkpt lat="43.66764330872021" lon="7.2187323046047895"><ele>5.0</ele><time>2026-04-29T06:13:10.999Z</time></trkpt><trkpt lat="43.66758519728923" lon="7.218586609639684"><ele>5.0</ele><time>2026-04-29T06:13:11.999Z</time></trkpt><trkpt lat="43.667534740686314" lon="7.218446754922533"><ele>5.0</ele><time>2026-04-29T06:13:12.999Z</time></trkpt><trkpt lat="43.66748040589778" lon="7.21830279420757"><ele>5.0</ele><time>2026-04-29T06:13:13.999Z</time></trkpt><trkpt lat="43.66743357888548" lon="7.2181485503633755"><ele>5.25</ele><time>2026-04-29T06:13:14.999Z</time></trkpt><trkpt lat="43.667387428398776" lon="7.217991927266414"><ele>5.5</ele><time>2026-04-29T06:13:15.999Z</time></trkpt><trkpt lat="43.667337761761445" lon="7.217834594141334"><ele>5.75</ele><time>2026-04-29T06:13:16.999Z</time></trkpt><trkpt lat="43.66729387559796" lon="7.217681999693075"><ele>6.0</ele><time>2026-04-29T06:13:17.999Z</time></trkpt><trkpt lat="43.667253723997995" lon="7.217528776029533"><ele>6.0</ele><time>2026-04-29T06:13:18.999Z</time></trkpt><trkpt lat="43.66721466083156" lon="7.217376686692826"><ele>6.0</ele><time>2026-04-29T06:13:19.998Z</time></trkpt><trkpt lat="43.667178685774076" lon="7.217224305659034"><ele>6.0</ele><time>2026-04-29T06:13:20.998Z</time></trkpt><trkpt lat="43.66714457789357" lon="7.2170688534446095"><ele>6.0</ele><time>2026-04-29T06:13:21.999Z</time></trkpt><trkpt lat="43.66711393199702" lon="7.216910745787444"><ele>6.5</ele><time>2026-04-29T06:13:22.999Z</time></trkpt><trkpt lat="43.66708251240389" lon="7.216749451137477"><ele>7.0</ele><time>2026-04-29T06:13:23.999Z</time></trkpt><trkpt lat="43.667054445153354" lon="7.216591015325924"><ele>7.5</ele><time>2026-04-29T06:13:24.999Z</time></trkpt><trkpt lat="43.66703034595743" lon="7.2164334833049795"><ele>8.0</ele><time>2026-04-29T06:13:25.999Z</time></trkpt><trkpt lat="43.66700650679652" lon="7.21627212042288"><ele>8.25</ele><time>2026-04-29T06:13:26.999Z</time></trkpt><trkpt lat="43.66698512343443" lon="7.216111010165883"><ele>8.5</ele><time>2026-04-29T06:13:27.999Z</time></trkpt><trkpt lat="43.66696380212004" lon="7.215947644898703"><ele>8.75</ele><time>2026-04-29T06:13:28.999Z</time></trkpt><trkpt lat="43.66694449985366" lon="7.215787113820616"><ele>9.0</ele><time>2026-04-29T06:13:29.999Z</time></trkpt><trkpt lat="43.66691459944809" lon="7.2156465692078235"><ele>9.25</ele><time>2026-04-29T06:13:30.999Z</time></trkpt><trkpt lat="43.66688512485576" lon="7.215496953705639"><ele>9.5</ele><time>2026-04-29T06:13:31.999Z</time></trkpt><trkpt lat="43.66688052064192" lon="7.215316868833624"><ele>9.75</ele><time>2026-04-29T06:13:32.999Z</time></trkpt><trkpt lat="43.66686217923834" lon="7.215156403317602"><ele>10.0</ele><time>2026-04-29T06:13:33.999Z</time></trkpt><trkpt lat="43.66684259888685" lon="7.21499296095047"><ele>10.0</ele><time>2026-04-29T06:13:34.999Z</time></trkpt><trkpt lat="43.66682369579595" lon="7.214828571669658"><ele>10.0</ele><time>2026-04-29T06:13:35.999Z</time></trkpt><trkpt lat="43.6668068382821" lon="7.214670938856233"><ele>10.0</ele><time>2026-04-29T06:13:36.999Z</time></trkpt><trkpt lat="43.66679081278932" lon="7.214518865650021"><ele>10.0</ele><time>2026-04-29T06:13:37.999Z</time></trkpt><trkpt lat="43.66677122489216" lon="7.214365137022379"><ele>10.25</ele><time>2026-04-29T06:13:38.999Z</time></trkpt><trkpt lat="43.666752661702475" lon="7.2142087145892955"><ele>10.5</ele><time>2026-04-29T06:13:39.999Z</time></trkpt><trkpt lat="43.66673429946799" lon="7.21405250611417"><ele>10.75</ele><time>2026-04-29T06:13:40.999Z</time></trkpt><trkpt lat="43.66671701470818" lon="7.213894392137092"><ele>11.0</ele><time>2026-04-29T06:13:41.999Z</time></trkpt><trkpt lat="43.66670055349437" lon="7.213730624745629"><ele>10.5</ele><time>2026-04-29T06:13:42.999Z</time></trkpt><trkpt lat="43.66668120539166" lon="7.213570167021763"><ele>10.0</ele><time>2026-04-29T06:13:43.999Z</time></trkpt><trkpt lat="43.66666099637671" lon="7.213415965021693"><ele>9.5</ele><time>2026-04-29T06:13:44.999Z</time></trkpt><trkpt lat="43.66664229705563" lon="7.21326830981351"><ele>9.0</ele><time>2026-04-29T06:13:45.999Z</time></trkpt><trkpt lat="43.66662585402425" lon="7.213117719561686"><ele>8.8</ele><time>2026-04-29T06:13:46.999Z</time></trkpt><trkpt lat="43.66660924727201" lon="7.212967926194253"><ele>8.600000000000001</ele><time>2026-04-29T06:13:47.999Z</time></trkpt><trkpt lat="43.66659250112846" lon="7.212815978238676"><ele>8.4</ele><time>2026-04-29T06:13:48.999Z</time></trkpt><trkpt lat="43.666575331480324" lon="7.212660352908934"><ele>8.200000000000001</ele><time>2026-04-29T06:13:49.999Z</time></trkpt><trkpt lat="43.66655614471618" lon="7.212508454221713"><ele>8.0</ele><time>2026-04-29T06:13:50.999Z</time></trkpt><trkpt lat="43.66653729965298" lon="7.212359110094172"><ele>7.6000000000000005</ele><time>2026-04-29T06:13:51.999Z</time></trkpt><trkpt lat="43.666520208930905" lon="7.212207882997388"><ele>7.200000000000001</ele><time>2026-04-29T06:13:52.999Z</time></trkpt><trkpt lat="43.666501419606206" lon="7.212064600011914"><ele>6.8</ele><time>2026-04-29T06:13:53.999Z</time></trkpt><trkpt lat="43.66648859408116" lon="7.2119392378062805"><ele>6.4</ele><time>2026-04-29T06:13:54.999Z</time></trkpt><trkpt lat="43.66647709814989" lon="7.211829231778812"><ele>6.0</ele><time>2026-04-29T06:13:55.999Z</time></trkpt><trkpt lat="43.66646658849228" lon="7.211742428356509"><ele>5.999999999999999</ele><time>2026-04-29T06:13:56.999Z</time></trkpt><trkpt lat="43.66645410193925" lon="7.211624850349698"><ele>6.0</ele><time>2026-04-29T06:13:58.999Z</time></trkpt><trkpt lat="43.66644308076368" lon="7.211523527650326"><ele>6.0</ele><time>2026-04-29T06:14:24.999Z</time></trkpt><trkpt lat="43.666427489394295" lon="7.21139817785578"><ele>6.0</ele><time>2026-04-29T06:14:26.999Z</time></trkpt><trkpt lat="43.666418999607714" lon="7.211309681128387"><ele>6.0</ele><time>2026-04-29T06:14:27.999Z</time></trkpt><trkpt lat="43.66640720669148" lon="7.211223260037556"><ele>5.999999999999999</ele><time>2026-04-29T06:14:28.999Z</time></trkpt><trkpt lat="43.66639394131711" lon="7.211131385713975"><ele>6.0</ele><time>2026-04-29T06:14:29.999Z</time></trkpt><trkpt lat="43.66638248130418" lon="7.2110332434726825"><ele>6.199999999999999</ele><time>2026-04-29T06:14:30.999Z</time></trkpt><trkpt lat="43.66636941724208" lon="7.2109181224689936"><ele>6.3999999999999995</ele><time>2026-04-29T06:14:31.999Z</time></trkpt><trkpt lat="43.66635549100242" lon="7.210789936759092"><ele>6.6</ele><time>2026-04-29T06:14:32.999Z</time></trkpt><trkpt lat="43.66633920023471" lon="7.210662037194908"><ele>6.8</ele><time>2026-04-29T06:14:33.999Z</time></trkpt><trkpt lat="43.66632350343395" lon="7.210534648726847"><ele>7.0</ele><time>2026-04-29T06:14:34.999Z</time></trkpt><trkpt lat="43.6663035309345" lon="7.210395559148078"><ele>7.0</ele><time>2026-04-29T06:14:35.999Z</time></trkpt><trkpt lat="43.66628488316049" lon="7.21024877569669"><ele>6.999999999999999</ele><time>2026-04-29T06:14:36.999Z</time></trkpt><trkpt lat="43.666268438859625" lon="7.210096377706591"><ele>6.999999999999999</ele><time>2026-04-29T06:14:37.999Z</time></trkpt><trkpt lat="43.6662490746067" lon="7.209946129458285"><ele>7.0</ele><time>2026-04-29T06:14:38.999Z</time></trkpt><trkpt lat="43.666229998119704" lon="7.209789808055435"><ele>7.0</ele><time>2026-04-29T06:14:39.999Z</time></trkpt><trkpt lat="43.66621427573353" lon="7.209633414421305"><ele>7.0</ele><time>2026-04-29T06:14:40.999Z</time></trkpt><trkpt lat="43.6661935029493" lon="7.20947890457921"><ele>7.0</ele><time>2026-04-29T06:14:41.999Z</time></trkpt><trkpt lat="43.66617235602177" lon="7.209313892150459"><ele>7.0</ele><time>2026-04-29T06:14:42.999Z</time></trkpt><trkpt lat="43.66615223508209" lon="7.209148926142285"><ele>7.0</ele><time>2026-04-29T06:14:43.999Z</time></trkpt><trkpt lat="43.66613419228044" lon="7.208982615041107"><ele>7.0</ele><time>2026-04-29T06:14:44.999Z</time></trkpt><trkpt lat="43.66611547111674" lon="7.208815986063926"><ele>7.0</ele><time>2026-04-29T06:14:45.999Z</time></trkpt><trkpt lat="43.66609599615549" lon="7.208649750318478"><ele>7.0</ele><time>2026-04-29T06:14:46.999Z</time></trkpt><trkpt lat="43.66607611067206" lon="7.20848922905383"><ele>7.0</ele><time>2026-04-29T06:14:47.999Z</time></trkpt><trkpt lat="43.66605623453664" lon="7.208326357739667"><ele>7.25</ele><time>2026-04-29T06:14:48.999Z</time></trkpt><trkpt lat="43.666035600308184" lon="7.208164404397956"><ele>7.5</ele><time>2026-04-29T06:14:49.999Z</time></trkpt><trkpt lat="43.66601497003489" lon="7.2080057230337236"><ele>7.75</ele><time>2026-04-29T06:14:50.999Z</time></trkpt><trkpt lat="43.66599623492098" lon="7.207845285052401"><ele>8.0</ele><time>2026-04-29T06:14:51.999Z</time></trkpt><trkpt lat="43.665978912494054" lon="7.207688966317134"><ele>8.0</ele><time>2026-04-29T06:14:52.999Z</time></trkpt><trkpt lat="43.66596109701034" lon="7.207522773278814"><ele>8.0</ele><time>2026-04-29T06:14:53.999Z</time></trkpt><trkpt lat="43.66594208629" lon="7.20735450379956"><ele>8.0</ele><time>2026-04-29T06:14:54.999Z</time></trkpt><trkpt lat="43.665924170490236" lon="7.207188699785267"><ele>8.0</ele><time>2026-04-29T06:14:55.999Z</time></trkpt><trkpt lat="43.66590256884648" lon="7.207018516100042"><ele>8.0</ele><time>2026-04-29T06:14:56.999Z</time></trkpt><trkpt lat="43.66588105896567" lon="7.206839702232199"><ele>8.0</ele><time>2026-04-29T06:14:57.999Z</time></trkpt><trkpt lat="43.66586259270636" lon="7.206663975956922"><ele>8.0</ele><time>2026-04-29T06:14:58.999Z</time></trkpt><trkpt lat="43.66584220436423" lon="7.206488424331717"><ele>8.0</ele><time>2026-04-29T06:14:59.999Z</time></trkpt><trkpt lat="43.66582089220081" lon="7.206309326601295"><ele>8.25</ele><time>2026-04-29T06:15:00.999Z</time></trkpt><trkpt lat="43.66580053740794" lon="7.206134245236325"><ele>8.5</ele><time>2026-04-29T06:15:01.999Z</time></trkpt><trkpt lat="43.665778069661584" lon="7.205960365980023"><ele>8.75</ele><time>2026-04-29T06:15:02.999Z</time></trkpt><trkpt lat="43.665760720340884" lon="7.2057879846192625"><ele>9.0</ele><time>2026-04-29T06:15:03.999Z</time></trkpt><trkpt lat="43.66574094816695" lon="7.205614931757399"><ele>9.75</ele><time>2026-04-29T06:15:04.999Z</time></trkpt><trkpt lat="43.665720771599354" lon="7.205438953999527"><ele>10.5</ele><time>2026-04-29T06:15:05.999Z</time></trkpt><trkpt lat="43.66569883236569" lon="7.205255822588895"><ele>11.25</ele><time>2026-04-29T06:15:06.999Z</time></trkpt><trkpt lat="43.66567801170126" lon="7.205072653392"><ele>12.0</ele><time>2026-04-29T06:15:07.999Z</time></trkpt><trkpt lat="43.66565688174472" lon="7.204888081600352"><ele>12.25</ele><time>2026-04-29T06:15:08.999Z</time></trkpt><trkpt lat="43.665632643334575" lon="7.20469842749945"><ele>12.5</ele><time>2026-04-29T06:15:09.999Z</time></trkpt><trkpt lat="43.66560815647118" lon="7.204504664122474"><ele>12.75</ele><time>2026-04-29T06:15:10.999Z</time></trkpt><trkpt lat="43.66558565379243" lon="7.2043200042547575"><ele>13.0</ele><time>2026-04-29T06:15:11.999Z</time></trkpt><trkpt lat="43.66556414031783" lon="7.2041318467101965"><ele>13.0</ele><time>2026-04-29T06:15:12.999Z</time></trkpt><trkpt lat="43.66554182104551" lon="7.203947151654264"><ele>13.0</ele><time>2026-04-29T06:15:13.999Z</time></trkpt><trkpt lat="43.66551506012411" lon="7.203764611098705"><ele>13.0</ele><time>2026-04-29T06:15:14.999Z</time></trkpt><trkpt lat="43.66548209366869" lon="7.203579373926948"><ele>13.0</ele><time>2026-04-29T06:15:15.999Z</time></trkpt><trkpt lat="43.665444921895286" lon="7.2033971766376235"><ele>13.0</ele><time>2026-04-29T06:15:16.999Z</time></trkpt><trkpt lat="43.66540515031028" lon="7.203208579670816"><ele>13.0</ele><time>2026-04-29T06:15:17.999Z</time></trkpt><trkpt lat="43.6653636758197" lon="7.203019676200133"><ele>13.0</ele><time>2026-04-29T06:15:18.999Z</time></trkpt><trkpt lat="43.6653211341637" lon="7.202832887961263"><ele>13.0</ele><time>2026-04-29T06:15:19.999Z</time></trkpt><trkpt lat="43.665271380280686" lon="7.202647820185892"><ele>13.0</ele><time>2026-04-29T06:15:20.999Z</time></trkpt><trkpt lat="43.665216739727555" lon="7.202466647962043"><ele>13.0</ele><time>2026-04-29T06:15:21.999Z</time></trkpt><trkpt lat="43.665158895719266" lon="7.202286961616175"><ele>13.0</ele><time>2026-04-29T06:15:22.999Z</time></trkpt><trkpt lat="43.665100138217255" lon="7.202109481698867"><ele>13.0</ele><time>2026-04-29T06:15:23.999Z</time></trkpt><trkpt lat="43.66503874784066" lon="7.201934669105575"><ele>13.0</ele><time>2026-04-29T06:15:24.999Z</time></trkpt><trkpt lat="43.6649750235288" lon="7.20176340961156"><ele>13.0</ele><time>2026-04-29T06:15:25.999Z</time></trkpt><trkpt lat="43.664910066802726" lon="7.20158890550944"><ele>13.0</ele><time>2026-04-29T06:15:26.999Z</time></trkpt><trkpt lat="43.66484420973198" lon="7.2014151445774415"><ele>13.0</ele><time>2026-04-29T06:15:28Z</time></trkpt><trkpt lat="43.664775883703506" lon="7.201242226873669"><ele>12.5</ele><time>2026-04-29T06:15:29Z</time></trkpt><trkpt lat="43.66470792424964" lon="7.201066943770403"><ele>12.0</ele><time>2026-04-29T06:15:30Z</time></trkpt><trkpt lat="43.66464055887488" lon="7.200888297271062"><ele>11.5</ele><time>2026-04-29T06:15:31Z</time></trkpt><trkpt lat="43.66457226014093" lon="7.200707535585096"><ele>11.0</ele><time>2026-04-29T06:15:32Z</time></trkpt><trkpt lat="43.66450365049912" lon="7.200525468718287"><ele>10.0</ele><time>2026-04-29T06:15:33Z</time></trkpt><trkpt lat="43.664434710449086" lon="7.200341273474386"><ele>9.0</ele><time>2026-04-29T06:15:34Z</time></trkpt><trkpt lat="43.66436498926669" lon="7.200160918924339"><ele>8.0</ele><time>2026-04-29T06:15:35Z</time></trkpt><trkpt lat="43.66429438391873" lon="7.199978085716769"><ele>7.0</ele><time>2026-04-29T06:15:36Z</time></trkpt><trkpt lat="43.664223695478924" lon="7.199790495913529"><ele>7.0</ele><time>2026-04-29T06:15:37Z</time></trkpt><trkpt lat="43.664153251884535" lon="7.199603858293058"><ele>7.0</ele><time>2026-04-29T06:15:38Z</time></trkpt><trkpt lat="43.66408283966076" lon="7.1994171136734755"><ele>7.0</ele><time>2026-04-29T06:15:39Z</time></trkpt><trkpt lat="43.66401386305829" lon="7.199236973785187"><ele>7.0</ele><time>2026-04-29T06:15:40Z</time></trkpt><trkpt lat="43.66394479801511" lon="7.1990557032021165"><ele>7.0</ele><time>2026-04-29T06:15:41Z</time></trkpt><trkpt lat="43.66387480387854" lon="7.19887055906903"><ele>7.0</ele><time>2026-04-29T06:15:42Z</time></trkpt><trkpt lat="43.6638037897238" lon="7.1986849660411645"><ele>7.0</ele><time>2026-04-29T06:15:43Z</time></trkpt><trkpt lat="43.663733410174586" lon="7.198501133411289"><ele>7.0</ele><time>2026-04-29T06:15:44Z</time></trkpt><trkpt lat="43.66366439342017" lon="7.198313981728552"><ele>7.0</ele><time>2026-04-29T06:15:45Z</time></trkpt><trkpt lat="43.66359481594885" lon="7.198132899436375"><ele>8.666666666666668</ele><time>2026-04-29T06:15:46Z</time></trkpt><trkpt lat="43.66351819534351" lon="7.19795040639288"><ele>10.333333333333334</ele><time>2026-04-29T06:15:47Z</time></trkpt><trkpt lat="43.66344146996038" lon="7.19777435921067"><ele>12.0</ele><time>2026-04-29T06:15:48Z</time></trkpt><trkpt lat="43.66336637205679" lon="7.197594158962164"><ele>12.0</ele><time>2026-04-29T06:15:49Z</time></trkpt><trkpt lat="43.66329364877951" lon="7.197409333830546"><ele>12.0</ele><time>2026-04-29T06:15:50Z</time></trkpt><trkpt lat="43.663223457426966" lon="7.1972294935596235"><ele>12.0</ele><time>2026-04-29T06:15:51Z</time></trkpt><trkpt lat="43.663151535467215" lon="7.1970440780835645"><ele>13.0</ele><time>2026-04-29T06:15:52Z</time></trkpt><trkpt lat="43.66307826618007" lon="7.196859920496748"><ele>14.0</ele><time>2026-04-29T06:15:53Z</time></trkpt><trkpt lat="43.663005293220955" lon="7.196681079970595"><ele>15.0</ele><time>2026-04-29T06:15:54Z</time></trkpt><trkpt lat="43.662932633750515" lon="7.196509079299734"><ele>16.0</ele><time>2026-04-29T06:15:54.999Z</time></trkpt><trkpt lat="43.66285978255696" lon="7.196346003938068"><ele>16.25</ele><time>2026-04-29T06:15:55.999Z</time></trkpt><trkpt lat="43.66278618816184" lon="7.196196296505062"><ele>16.5</ele><time>2026-04-29T06:15:56.999Z</time></trkpt><trkpt lat="43.662708138683655" lon="7.196047940212247"><ele>16.75</ele><time>2026-04-29T06:15:57.999Z</time></trkpt><trkpt lat="43.662629153873766" lon="7.195903572600208"><ele>17.0</ele><time>2026-04-29T06:15:58.999Z</time></trkpt><trkpt lat="43.66255470629745" lon="7.195771945283687"><ele>16.8</ele><time>2026-04-29T06:15:59.999Z</time></trkpt><trkpt lat="43.66248080631058" lon="7.195641114120852"><ele>16.6</ele><time>2026-04-29T06:16:00.999Z</time></trkpt><trkpt lat="43.66241171768404" lon="7.195523719004017"><ele>16.400000000000002</ele><time>2026-04-29T06:16:01.999Z</time></trkpt><trkpt lat="43.66234404020725" lon="7.1954097670575505"><ele>16.2</ele><time>2026-04-29T06:16:02.999Z</time></trkpt><trkpt lat="43.662277973002965" lon="7.195301621299589"><ele>16.0</ele><time>2026-04-29T06:16:03.999Z</time></trkpt><trkpt lat="43.66221614330763" lon="7.195206351242417"><ele>15.999999999999998</ele><time>2026-04-29T06:16:04.999Z</time></trkpt><trkpt lat="43.66216297494809" lon="7.195126700766325"><ele>16.0</ele><time>2026-04-29T06:16:05.999Z</time></trkpt><trkpt lat="43.66210878127741" lon="7.195050329843039"><ele>16.0</ele><time>2026-04-29T06:16:06.999Z</time></trkpt><trkpt lat="43.662054816702216" lon="7.194976339479975"><ele>16.0</ele><time>2026-04-29T06:16:07.999Z</time></trkpt><trkpt lat="43.66199913436468" lon="7.194892599923787"><ele>15.999999999999998</ele><time>2026-04-29T06:16:08.999Z</time></trkpt><trkpt lat="43.66194362816469" lon="7.194801442487041"><ele>16.0</ele><time>2026-04-29T06:16:09.999Z</time></trkpt><trkpt lat="43.6618812357172" lon="7.19469852973216"><ele>15.4</ele><time>2026-04-29T06:16:10.999Z</time></trkpt><trkpt lat="43.661814102062195" lon="7.194599826815758"><ele>14.8</ele><time>2026-04-29T06:16:11.999Z</time></trkpt><trkpt lat="43.66174097316094" lon="7.1944880236274225"><ele>14.200000000000001</ele><time>2026-04-29T06:16:12.999Z</time></trkpt><trkpt lat="43.66166201139174" lon="7.194365061624549"><ele>13.600000000000001</ele><time>2026-04-29T06:16:13.999Z</time></trkpt><trkpt lat="43.66158143509007" lon="7.194236307348716"><ele>13.0</ele><time>2026-04-29T06:16:14.999Z</time></trkpt><trkpt lat="43.66149950009672" lon="7.194104883189006"><ele>13.25</ele><time>2026-04-29T06:16:15.999Z</time></trkpt><trkpt lat="43.66141940745166" lon="7.193976521192659"><ele>13.5</ele><time>2026-04-29T06:16:16.999Z</time></trkpt><trkpt lat="43.661344809824016" lon="7.193851063116628"><ele>13.75</ele><time>2026-04-29T06:16:17.999Z</time></trkpt><trkpt lat="43.661268956229506" lon="7.193723709734438"><ele>14.0</ele><time>2026-04-29T06:16:18.999Z</time></trkpt><trkpt lat="43.66119185861221" lon="7.19358926386417"><ele>14.0</ele><time>2026-04-29T06:16:19.999Z</time></trkpt><trkpt lat="43.661116479747015" lon="7.193454594517679"><ele>14.0</ele><time>2026-04-29T06:16:20.999Z</time></trkpt><trkpt lat="43.66103167393995" lon="7.193317621488076"><ele>14.0</ele><time>2026-04-29T06:16:21.999Z</time></trkpt><trkpt lat="43.66094778888091" lon="7.193177843987157"><ele>14.0</ele><time>2026-04-29T06:16:22.999Z</time></trkpt><trkpt lat="43.660867239623585" lon="7.193040230024203"><ele>13.25</ele><time>2026-04-29T06:16:23.999Z</time></trkpt><trkpt lat="43.66078777651106" lon="7.192905433626466"><ele>12.5</ele><time>2026-04-29T06:16:24.999Z</time></trkpt><trkpt lat="43.66070717771602" lon="7.192774813750351"><ele>11.75</ele><time>2026-04-29T06:16:25.999Z</time></trkpt><trkpt lat="43.66062882027932" lon="7.192646416308743"><ele>11.0</ele><time>2026-04-29T06:16:26.999Z</time></trkpt><trkpt lat="43.660553364979435" lon="7.192521926031507"><ele>11.0</ele><time>2026-04-29T06:16:27.999Z</time></trkpt><trkpt lat="43.660476939808866" lon="7.192396385583549"><ele>11.0</ele><time>2026-04-29T06:16:28.999Z</time></trkpt><trkpt lat="43.6604016886945" lon="7.19227084154059"><ele>11.0</ele><time>2026-04-29T06:16:29.999Z</time></trkpt><trkpt lat="43.66032728720405" lon="7.1921490862851405"><ele>11.0</ele><time>2026-04-29T06:16:30.999Z</time></trkpt><trkpt lat="43.66024958662332" lon="7.192024761810117"><ele>10.75</ele><time>2026-04-29T06:16:31.999Z</time></trkpt><trkpt lat="43.66017237146313" lon="7.191905837845926"><ele>10.5</ele><time>2026-04-29T06:16:32.999Z</time></trkpt><trkpt lat="43.660097249178285" lon="7.1917810614321676"><ele>10.25</ele><time>2026-04-29T06:16:33.999Z</time></trkpt><trkpt lat="43.66002448091661" lon="7.191654262179583"><ele>10.0</ele><time>2026-04-29T06:16:34.999Z</time></trkpt><trkpt lat="43.65995378968866" lon="7.191527314513778"><ele>9.5</ele><time>2026-04-29T06:16:35.999Z</time></trkpt><trkpt lat="43.6598837302532" lon="7.191398492796886"><ele>9.0</ele><time>2026-04-29T06:16:36.999Z</time></trkpt><trkpt lat="43.659817606593634" lon="7.1912721549765095"><ele>8.5</ele><time>2026-04-29T06:16:37.999Z</time></trkpt><trkpt lat="43.659750995920035" lon="7.191136341985057"><ele>8.0</ele><time>2026-04-29T06:16:38.999Z</time></trkpt><trkpt lat="43.659688247702086" lon="7.191000717046752"><ele>8.0</ele><time>2026-04-29T06:16:39.999Z</time></trkpt><trkpt lat="43.65962453273621" lon="7.190864530799804"><ele>8.0</ele><time>2026-04-29T06:16:40.999Z</time></trkpt><trkpt lat="43.65956353641943" lon="7.190725359792506"><ele>8.0</ele><time>2026-04-29T06:16:41.999Z</time></trkpt><trkpt lat="43.659504508614646" lon="7.190586932587603"><ele>8.0</ele><time>2026-04-29T06:16:42.999Z</time></trkpt><trkpt lat="43.659452090705265" lon="7.190454611069224"><ele>7.4</ele><time>2026-04-29T06:16:43.999Z</time></trkpt><trkpt lat="43.65940517935444" lon="7.190333600100494"><ele>6.800000000000001</ele><time>2026-04-29T06:16:44.999Z</time></trkpt><trkpt lat="43.65936762954137" lon="7.190220153975616"><ele>6.2</ele><time>2026-04-29T06:16:45.999Z</time></trkpt><trkpt lat="43.65932666159696" lon="7.190101993804045"><ele>5.6</ele><time>2026-04-29T06:16:46.999Z</time></trkpt><trkpt lat="43.65928992011608" lon="7.189984941960751"><ele>5.0</ele><time>2026-04-29T06:16:47.999Z</time></trkpt><trkpt lat="43.65926170567429" lon="7.189881924600604"><ele>5.4</ele><time>2026-04-29T06:16:48.999Z</time></trkpt><trkpt lat="43.65922273101905" lon="7.189761948518688"><ele>5.8</ele><time>2026-04-29T06:16:50.999Z</time></trkpt><trkpt lat="43.65917195727296" lon="7.189611996155254"><ele>6.199999999999999</ele><time>2026-04-29T06:16:52.999Z</time></trkpt><trkpt lat="43.65913996074228" lon="7.189511055673771"><ele>6.6</ele><time>2026-04-29T06:16:53.999Z</time></trkpt><trkpt lat="43.659104234918324" lon="7.1893910708229924"><ele>7.0</ele><time>2026-04-29T06:16:54.999Z</time></trkpt><trkpt lat="43.65907152488682" lon="7.189263944675388"><ele>7.0</ele><time>2026-04-29T06:16:55.999Z</time></trkpt><trkpt lat="43.65903639296264" lon="7.18912543442085"><ele>6.999999999999999</ele><time>2026-04-29T06:16:56.999Z</time></trkpt><trkpt lat="43.659000483146365" lon="7.188986428948088"><ele>6.999999999999999</ele><time>2026-04-29T06:16:57.999Z</time></trkpt><trkpt lat="43.6589658675148" lon="7.18884901834122"><ele>7.0</ele><time>2026-04-29T06:16:58.999Z</time></trkpt><trkpt lat="43.65892904511724" lon="7.188705833921349"><ele>7.0</ele><time>2026-04-29T06:16:59.999Z</time></trkpt><trkpt lat="43.65889432879813" lon="7.188556713616267"><ele>6.6</ele><time>2026-04-29T06:17:00.999Z</time></trkpt><trkpt lat="43.658861709048544" lon="7.188415338083463"><ele>6.199999999999999</ele><time>2026-04-29T06:17:01.999Z</time></trkpt><trkpt lat="43.65882641107649" lon="7.1882685263841015"><ele>5.8</ele><time>2026-04-29T06:17:02.999Z</time></trkpt><trkpt lat="43.65878861517821" lon="7.188120286190263"><ele>5.4</ele><time>2026-04-29T06:17:03.999Z</time></trkpt><trkpt lat="43.65874991995294" lon="7.187969894365013"><ele>5.0</ele><time>2026-04-29T06:17:04.999Z</time></trkpt><trkpt lat="43.65870812988273" lon="7.1878171646036995"><ele>5.0</ele><time>2026-04-29T06:17:05.999Z</time></trkpt><trkpt lat="43.65867269451069" lon="7.1876557633816525"><ele>5.0</ele><time>2026-04-29T06:17:06.999Z</time></trkpt><trkpt lat="43.65863124013996" lon="7.187498938547984"><ele>5.0</ele><time>2026-04-29T06:17:07.999Z</time></trkpt><trkpt lat="43.65859331264893" lon="7.187335369391196"><ele>5.0</ele><time>2026-04-29T06:17:08.999Z</time></trkpt><trkpt lat="43.658555512569194" lon="7.187171640980321"><ele>5.5</ele><time>2026-04-29T06:17:09.999Z</time></trkpt><trkpt lat="43.65851593975842" lon="7.187009000419261"><ele>6.0</ele><time>2026-04-29T06:17:10.999Z</time></trkpt><trkpt lat="43.65847747118528" lon="7.186845453392854"><ele>6.5</ele><time>2026-04-29T06:17:11.999Z</time></trkpt><trkpt lat="43.65843761564848" lon="7.186681508457887"><ele>7.0</ele><time>2026-04-29T06:17:12.999Z</time></trkpt><trkpt lat="43.65840224686256" lon="7.186522245879093"><ele>7.0</ele><time>2026-04-29T06:17:13.999Z</time></trkpt><trkpt lat="43.658364089009645" lon="7.186366120204073"><ele>7.0</ele><time>2026-04-29T06:17:14.999Z</time></trkpt><trkpt lat="43.65832798611165" lon="7.186217222807702"><ele>7.0</ele><time>2026-04-29T06:17:15.999Z</time></trkpt><trkpt lat="43.65829174363922" lon="7.186068421442531"><ele>7.0</ele><time>2026-04-29T06:17:16.999Z</time></trkpt><trkpt lat="43.65825517201807" lon="7.185922083321579"><ele>7.0</ele><time>2026-04-29T06:17:17.999Z</time></trkpt><trkpt lat="43.65821888468514" lon="7.185774194218661"><ele>7.0</ele><time>2026-04-29T06:17:18.999Z</time></trkpt><trkpt lat="43.65818368950324" lon="7.185626667549459"><ele>7.0</ele><time>2026-04-29T06:17:19.999Z</time></trkpt><trkpt lat="43.658147686893" lon="7.185477816251324"><ele>7.0</ele><time>2026-04-29T06:17:20.999Z</time></trkpt><trkpt lat="43.65811228867259" lon="7.1853290939304495"><ele>7.0</ele><time>2026-04-29T06:17:21.999Z</time></trkpt><trkpt lat="43.658077196841695" lon="7.185181167438041"><ele>7.0</ele><time>2026-04-29T06:17:22.999Z</time></trkpt><trkpt lat="43.6580406661945" lon="7.185036750628083"><ele>7.0</ele><time>2026-04-29T06:17:23.999Z</time></trkpt><trkpt lat="43.658005273563774" lon="7.184886464706452"><ele>7.0</ele><time>2026-04-29T06:17:24.999Z</time></trkpt><trkpt lat="43.65796937594122" lon="7.184739926047846"><ele>7.25</ele><time>2026-04-29T06:17:25.999Z</time></trkpt><trkpt lat="43.65793391956104" lon="7.184591904112769"><ele>7.5</ele><time>2026-04-29T06:17:26.999Z</time></trkpt><trkpt lat="43.65789584892694" lon="7.184444625112576"><ele>7.75</ele><time>2026-04-29T06:17:27.999Z</time></trkpt><trkpt lat="43.65785943791506" lon="7.184295741082527"><ele>8.0</ele><time>2026-04-29T06:17:28.999Z</time></trkpt><trkpt lat="43.657820678900826" lon="7.184141973158773"><ele>7.25</ele><time>2026-04-29T06:17:29.999Z</time></trkpt><trkpt lat="43.657783981625926" lon="7.1839880905336155"><ele>6.5</ele><time>2026-04-29T06:17:30.999Z</time></trkpt><trkpt lat="43.657745364121595" lon="7.183832438480588"><ele>5.75</ele><time>2026-04-29T06:17:31.999Z</time></trkpt><trkpt lat="43.65770545786443" lon="7.183675621051626"><ele>5.0</ele><time>2026-04-29T06:17:32.999Z</time></trkpt><trkpt lat="43.65766469265897" lon="7.18351381170736"><ele>5.0</ele><time>2026-04-29T06:17:34Z</time></trkpt><trkpt lat="43.657625854973524" lon="7.183351029670191"><ele>5.0</ele><time>2026-04-29T06:17:35Z</time></trkpt><trkpt lat="43.657587459754744" lon="7.1831927425664865"><ele>5.0</ele><time>2026-04-29T06:17:36Z</time></trkpt><trkpt lat="43.65754781572236" lon="7.1830366625837545"><ele>5.0</ele><time>2026-04-29T06:17:37Z</time></trkpt><trkpt lat="43.65750872923185" lon="7.182878510628279"><ele>5.25</ele><time>2026-04-29T06:17:38Z</time></trkpt><trkpt lat="43.657470031893304" lon="7.182714474690501"><ele>5.5</ele><time>2026-04-29T06:17:39Z</time></trkpt><trkpt lat="43.657430259629685" lon="7.182554675745494"><ele>5.75</ele><time>2026-04-29T06:17:40Z</time></trkpt><trkpt lat="43.6573885793251" lon="7.182395598014686"><ele>6.0</ele><time>2026-04-29T06:17:41Z</time></trkpt><trkpt lat="43.65734826697576" lon="7.182236537381152"><ele>6.5</ele><time>2026-04-29T06:17:42Z</time></trkpt><trkpt lat="43.65731057746628" lon="7.182075180687673"><ele>7.0</ele><time>2026-04-29T06:17:43Z</time></trkpt><trkpt lat="43.657271487333915" lon="7.181909192059198"><ele>7.5</ele><time>2026-04-29T06:17:44Z</time></trkpt><trkpt lat="43.65723109808212" lon="7.1817494913929725"><ele>8.0</ele><time>2026-04-29T06:17:45Z</time></trkpt><trkpt lat="43.65719287514865" lon="7.181590836377749"><ele>8.0</ele><time>2026-04-29T06:17:46Z</time></trkpt><trkpt lat="43.65715524306276" lon="7.181436538882651"><ele>8.0</ele><time>2026-04-29T06:17:47Z</time></trkpt><trkpt lat="43.657120817596436" lon="7.181289881480506"><ele>8.0</ele><time>2026-04-29T06:17:48Z</time></trkpt><trkpt lat="43.65708620144792" lon="7.181148657297451"><ele>8.0</ele><time>2026-04-29T06:17:49Z</time></trkpt><trkpt lat="43.65705071843353" lon="7.1810083743297"><ele>8.0</ele><time>2026-04-29T06:17:50Z</time></trkpt><trkpt lat="43.657023481805595" lon="7.180872636286936"><ele>8.0</ele><time>2026-04-29T06:17:51Z</time></trkpt><trkpt lat="43.65699085799601" lon="7.1807334018093085"><ele>8.0</ele><time>2026-04-29T06:17:52Z</time></trkpt><trkpt lat="43.65696316183643" lon="7.180604404817497"><ele>8.0</ele><time>2026-04-29T06:17:53Z</time></trkpt><trkpt lat="43.65693845959971" lon="7.180481209763052"><ele>8.0</ele><time>2026-04-29T06:17:54Z</time></trkpt><trkpt lat="43.656916734572434" lon="7.180365958564942"><ele>8.0</ele><time>2026-04-29T06:17:55Z</time></trkpt><trkpt lat="43.65689398089896" lon="7.180250059390798"><ele>7.333333333333333</ele><time>2026-04-29T06:17:56Z</time></trkpt><trkpt lat="43.656871945125864" lon="7.180131590986592"><ele>6.666666666666666</ele><time>2026-04-29T06:17:57Z</time></trkpt><trkpt lat="43.65685207163673" lon="7.180022017605787"><ele>6.0</ele><time>2026-04-29T06:17:58Z</time></trkpt><trkpt lat="43.65683180397076" lon="7.179910320990564"><ele>5.333333333333333</ele><time>2026-04-29T06:17:59Z</time></trkpt><trkpt lat="43.656815179843605" lon="7.179797058904236"><ele>4.666666666666666</ele><time>2026-04-29T06:18:00Z</time></trkpt><trkpt lat="43.65679536507272" lon="7.179685994816851"><ele>4.0</ele><time>2026-04-29T06:18:01Z</time></trkpt><trkpt lat="43.65678103361509" lon="7.179577663625804"><ele>3.9999999999999996</ele><time>2026-04-29T06:18:02Z</time></trkpt><trkpt lat="43.656769105506456" lon="7.179460743405524"><ele>4.0</ele><time>2026-04-29T06:18:03Z</time></trkpt><trkpt lat="43.656754949301586" lon="7.1793428910129276"><ele>4.0</ele><time>2026-04-29T06:18:04Z</time></trkpt><trkpt lat="43.65673960527223" lon="7.179226495701268"><ele>4.0</ele><time>2026-04-29T06:18:05Z</time></trkpt><trkpt lat="43.65672454249845" lon="7.179111004649503"><ele>3.9999999999999996</ele><time>2026-04-29T06:18:06Z</time></trkpt><trkpt lat="43.6567102415007" lon="7.178991887135331"><ele>4.0</ele><time>2026-04-29T06:18:07Z</time></trkpt><trkpt lat="43.65669921056805" lon="7.1788718542125105"><ele>4.2</ele><time>2026-04-29T06:18:08Z</time></trkpt><trkpt lat="43.65668677336276" lon="7.178750856207119"><ele>4.4</ele><time>2026-04-29T06:18:09Z</time></trkpt><trkpt lat="43.6566746669108" lon="7.17862063896824"><ele>4.6</ele><time>2026-04-29T06:18:10Z</time></trkpt><trkpt lat="43.656663227452235" lon="7.178492887371095"><ele>4.8</ele><time>2026-04-29T06:18:11Z</time></trkpt><trkpt lat="43.65665305781685" lon="7.178361088371597"><ele>5.0</ele><time>2026-04-29T06:18:12Z</time></trkpt><trkpt lat="43.65664115133943" lon="7.178228081095683"><ele>5.166666666666667</ele><time>2026-04-29T06:18:13Z</time></trkpt><trkpt lat="43.65662977350837" lon="7.178101347397486"><ele>5.333333333333334</ele><time>2026-04-29T06:18:14Z</time></trkpt><trkpt lat="43.65661989289582" lon="7.177980828507501"><ele>5.5</ele><time>2026-04-29T06:18:15Z</time></trkpt><trkpt lat="43.656610520898305" lon="7.1778600942947435"><ele>5.666666666666667</ele><time>2026-04-29T06:18:16Z</time></trkpt><trkpt lat="43.656600947126954" lon="7.177739701311023"><ele>5.833333333333333</ele><time>2026-04-29T06:18:17Z</time></trkpt><trkpt lat="43.65659205585831" lon="7.177622285199249"><ele>6.0</ele><time>2026-04-29T06:18:18Z</time></trkpt><trkpt lat="43.65658283379202" lon="7.177507390057689"><ele>6.0</ele><time>2026-04-29T06:18:19Z</time></trkpt><trkpt lat="43.656573999287545" lon="7.177386084612441"><ele>6.0</ele><time>2026-04-29T06:18:20Z</time></trkpt><trkpt lat="43.65656158439661" lon="7.177262996101023"><ele>6.0</ele><time>2026-04-29T06:18:21Z</time></trkpt><trkpt lat="43.65655248568674" lon="7.177138942571925"><ele>6.0</ele><time>2026-04-29T06:18:22Z</time></trkpt><trkpt lat="43.65654307732841" lon="7.177009804830651"><ele>6.0</ele><time>2026-04-29T06:18:23Z</time></trkpt><trkpt lat="43.656531331053486" lon="7.176878684682158"><ele>5.8</ele><time>2026-04-29T06:18:23.999Z</time></trkpt><trkpt lat="43.65652530707872" lon="7.17674358663056"><ele>5.6</ele><time>2026-04-29T06:18:24.999Z</time></trkpt><trkpt lat="43.65652260085889" lon="7.176606558977593"><ele>5.4</ele><time>2026-04-29T06:18:25.999Z</time></trkpt><trkpt lat="43.65652028842255" lon="7.176467680220868"><ele>5.2</ele><time>2026-04-29T06:18:26.999Z</time></trkpt><trkpt lat="43.656523932687634" lon="7.176331443039812"><ele>5.0</ele><time>2026-04-29T06:18:27.999Z</time></trkpt><trkpt lat="43.656523519281045" lon="7.176190690441321"><ele>5.0</ele><time>2026-04-29T06:18:28.999Z</time></trkpt><trkpt lat="43.65652616983231" lon="7.1760557492683805"><ele>5.0</ele><time>2026-04-29T06:18:29.999Z</time></trkpt><trkpt lat="43.656532192483425" lon="7.175923572010058"><ele>5.0</ele><time>2026-04-29T06:18:30.999Z</time></trkpt><trkpt lat="43.656540117360336" lon="7.175790329506309"><ele>5.0</ele><time>2026-04-29T06:18:31.999Z</time></trkpt><trkpt lat="43.65655020281733" lon="7.175666510344992"><ele>5.0</ele><time>2026-04-29T06:18:32.999Z</time></trkpt><trkpt lat="43.6565631788554" lon="7.175554950637989"><ele>5.0</ele><time>2026-04-29T06:18:33.999Z</time></trkpt><trkpt lat="43.65657529115659" lon="7.175454727981079"><ele>5.0</ele><time>2026-04-29T06:18:34.999Z</time></trkpt><trkpt lat="43.65658535420745" lon="7.175361754699502"><ele>5.0</ele><time>2026-04-29T06:18:35.999Z</time></trkpt><trkpt lat="43.65659893526808" lon="7.1752278413706465"><ele>5.0</ele><time>2026-04-29T06:18:37.999Z</time></trkpt><trkpt lat="43.6566091677902" lon="7.175121066143647"><ele>5.0</ele><time>2026-04-29T06:18:39.999Z</time></trkpt><trkpt lat="43.656626049962945" lon="7.175016495887021"><ele>5.0</ele><time>2026-04-29T06:18:42.999Z</time></trkpt><trkpt lat="43.65664780706275" lon="7.174903406562197"><ele>5.4</ele><time>2026-04-29T06:18:58.999Z</time></trkpt><trkpt lat="43.65666785582848" lon="7.1747920017449625"><ele>5.8</ele><time>2026-04-29T06:19:00.999Z</time></trkpt><trkpt lat="43.65669034538295" lon="7.174639724354953"><ele>6.199999999999999</ele><time>2026-04-29T06:19:02.999Z</time></trkpt><trkpt lat="43.65672272311144" lon="7.17447843338502"><ele>6.6</ele><time>2026-04-29T06:19:04.999Z</time></trkpt><trkpt lat="43.65674361639377" lon="7.17437585410353"><ele>7.0</ele><time>2026-04-29T06:19:05.999Z</time></trkpt><trkpt lat="43.656763637820056" lon="7.174263700154377"><ele>7.0</ele><time>2026-04-29T06:19:06.999Z</time></trkpt><trkpt lat="43.65679293513112" lon="7.174129765190916"><ele>6.999999999999999</ele><time>2026-04-29T06:19:07.999Z</time></trkpt><trkpt lat="43.65682761496112" lon="7.173994154514235"><ele>6.999999999999999</ele><time>2026-04-29T06:19:08.999Z</time></trkpt><trkpt lat="43.656865149655886" lon="7.173855474418758"><ele>7.0</ele><time>2026-04-29T06:19:09.999Z</time></trkpt><trkpt lat="43.65690386270884" lon="7.173719484574224"><ele>7.0</ele><time>2026-04-29T06:19:10.999Z</time></trkpt><trkpt lat="43.65694630509545" lon="7.1735754036416965"><ele>7.0</ele><time>2026-04-29T06:19:11.999Z</time></trkpt><trkpt lat="43.65699213430531" lon="7.173415598579576"><ele>7.0</ele><time>2026-04-29T06:19:12.999Z</time></trkpt><trkpt lat="43.65704442905387" lon="7.1732670603152"><ele>7.0</ele><time>2026-04-29T06:19:13.999Z</time></trkpt><trkpt lat="43.65709811909138" lon="7.173131000412817"><ele>7.0</ele><time>2026-04-29T06:19:14.999Z</time></trkpt><trkpt lat="43.65714624767809" lon="7.173001280549083"><ele>7.0</ele><time>2026-04-29T06:19:15.999Z</time></trkpt><trkpt lat="43.65719454789744" lon="7.172868574516681"><ele>6.999999999999999</ele><time>2026-04-29T06:19:16.999Z</time></trkpt><trkpt lat="43.657244448445624" lon="7.172737206269409"><ele>6.999999999999999</ele><time>2026-04-29T06:19:17.999Z</time></trkpt><trkpt lat="43.65729084821068" lon="7.172600840986152"><ele>7.0</ele><time>2026-04-29T06:19:18.999Z</time></trkpt><trkpt lat="43.65733839107078" lon="7.1724667961355975"><ele>7.0</ele><time>2026-04-29T06:19:19.999Z</time></trkpt><trkpt lat="43.657388148455446" lon="7.172330486107697"><ele>6.8</ele><time>2026-04-29T06:19:20.999Z</time></trkpt><trkpt lat="43.65743575077157" lon="7.1721948400977045"><ele>6.6</ele><time>2026-04-29T06:19:21.999Z</time></trkpt><trkpt lat="43.65748038805055" lon="7.1720665184840104"><ele>6.3999999999999995</ele><time>2026-04-29T06:19:22.999Z</time></trkpt><trkpt lat="43.65752672219394" lon="7.17193993882249"><ele>6.199999999999999</ele><time>2026-04-29T06:19:23.999Z</time></trkpt><trkpt lat="43.65757403927044" lon="7.171805194691277"><ele>6.0</ele><time>2026-04-29T06:19:24.999Z</time></trkpt><trkpt lat="43.657616836429625" lon="7.1716694137646915"><ele>6.0</ele><time>2026-04-29T06:19:25.999Z</time></trkpt><trkpt lat="43.65765686381877" lon="7.1715311764981795"><ele>6.0</ele><time>2026-04-29T06:19:26.999Z</time></trkpt><trkpt lat="43.65768868937984" lon="7.171395929314717"><ele>6.0</ele><time>2026-04-29T06:19:27.999Z</time></trkpt><trkpt lat="43.65771414915022" lon="7.171262829560313"><ele>6.0</ele><time>2026-04-29T06:19:28.999Z</time></trkpt><trkpt lat="43.6577358212566" lon="7.171140108980294"><ele>6.0</ele><time>2026-04-29T06:19:29.999Z</time></trkpt><trkpt lat="43.65775318773794" lon="7.171022731122085"><ele>6.166666666666667</ele><time>2026-04-29T06:19:30.999Z</time></trkpt><trkpt lat="43.65776816867571" lon="7.1709055950128056"><ele>6.333333333333334</ele><time>2026-04-29T06:19:31.999Z</time></trkpt><trkpt lat="43.65777733402586" lon="7.1707826613877295"><ele>6.5</ele><time>2026-04-29T06:19:32.999Z</time></trkpt><trkpt lat="43.65778705032042" lon="7.170655517758203"><ele>6.666666666666667</ele><time>2026-04-29T06:19:33.999Z</time></trkpt><trkpt lat="43.657794682301024" lon="7.170546897738819"><ele>6.833333333333334</ele><time>2026-04-29T06:19:34.999Z</time></trkpt><trkpt lat="43.65780563561007" lon="7.170453472954423"><ele>7.0</ele><time>2026-04-29T06:19:35.999Z</time></trkpt><trkpt lat="43.657819454256995" lon="7.1703046867151015"><ele>7.000000000000001</ele><time>2026-04-29T06:19:37.999Z</time></trkpt><trkpt lat="43.65783733356155" lon="7.170217903758113"><ele>7.0</ele><time>2026-04-29T06:19:41Z</time></trkpt><trkpt lat="43.65784667213369" lon="7.17013137974503"><ele>7.0</ele><time>2026-04-29T06:19:45Z</time></trkpt><trkpt lat="43.65785766247346" lon="7.170035413041226"><ele>7.0</ele><time>2026-04-29T06:19:50Z</time></trkpt><trkpt lat="43.65785986402784" lon="7.169940608724388"><ele>7.000000000000001</ele><time>2026-04-29T06:19:57Z</time></trkpt><trkpt lat="43.65787424235908" lon="7.169765287575113"><ele>7.0</ele><time>2026-04-29T06:19:59Z</time></trkpt><trkpt lat="43.657881687257145" lon="7.169652743744342"><ele>8.0</ele><time>2026-04-29T06:20:00Z</time></trkpt><trkpt lat="43.65788555907925" lon="7.169519575230283"><ele>9.0</ele><time>2026-04-29T06:20:01Z</time></trkpt><trkpt lat="43.657880516998915" lon="7.169371962079543"><ele>10.0</ele><time>2026-04-29T06:20:02Z</time></trkpt><trkpt lat="43.657872268535776" lon="7.169212074668138"><ele>11.0</ele><time>2026-04-29T06:20:03Z</time></trkpt><trkpt lat="43.65785306622443" lon="7.169050619054809"><ele>12.0</ele><time>2026-04-29T06:20:04Z</time></trkpt><trkpt lat="43.65783782432742" lon="7.168903762298925"><ele>12.0</ele><time>2026-04-29T06:20:05Z</time></trkpt><trkpt lat="43.657821979617815" lon="7.168771782567499"><ele>12.0</ele><time>2026-04-29T06:20:06Z</time></trkpt><trkpt lat="43.65780892994449" lon="7.168658177391323"><ele>12.0</ele><time>2026-04-29T06:20:07Z</time></trkpt><trkpt lat="43.65779836849298" lon="7.168559771896064"><ele>12.0</ele><time>2026-04-29T06:20:08Z</time></trkpt><trkpt lat="43.65778512313578" lon="7.168428440189047"><ele>12.0</ele><time>2026-04-29T06:20:10Z</time></trkpt><trkpt lat="43.65778438544433" lon="7.1683369992917045"><ele>12.0</ele><time>2026-04-29T06:20:17Z</time></trkpt><trkpt lat="43.657768366826666" lon="7.168216128607969"><ele>11.0</ele><time>2026-04-29T06:20:32Z</time></trkpt><trkpt lat="43.65775826464379" lon="7.168118706607222"><ele>10.0</ele><time>2026-04-29T06:20:34Z</time></trkpt><trkpt lat="43.6577482106919" lon="7.168016245485656"><ele>9.0</ele><time>2026-04-29T06:20:35.999Z</time></trkpt><trkpt lat="43.65773537300091" lon="7.167912652178155"><ele>8.0</ele><time>2026-04-29T06:20:37.999Z</time></trkpt><trkpt lat="43.657720578121356" lon="7.167821142620532"><ele>7.0</ele><time>2026-04-29T06:20:40.999Z</time></trkpt><trkpt lat="43.65770447510696" lon="7.167709437053698"><ele>6.0</ele><time>2026-04-29T06:20:53.999Z</time></trkpt><trkpt lat="43.657681491704295" lon="7.167579801265675"><ele>6.0</ele><time>2026-04-29T06:20:56.999Z</time></trkpt><trkpt lat="43.65766322197831" lon="7.167488610642538"><ele>6.0</ele><time>2026-04-29T06:20:58.999Z</time></trkpt><trkpt lat="43.65764869962724" lon="7.167385443612453"><ele>6.0</ele><time>2026-04-29T06:21:01.999Z</time></trkpt><trkpt lat="43.65762466966102" lon="7.167265675357664"><ele>6.0</ele><time>2026-04-29T06:21:04.999Z</time></trkpt><trkpt lat="43.65758981284677" lon="7.1671555154371465"><ele>6.0</ele><time>2026-04-29T06:21:07.999Z</time></trkpt><trkpt lat="43.65757192940864" lon="7.167062084532877"><ele>6.0</ele><time>2026-04-29T06:21:10.999Z</time></trkpt><trkpt lat="43.65755059936894" lon="7.1669687876325945"><ele>5.999999999999999</ele><time>2026-04-29T06:21:39.999Z</time></trkpt><trkpt lat="43.657528721863564" lon="7.166860537199789"><ele>6.0</ele><time>2026-04-29T06:21:43.999Z</time></trkpt><trkpt lat="43.65750980247097" lon="7.1667704259807685"><ele>6.0</ele><time>2026-04-29T06:21:48Z</time></trkpt><trkpt lat="43.657487854564415" lon="7.166686257607512"><ele>6.0</ele><time>2026-04-29T06:22:12Z</time></trkpt><trkpt lat="43.65746687663209" lon="7.166598408178847"><ele>6.0</ele><time>2026-04-29T06:22:15Z</time></trkpt><trkpt lat="43.657445780315314" lon="7.166500275237768"><ele>5.999999999999999</ele><time>2026-04-29T06:22:18Z</time></trkpt><trkpt lat="43.657417502543765" lon="7.166404747848251"><ele>6.0</ele><time>2026-04-29T06:22:24Z</time></trkpt><trkpt lat="43.65739483314313" lon="7.166315578398969"><ele>5.999999999999999</ele><time>2026-04-29T06:22:26Z</time></trkpt><trkpt lat="43.657370351219086" lon="7.16622979038439"><ele>6.0</ele><time>2026-04-29T06:22:28Z</time></trkpt><trkpt lat="43.65734325695236" lon="7.166142983222776"><ele>6.0</ele><time>2026-04-29T06:22:30Z</time></trkpt><trkpt lat="43.65731145257046" lon="7.16603334964858"><ele>6.0</ele><time>2026-04-29T06:22:32Z</time></trkpt><trkpt lat="43.657284811435524" lon="7.165939493603481"><ele>6.0</ele><time>2026-04-29T06:22:34Z</time></trkpt><trkpt lat="43.65725916809543" lon="7.16585871329585"><ele>5.999999999999999</ele><time>2026-04-29T06:22:37Z</time></trkpt><trkpt lat="43.657221133749076" lon="7.165744231907029"><ele>6.0</ele><time>2026-04-29T06:22:40.999Z</time></trkpt><trkpt lat="43.65718377968447" lon="7.165651255034514"><ele>6.0</ele><time>2026-04-29T06:23:24.999Z</time></trkpt><trkpt lat="43.657144952345234" lon="7.1655434905249145"><ele>6.0</ele><time>2026-04-29T06:23:27.999Z</time></trkpt><trkpt lat="43.65711777650414" lon="7.165459182918183"><ele>6.0</ele><time>2026-04-29T06:23:29.999Z</time></trkpt><trkpt lat="43.65708647893995" lon="7.1653700266108515"><ele>6.0</ele><time>2026-04-29T06:23:31.999Z</time></trkpt><trkpt lat="43.65704185217053" lon="7.165239167384443"><ele>6.0</ele><time>2026-04-29T06:23:33.999Z</time></trkpt><trkpt lat="43.65699856408896" lon="7.16511313222245"><ele>6.0</ele><time>2026-04-29T06:23:35.999Z</time></trkpt><trkpt lat="43.65695160115528" lon="7.164982733264657"><ele>6.0</ele><time>2026-04-29T06:23:37.999Z</time></trkpt><trkpt lat="43.65692274207831" lon="7.16489720746417"><ele>6.0</ele><time>2026-04-29T06:23:38.999Z</time></trkpt><trkpt lat="43.65689177839842" lon="7.164796603590398"><ele>6.0</ele><time>2026-04-29T06:23:39.999Z</time></trkpt><trkpt lat="43.65685417389675" lon="7.164680179445938"><ele>6.0</ele><time>2026-04-29T06:23:40.999Z</time></trkpt><trkpt lat="43.656816165955824" lon="7.164561930930882"><ele>6.0</ele><time>2026-04-29T06:23:41.999Z</time></trkpt><trkpt lat="43.65677581980646" lon="7.1644334074877865"><ele>6.0</ele><time>2026-04-29T06:23:42.999Z</time></trkpt><trkpt lat="43.656735057969414" lon="7.164305561027523"><ele>6.0</ele><time>2026-04-29T06:23:43.999Z</time></trkpt><trkpt lat="43.656697372369294" lon="7.164187178594055"><ele>6.0</ele><time>2026-04-29T06:23:44.999Z</time></trkpt><trkpt lat="43.65665805105252" lon="7.164069759110171"><ele>6.0</ele><time>2026-04-29T06:23:45.999Z</time></trkpt><trkpt lat="43.65661683764039" lon="7.163955185560402"><ele>6.0</ele><time>2026-04-29T06:23:46.999Z</time></trkpt><trkpt lat="43.656579648283845" lon="7.163828867362292"><ele>6.0</ele><time>2026-04-29T06:23:47.999Z</time></trkpt><trkpt lat="43.65654307617885" lon="7.1636997955473385"><ele>6.4</ele><time>2026-04-29T06:23:48.999Z</time></trkpt><trkpt lat="43.656508949044586" lon="7.163562709244686"><ele>6.8</ele><time>2026-04-29T06:23:49.999Z</time></trkpt><trkpt lat="43.65647318507037" lon="7.1634240693670375"><ele>7.200000000000001</ele><time>2026-04-29T06:23:50.999Z</time></trkpt><trkpt lat="43.6564272216336" lon="7.163286743494995"><ele>7.6000000000000005</ele><time>2026-04-29T06:23:52Z</time></trkpt><trkpt lat="43.6563731325436" lon="7.16315720240616"><ele>8.0</ele><time>2026-04-29T06:23:53Z</time></trkpt><trkpt lat="43.65631663334722" lon="7.163026663829126"><ele>8.0</ele><time>2026-04-29T06:23:54Z</time></trkpt><trkpt lat="43.656260414860014" lon="7.162894788801486"><ele>8.0</ele><time>2026-04-29T06:23:55Z</time></trkpt><trkpt lat="43.656208093766175" lon="7.162761208497869"><ele>8.0</ele><time>2026-04-29T06:23:56Z</time></trkpt><trkpt lat="43.656164307558136" lon="7.162628707645847"><ele>8.0</ele><time>2026-04-29T06:23:57Z</time></trkpt><trkpt lat="43.65611813108217" lon="7.16249566953867"><ele>8.0</ele><time>2026-04-29T06:23:58Z</time></trkpt><trkpt lat="43.65606998775105" lon="7.162366600985485"><ele>7.2</ele><time>2026-04-29T06:23:59Z</time></trkpt><trkpt lat="43.65602012019635" lon="7.162235987189334"><ele>6.4</ele><time>2026-04-29T06:24:00Z</time></trkpt><trkpt lat="43.65597094563997" lon="7.162109777207455"><ele>5.6000000000000005</ele><time>2026-04-29T06:24:01Z</time></trkpt><trkpt lat="43.65592395537036" lon="7.161985563774984"><ele>4.800000000000001</ele><time>2026-04-29T06:24:02Z</time></trkpt><trkpt lat="43.65587837152512" lon="7.161860114460941"><ele>4.0</ele><time>2026-04-29T06:24:03Z</time></trkpt><trkpt lat="43.655833646144806" lon="7.161735315326129"><ele>4.0</ele><time>2026-04-29T06:24:04Z</time></trkpt><trkpt lat="43.65578824858756" lon="7.161608134045124"><ele>4.0</ele><time>2026-04-29T06:24:05Z</time></trkpt><trkpt lat="43.65574044510826" lon="7.161485638211853"><ele>4.0</ele><time>2026-04-29T06:24:06Z</time></trkpt><trkpt lat="43.65569168839974" lon="7.161361137675115"><ele>4.0</ele><time>2026-04-29T06:24:07Z</time></trkpt><trkpt lat="43.655641423542" lon="7.161237578739745"><ele>4.0</ele><time>2026-04-29T06:24:08Z</time></trkpt><trkpt lat="43.6555914792118" lon="7.161110966226721"><ele>4.2</ele><time>2026-04-29T06:24:09Z</time></trkpt><trkpt lat="43.65554397949004" lon="7.160983796024583"><ele>4.4</ele><time>2026-04-29T06:24:10Z</time></trkpt><trkpt lat="43.65549722560496" lon="7.160852531848238"><ele>4.6</ele><time>2026-04-29T06:24:11Z</time></trkpt><trkpt lat="43.655450144832585" lon="7.160725292986668"><ele>4.8</ele><time>2026-04-29T06:24:12Z</time></trkpt><trkpt lat="43.65540307225935" lon="7.160597258063873"><ele>5.0</ele><time>2026-04-29T06:24:13Z</time></trkpt><trkpt lat="43.65535377630136" lon="7.160469582935164"><ele>5.166666666666667</ele><time>2026-04-29T06:24:14Z</time></trkpt><trkpt lat="43.655304000533896" lon="7.1603418416131746"><ele>5.333333333333334</ele><time>2026-04-29T06:24:15Z</time></trkpt><trkpt lat="43.65525501505907" lon="7.160217626192384"><ele>5.5</ele><time>2026-04-29T06:24:16Z</time></trkpt><trkpt lat="43.65521764558604" lon="7.1601092425510595"><ele>5.666666666666667</ele><time>2026-04-29T06:24:17Z</time></trkpt><trkpt lat="43.6551900906912" lon="7.160025597129181"><ele>5.833333333333333</ele><time>2026-04-29T06:24:18Z</time></trkpt><trkpt lat="43.6551576120016" lon="7.159922922410024"><ele>6.0</ele><time>2026-04-29T06:24:20Z</time></trkpt><trkpt lat="43.655128766284164" lon="7.159832155065785"><ele>6.0</ele><time>2026-04-29T06:24:49Z</time></trkpt><trkpt lat="43.655075831826224" lon="7.1596616883474296"><ele>6.0</ele><time>2026-04-29T06:24:51Z</time></trkpt><trkpt lat="43.65504051354084" lon="7.159569300259925"><ele>6.0</ele><time>2026-04-29T06:24:52Z</time></trkpt><trkpt lat="43.65499629005101" lon="7.159454744390436"><ele>6.0</ele><time>2026-04-29T06:24:53Z</time></trkpt><trkpt lat="43.654944802744964" lon="7.159333079077628"><ele>6.0</ele><time>2026-04-29T06:24:54Z</time></trkpt><trkpt lat="43.65489659766822" lon="7.159213243750382"><ele>6.0</ele><time>2026-04-29T06:24:55Z</time></trkpt><trkpt lat="43.6548475295689" lon="7.159087815473284"><ele>6.0</ele><time>2026-04-29T06:24:55.999Z</time></trkpt><trkpt lat="43.6547969035217" lon="7.15895950222419"><ele>6.0</ele><time>2026-04-29T06:24:56.999Z</time></trkpt><trkpt lat="43.65474324093841" lon="7.158829288252881"><ele>6.0</ele><time>2026-04-29T06:24:57.999Z</time></trkpt><trkpt lat="43.65469500220934" lon="7.158706425197702"><ele>6.0</ele><time>2026-04-29T06:24:58.999Z</time></trkpt><trkpt lat="43.65464681894805" lon="7.158586157377679"><ele>6.4</ele><time>2026-04-29T06:24:59.999Z</time></trkpt><trkpt lat="43.65459548171515" lon="7.158462026447061"><ele>6.8</ele><time>2026-04-29T06:25:00.999Z</time></trkpt><trkpt lat="43.65454757231284" lon="7.158339251909999"><ele>7.200000000000001</ele><time>2026-04-29T06:25:01.999Z</time></trkpt><trkpt lat="43.65450104820051" lon="7.158221758329655"><ele>7.6000000000000005</ele><time>2026-04-29T06:25:02.999Z</time></trkpt><trkpt lat="43.65445408198025" lon="7.158100048505172"><ele>8.0</ele><time>2026-04-29T06:25:03.999Z</time></trkpt><trkpt lat="43.65440748517041" lon="7.157983631056809"><ele>8.0</ele><time>2026-04-29T06:25:04.999Z</time></trkpt><trkpt lat="43.65435966481634" lon="7.157864953245513"><ele>8.0</ele><time>2026-04-29T06:25:05.999Z</time></trkpt><trkpt lat="43.65430739367333" lon="7.157742189173107"><ele>8.0</ele><time>2026-04-29T06:25:06.999Z</time></trkpt><trkpt lat="43.65425628936546" lon="7.157620548585237"><ele>8.0</ele><time>2026-04-29T06:25:07.999Z</time></trkpt><trkpt lat="43.654199758857835" lon="7.157496494949637"><ele>8.0</ele><time>2026-04-29T06:25:08.999Z</time></trkpt><trkpt lat="43.654141706972425" lon="7.157375986340704"><ele>8.0</ele><time>2026-04-29T06:25:09.999Z</time></trkpt><trkpt lat="43.654082054219835" lon="7.157252382262004"><ele>8.0</ele><time>2026-04-29T06:25:10.999Z</time></trkpt><trkpt lat="43.65402108529497" lon="7.1571271262021465"><ele>8.0</ele><time>2026-04-29T06:25:11.999Z</time></trkpt><trkpt lat="43.653959238280876" lon="7.157001436096542"><ele>8.0</ele><time>2026-04-29T06:25:12.999Z</time></trkpt><trkpt lat="43.653896659235365" lon="7.156875671260821"><ele>8.0</ele><time>2026-04-29T06:25:13.999Z</time></trkpt><trkpt lat="43.65383296498617" lon="7.156751034130163"><ele>8.0</ele><time>2026-04-29T06:25:14.999Z</time></trkpt><trkpt lat="43.653769036781775" lon="7.15662484866652"><ele>8.0</ele><time>2026-04-29T06:25:15.999Z</time></trkpt><trkpt lat="43.65370366736423" lon="7.156500399555165"><ele>8.0</ele><time>2026-04-29T06:25:16.999Z</time></trkpt><trkpt lat="43.65363843285341" lon="7.156371988849042"><ele>8.0</ele><time>2026-04-29T06:25:17.999Z</time></trkpt><trkpt lat="43.65357123689779" lon="7.156247009992558"><ele>8.0</ele><time>2026-04-29T06:25:18.999Z</time></trkpt><trkpt lat="43.65350394992457" lon="7.156125254424711"><ele>7.2</ele><time>2026-04-29T06:25:19.999Z</time></trkpt><trkpt lat="43.65343628431904" lon="7.156005089429891"><ele>6.4</ele><time>2026-04-29T06:25:20.999Z</time></trkpt><trkpt lat="43.6533686641599" lon="7.155889399241232"><ele>5.6000000000000005</ele><time>2026-04-29T06:25:21.999Z</time></trkpt><trkpt lat="43.65330001194117" lon="7.1557716420012385"><ele>4.800000000000001</ele><time>2026-04-29T06:25:22.999Z</time></trkpt><trkpt lat="43.65322700000078" lon="7.155654870462532"><ele>4.0</ele><time>2026-04-29T06:25:23.999Z</time></trkpt><trkpt lat="43.65315561594705" lon="7.155536574364404"><ele>4.0</ele><time>2026-04-29T06:25:24.999Z</time></trkpt><trkpt lat="43.65308489376602" lon="7.155416859424908"><ele>4.0</ele><time>2026-04-29T06:25:25.999Z</time></trkpt><trkpt lat="43.653011384112844" lon="7.155300454895623"><ele>4.0</ele><time>2026-04-29T06:25:26.999Z</time></trkpt><trkpt lat="43.65293762523584" lon="7.1551866332795795"><ele>4.0</ele><time>2026-04-29T06:25:27.999Z</time></trkpt><trkpt lat="43.65286487673041" lon="7.155073199406697"><ele>4.0</ele><time>2026-04-29T06:25:28.999Z</time></trkpt><trkpt lat="43.652793122911035" lon="7.154963326182646"><ele>6.0</ele><time>2026-04-29T06:25:29.999Z</time></trkpt><trkpt lat="43.65272405575577" lon="7.154855273903923"><ele>8.0</ele><time>2026-04-29T06:25:30.999Z</time></trkpt><trkpt lat="43.65265846813703" lon="7.154754389606716"><ele>9.999999999999998</ele><time>2026-04-29T06:25:31.999Z</time></trkpt><trkpt lat="43.6525884892125" lon="7.154648894885408"><ele>12.0</ele><time>2026-04-29T06:25:32.999Z</time></trkpt><trkpt lat="43.65251534176985" lon="7.15454931944205"><ele>14.0</ele><time>2026-04-29T06:25:33.999Z</time></trkpt><trkpt lat="43.65244120297298" lon="7.154439400891391"><ele>14.0</ele><time>2026-04-29T06:25:34.999Z</time></trkpt><trkpt lat="43.652360814304906" lon="7.154329556193706"><ele>14.0</ele><time>2026-04-29T06:25:35.999Z</time></trkpt><trkpt lat="43.65228328992616" lon="7.154215679662451"><ele>14.0</ele><time>2026-04-29T06:25:36.999Z</time></trkpt><trkpt lat="43.6522036533627" lon="7.154103316450545"><ele>14.0</ele><time>2026-04-29T06:25:37.999Z</time></trkpt><trkpt lat="43.65212210131128" lon="7.153990512502435"><ele>13.5</ele><time>2026-04-29T06:25:38.999Z</time></trkpt><trkpt lat="43.65203804565917" lon="7.153878395343983"><ele>13.0</ele><time>2026-04-29T06:25:39.999Z</time></trkpt><trkpt lat="43.65195390575615" lon="7.153764130056177"><ele>12.5</ele><time>2026-04-29T06:25:40.999Z</time></trkpt><trkpt lat="43.651871011849465" lon="7.15364765520537"><ele>12.0</ele><time>2026-04-29T06:25:41.999Z</time></trkpt><trkpt lat="43.651786187284294" lon="7.153531471063961"><ele>12.0</ele><time>2026-04-29T06:25:42.999Z</time></trkpt><trkpt lat="43.65169670501226" lon="7.153413464543716"><ele>12.0</ele><time>2026-04-29T06:25:43.999Z</time></trkpt><trkpt lat="43.65160410756541" lon="7.153295086935509"><ele>12.0</ele><time>2026-04-29T06:25:44.999Z</time></trkpt><trkpt lat="43.65151560308883" lon="7.153179959847152"><ele>12.0</ele><time>2026-04-29T06:25:45.999Z</time></trkpt><trkpt lat="43.65142667303651" lon="7.153065399717335"><ele>11.6</ele><time>2026-04-29T06:25:46.999Z</time></trkpt><trkpt lat="43.65133663038638" lon="7.152949823159756"><ele>11.2</ele><time>2026-04-29T06:25:47.999Z</time></trkpt><trkpt lat="43.6512511988724" lon="7.1528408287739715"><ele>10.8</ele><time>2026-04-29T06:25:48.999Z</time></trkpt><trkpt lat="43.65117008741982" lon="7.1527398880668445"><ele>10.4</ele><time>2026-04-29T06:25:49.999Z</time></trkpt><trkpt lat="43.65109871366778" lon="7.1526430984815095"><ele>10.0</ele><time>2026-04-29T06:25:50.999Z</time></trkpt><trkpt lat="43.6510322674078" lon="7.152554620557336"><ele>9.2</ele><time>2026-04-29T06:25:51.999Z</time></trkpt><trkpt lat="43.65097079504874" lon="7.152467888146397"><ele>8.4</ele><time>2026-04-29T06:25:52.999Z</time></trkpt><trkpt lat="43.650925415141316" lon="7.152390633852301"><ele>7.6</ele><time>2026-04-29T06:25:53.999Z</time></trkpt><trkpt lat="43.65087694632301" lon="7.1522664528957165"><ele>6.8</ele><time>2026-04-29T06:25:55.999Z</time></trkpt><trkpt lat="43.6508481105973" lon="7.1521540436125415"><ele>6.0</ele><time>2026-04-29T06:26:45Z</time></trkpt><trkpt lat="43.65079314480923" lon="7.151983082177128"><ele>5.8</ele><time>2026-04-29T06:26:47Z</time></trkpt><trkpt lat="43.65075774510423" lon="7.151881123773612"><ele>5.6</ele><time>2026-04-29T06:26:48Z</time></trkpt><trkpt lat="43.65071628688583" lon="7.151763336653969"><ele>5.4</ele><time>2026-04-29T06:26:49Z</time></trkpt><trkpt lat="43.65066357730284" lon="7.151640990834013"><ele>5.2</ele><time>2026-04-29T06:26:50Z</time></trkpt><trkpt lat="43.65059638953941" lon="7.151514032719889"><ele>5.0</ele><time>2026-04-29T06:26:51Z</time></trkpt><trkpt lat="43.65052046361853" lon="7.151393881498595"><ele>5.0</ele><time>2026-04-29T06:26:52Z</time></trkpt><trkpt lat="43.650436049911534" lon="7.151281954484995"><ele>5.0</ele><time>2026-04-29T06:26:53Z</time></trkpt><trkpt lat="43.650343522597474" lon="7.151176596977866"><ele>5.0</ele><time>2026-04-29T06:26:54Z</time></trkpt><trkpt lat="43.65024280685111" lon="7.151077084699803"><ele>5.0</ele><time>2026-04-29T06:26:54.999Z</time></trkpt><trkpt lat="43.65013667805959" lon="7.150991858997244"><ele>4.25</ele><time>2026-04-29T06:26:55.999Z</time></trkpt><trkpt lat="43.650024635408265" lon="7.150920092304167"><ele>3.5</ele><time>2026-04-29T06:26:56.999Z</time></trkpt><trkpt lat="43.6499104549821" lon="7.150852561720396"><ele>2.75</ele><time>2026-04-29T06:26:57.999Z</time></trkpt><trkpt lat="43.64979735461278" lon="7.150786820393039"><ele>2.0</ele><time>2026-04-29T06:26:58.999Z</time></trkpt><trkpt lat="43.64968866804752" lon="7.150713631066472"><ele>2.0</ele><time>2026-04-29T06:26:59.999Z</time></trkpt><trkpt lat="43.64958695256665" lon="7.150628317400486"><ele>2.0</ele><time>2026-04-29T06:27:00.999Z</time></trkpt><trkpt lat="43.649491856634505" lon="7.150528920764932"><ele>2.0</ele><time>2026-04-29T06:27:01.999Z</time></trkpt><trkpt lat="43.64940097581393" lon="7.1504265434694965"><ele>2.0</ele><time>2026-04-29T06:27:02.999Z</time></trkpt><trkpt lat="43.64931727728732" lon="7.150312892115579"><ele>2.2</ele><time>2026-04-29T06:27:03.999Z</time></trkpt><trkpt lat="43.6492358852661" lon="7.150203494275377"><ele>2.4000000000000004</ele><time>2026-04-29T06:27:04.999Z</time></trkpt><trkpt lat="43.64915351938681" lon="7.150101629906537"><ele>2.5999999999999996</ele><time>2026-04-29T06:27:05.999Z</time></trkpt><trkpt lat="43.64906937316662" lon="7.150007184761833"><ele>2.8</ele><time>2026-04-29T06:27:06.999Z</time></trkpt><trkpt lat="43.648981706981616" lon="7.149914184562923"><ele>3.0</ele><time>2026-04-29T06:27:07.999Z</time></trkpt><trkpt lat="43.64889248006297" lon="7.149816983760706"><ele>3.0</ele><time>2026-04-29T06:27:08.999Z</time></trkpt><trkpt lat="43.64880214997451" lon="7.149723135945748"><ele>3.0</ele><time>2026-04-29T06:27:09.999Z</time></trkpt><trkpt lat="43.64871021366735" lon="7.1496247440993645"><ele>3.0</ele><time>2026-04-29T06:27:10.999Z</time></trkpt><trkpt lat="43.648619516970186" lon="7.14952036866981"><ele>3.0</ele><time>2026-04-29T06:27:11.999Z</time></trkpt><trkpt lat="43.64852892416416" lon="7.149421221079761"><ele>3.0</ele><time>2026-04-29T06:27:12.999Z</time></trkpt><trkpt lat="43.64843681195114" lon="7.149317804312977"><ele>3.0</ele><time>2026-04-29T06:27:13.999Z</time></trkpt><trkpt lat="43.648342739571454" lon="7.149216678414203"><ele>3.0</ele><time>2026-04-29T06:27:14.999Z</time></trkpt><trkpt lat="43.648249767015784" lon="7.149113193205232"><ele>3.0</ele><time>2026-04-29T06:27:15.999Z</time></trkpt><trkpt lat="43.64816006390393" lon="7.149009656893354"><ele>2.75</ele><time>2026-04-29T06:27:16.999Z</time></trkpt><trkpt lat="43.64806790796286" lon="7.148907873329329"><ele>2.5</ele><time>2026-04-29T06:27:17.999Z</time></trkpt><trkpt lat="43.64797371335225" lon="7.148814245813524"><ele>2.25</ele><time>2026-04-29T06:27:18.999Z</time></trkpt><trkpt lat="43.64787780882066" lon="7.148714323713814"><ele>2.0</ele><time>2026-04-29T06:27:19.999Z</time></trkpt><trkpt lat="43.647783938449805" lon="7.1486215267591025"><ele>2.0</ele><time>2026-04-29T06:27:20.999Z</time></trkpt><trkpt lat="43.64768681272843" lon="7.148529861977476"><ele>2.0</ele><time>2026-04-29T06:27:21.999Z</time></trkpt><trkpt lat="43.64758892198566" lon="7.148435769036948"><ele>2.0</ele><time>2026-04-29T06:27:22.999Z</time></trkpt><trkpt lat="43.64749136308727" lon="7.148339681424042"><ele>2.0</ele><time>2026-04-29T06:27:23.999Z</time></trkpt><trkpt lat="43.64739484930624" lon="7.148244337900075"><ele>2.75</ele><time>2026-04-29T06:27:24.999Z</time></trkpt><trkpt lat="43.647295814692455" lon="7.148146526573588"><ele>3.5</ele><time>2026-04-29T06:27:25.999Z</time></trkpt><trkpt lat="43.64719786021824" lon="7.14805188472622"><ele>4.25</ele><time>2026-04-29T06:27:26.999Z</time></trkpt><trkpt lat="43.64710115777923" lon="7.14795760406631"><ele>5.0</ele><time>2026-04-29T06:27:27.999Z</time></trkpt><trkpt lat="43.647008086132246" lon="7.147865027902173"><ele>4.4</ele><time>2026-04-29T06:27:28.999Z</time></trkpt><trkpt lat="43.64691382629278" lon="7.147778331976326"><ele>3.8</ele><time>2026-04-29T06:27:29.999Z</time></trkpt><trkpt lat="43.646820061550635" lon="7.147696965007516"><ele>3.2</ele><time>2026-04-29T06:27:30.999Z</time></trkpt><trkpt lat="43.646725451644166" lon="7.147610513601587"><ele>2.6</ele><time>2026-04-29T06:27:31.999Z</time></trkpt><trkpt lat="43.6466320795978" lon="7.147527708012296"><ele>2.0</ele><time>2026-04-29T06:27:32.999Z</time></trkpt><trkpt lat="43.64653632031773" lon="7.147441262998325"><ele>2.5</ele><time>2026-04-29T06:27:33.999Z</time></trkpt><trkpt lat="43.64644064147967" lon="7.147350879346519"><ele>3.0</ele><time>2026-04-29T06:27:34.999Z</time></trkpt><trkpt lat="43.64634625225876" lon="7.147256063611681"><ele>3.5</ele><time>2026-04-29T06:27:35.999Z</time></trkpt><trkpt lat="43.6462490701407" lon="7.1471617813319845"><ele>4.0</ele><time>2026-04-29T06:27:36.999Z</time></trkpt><trkpt lat="43.64615341199409" lon="7.147071050772694"><ele>4.0</ele><time>2026-04-29T06:27:37.999Z</time></trkpt><trkpt lat="43.646058716720454" lon="7.146974610991206"><ele>4.0</ele><time>2026-04-29T06:27:38.999Z</time></trkpt><trkpt lat="43.64596655044238" lon="7.146876466689851"><ele>4.0</ele><time>2026-04-29T06:27:39.999Z</time></trkpt><trkpt lat="43.645872341287166" lon="7.146788282101382"><ele>4.0</ele><time>2026-04-29T06:27:40.999Z</time></trkpt><trkpt lat="43.645776522937325" lon="7.1467052978582455"><ele>4.0</ele><time>2026-04-29T06:27:41.999Z</time></trkpt><trkpt lat="43.645680870359605" lon="7.1466223926029455"><ele>4.0</ele><time>2026-04-29T06:27:42.999Z</time></trkpt><trkpt lat="43.64558238265492" lon="7.146536751475632"><ele>4.0</ele><time>2026-04-29T06:27:43.999Z</time></trkpt><trkpt lat="43.64548303887875" lon="7.146446724474285"><ele>4.0</ele><time>2026-04-29T06:27:44.999Z</time></trkpt><trkpt lat="43.64538192853257" lon="7.146353459174172"><ele>4.5</ele><time>2026-04-29T06:27:45.999Z</time></trkpt><trkpt lat="43.64527983234115" lon="7.146257680838583"><ele>5.0</ele><time>2026-04-29T06:27:46.999Z</time></trkpt><trkpt lat="43.64517740238102" lon="7.146159987411394"><ele>5.5</ele><time>2026-04-29T06:27:47.999Z</time></trkpt><trkpt lat="43.6450768475183" lon="7.146057992363332"><ele>6.0</ele><time>2026-04-29T06:27:48.999Z</time></trkpt><trkpt lat="43.64498153826819" lon="7.145940689459716"><ele>6.0</ele><time>2026-04-29T06:27:49.999Z</time></trkpt><trkpt lat="43.64489733097366" lon="7.145796323889213"><ele>6.0</ele><time>2026-04-29T06:27:50.999Z</time></trkpt><trkpt lat="43.64482607721841" lon="7.145637898520436"><ele>6.0</ele><time>2026-04-29T06:27:51.999Z</time></trkpt><trkpt lat="43.644762662772074" lon="7.145482431800766"><ele>6.0</ele><time>2026-04-29T06:27:52.999Z</time></trkpt><trkpt lat="43.644697093576234" lon="7.145325838897094"><ele>6.0</ele><time>2026-04-29T06:27:53.999Z</time></trkpt><trkpt lat="43.644634087873804" lon="7.145180712973889"><ele>6.0</ele><time>2026-04-29T06:27:54.999Z</time></trkpt><trkpt lat="43.644570657146865" lon="7.145043340123921"><ele>6.0</ele><time>2026-04-29T06:27:55.999Z</time></trkpt><trkpt lat="43.64450191660138" lon="7.144917716442912"><ele>6.0</ele><time>2026-04-29T06:27:56.999Z</time></trkpt><trkpt lat="43.64442207395636" lon="7.14481208992022"><ele>5.8</ele><time>2026-04-29T06:27:57.999Z</time></trkpt><trkpt lat="43.644332117663396" lon="7.144722868565096"><ele>5.6</ele><time>2026-04-29T06:27:58.999Z</time></trkpt><trkpt lat="43.644227968497646" lon="7.144658650871548"><ele>5.4</ele><time>2026-04-29T06:27:59.999Z</time></trkpt><trkpt lat="43.644122605225995" lon="7.144624489251669"><ele>5.2</ele><time>2026-04-29T06:28:00.999Z</time></trkpt><trkpt lat="43.64402387998946" lon="7.1446107572479525"><ele>5.0</ele><time>2026-04-29T06:28:01.999Z</time></trkpt><trkpt lat="43.643934608747834" lon="7.1446108584315295"><ele>5.0</ele><time>2026-04-29T06:28:02.999Z</time></trkpt><trkpt lat="43.643851225330764" lon="7.144603635958245"><ele>5.0</ele><time>2026-04-29T06:28:04Z</time></trkpt><trkpt lat="43.64377595925594" lon="7.144592804723608"><ele>5.0</ele><time>2026-04-29T06:28:05Z</time></trkpt><trkpt lat="43.64370566597095" lon="7.14458471744842"><ele>5.0</ele><time>2026-04-29T06:28:06Z</time></trkpt><trkpt lat="43.643610951163616" lon="7.144547986941987"><ele>5.0</ele><time>2026-04-29T06:28:08Z</time></trkpt><trkpt lat="43.643550490940534" lon="7.14447908369791"><ele>5.0</ele><time>2026-04-29T06:28:11Z</time></trkpt><trkpt lat="43.6434984331447" lon="7.144428099669944"><ele>5.0</ele><time>2026-04-29T06:28:35Z</time></trkpt><trkpt lat="43.64342718836837" lon="7.1443551166258565"><ele>5.0</ele><time>2026-04-29T06:28:38Z</time></trkpt><trkpt lat="43.64337546941411" lon="7.144292037135332"><ele>5.0</ele><time>2026-04-29T06:28:41Z</time></trkpt><trkpt lat="43.643323924789094" lon="7.14423583806033"><ele>5.0</ele><time>2026-04-29T06:28:46Z</time></trkpt><trkpt lat="43.64326638683812" lon="7.144176632145077"><ele>5.0</ele><time>2026-04-29T06:28:52Z</time></trkpt><trkpt lat="43.64321382851114" lon="7.144114620262496"><ele>5.0</ele><time>2026-04-29T06:28:56Z</time></trkpt><trkpt lat="43.64315982856143" lon="7.144052331010415"><ele>5.0</ele><time>2026-04-29T06:28:59Z</time></trkpt><trkpt lat="43.64309522647822" lon="7.143979850676065"><ele>5.0</ele><time>2026-04-29T06:29:02Z</time></trkpt><trkpt lat="43.643039590269005" lon="7.143917920382935"><ele>5.0</ele><time>2026-04-29T06:29:05Z</time></trkpt><trkpt lat="43.64297933320202" lon="7.143854011984935"><ele>5.0</ele><time>2026-04-29T06:29:08Z</time></trkpt><trkpt lat="43.642915719788434" lon="7.143783285713122"><ele>5.0</ele><time>2026-04-29T06:29:19.999Z</time></trkpt><trkpt lat="43.64284557335333" lon="7.143693414046398"><ele>5.0</ele><time>2026-04-29T06:29:21.999Z</time></trkpt><trkpt lat="43.64276112210044" lon="7.143596266691146"><ele>5.0</ele><time>2026-04-29T06:29:23.999Z</time></trkpt><trkpt lat="43.64270630252929" lon="7.143541293501975"><ele>5.0</ele><time>2026-04-29T06:29:24.999Z</time></trkpt><trkpt lat="43.64264938280673" lon="7.143487127189372"><ele>5.0</ele><time>2026-04-29T06:29:25.999Z</time></trkpt><trkpt lat="43.64258516271346" lon="7.143429170154585"><ele>5.0</ele><time>2026-04-29T06:29:26.999Z</time></trkpt><trkpt lat="43.64252347955109" lon="7.143368669090589"><ele>5.0</ele><time>2026-04-29T06:29:27.999Z</time></trkpt><trkpt lat="43.64246348936579" lon="7.14330470765065"><ele>5.0</ele><time>2026-04-29T06:29:28.999Z</time></trkpt><trkpt lat="43.642406279990595" lon="7.143237425340364"><ele>5.0</ele><time>2026-04-29T06:29:29.999Z</time></trkpt><trkpt lat="43.642350490089804" lon="7.1431692900151225"><ele>5.0</ele><time>2026-04-29T06:29:30.999Z</time></trkpt><trkpt lat="43.642292830965175" lon="7.1430987400717"><ele>5.0</ele><time>2026-04-29T06:29:31.999Z</time></trkpt><trkpt lat="43.642237518126066" lon="7.143033246954907"><ele>5.0</ele><time>2026-04-29T06:29:32.999Z</time></trkpt><trkpt lat="43.642182114245244" lon="7.142970411501357"><ele>5.0</ele><time>2026-04-29T06:29:33.999Z</time></trkpt><trkpt lat="43.64212971432013" lon="7.1429127069252925"><ele>5.0</ele><time>2026-04-29T06:29:34.999Z</time></trkpt><trkpt lat="43.64204984678892" lon="7.142822455864213"><ele>5.0</ele><time>2026-04-29T06:29:36.999Z</time></trkpt><trkpt lat="43.64200272131385" lon="7.14276473755718"><ele>5.0</ele><time>2026-04-29T06:29:38.999Z</time></trkpt><trkpt lat="43.64195345763196" lon="7.142709660740964"><ele>5.0</ele><time>2026-04-29T06:29:44.999Z</time></trkpt><trkpt lat="43.64188230078449" lon="7.142608352475251"><ele>4.8</ele><time>2026-04-29T06:30:10Z</time></trkpt><trkpt lat="43.641797444453665" lon="7.142506473679568"><ele>4.6</ele><time>2026-04-29T06:30:12Z</time></trkpt><trkpt lat="43.64169937378801" lon="7.142388593063372"><ele>4.4</ele><time>2026-04-29T06:30:14Z</time></trkpt><trkpt lat="43.64164171758377" lon="7.142319772543998"><ele>4.2</ele><time>2026-04-29T06:30:15Z</time></trkpt><trkpt lat="43.64158202906016" lon="7.142244473891697"><ele>4.0</ele><time>2026-04-29T06:30:16Z</time></trkpt><trkpt lat="43.6415191196423" lon="7.142160048765192"><ele>4.0</ele><time>2026-04-29T06:30:17Z</time></trkpt><trkpt lat="43.64145413820813" lon="7.142069238523283"><ele>4.0</ele><time>2026-04-29T06:30:18Z</time></trkpt><trkpt lat="43.641386201300776" lon="7.141974559106086"><ele>4.0</ele><time>2026-04-29T06:30:19Z</time></trkpt><trkpt lat="43.64131724868871" lon="7.1418723819008125"><ele>4.0</ele><time>2026-04-29T06:30:20Z</time></trkpt><trkpt lat="43.64124522012406" lon="7.1417671044669175"><ele>4.0</ele><time>2026-04-29T06:30:21Z</time></trkpt><trkpt lat="43.6411741324523" lon="7.141668954214958"><ele>4.6</ele><time>2026-04-29T06:30:22Z</time></trkpt><trkpt lat="43.64110568342997" lon="7.141565763993458"><ele>5.2</ele><time>2026-04-29T06:30:23Z</time></trkpt><trkpt lat="43.64104280253643" lon="7.141465696857842"><ele>5.799999999999999</ele><time>2026-04-29T06:30:24Z</time></trkpt><trkpt lat="43.640978232602315" lon="7.141360342805583"><ele>6.3999999999999995</ele><time>2026-04-29T06:30:25Z</time></trkpt><trkpt lat="43.64091047602834" lon="7.1412456393707915"><ele>7.0</ele><time>2026-04-29T06:30:26Z</time></trkpt><trkpt lat="43.64084307564317" lon="7.14112692044187"><ele>7.0</ele><time>2026-04-29T06:30:27Z</time></trkpt><trkpt lat="43.64078139259187" lon="7.141006805582414"><ele>6.999999999999999</ele><time>2026-04-29T06:30:28Z</time></trkpt><trkpt lat="43.64071704773024" lon="7.140881951885674"><ele>6.999999999999999</ele><time>2026-04-29T06:30:29Z</time></trkpt><trkpt lat="43.640658049651805" lon="7.140756471871936"><ele>7.0</ele><time>2026-04-29T06:30:30Z</time></trkpt><trkpt lat="43.64060699980954" lon="7.140625033906919"><ele>7.0</ele><time>2026-04-29T06:30:31Z</time></trkpt><trkpt lat="43.64056340156677" lon="7.140480411051926"><ele>7.0</ele><time>2026-04-29T06:30:32Z</time></trkpt><trkpt lat="43.640492839957034" lon="7.140338748939052"><ele>7.0</ele><time>2026-04-29T06:30:33Z</time></trkpt><trkpt lat="43.640419474576326" lon="7.140190693879763"><ele>7.0</ele><time>2026-04-29T06:30:34Z</time></trkpt><trkpt lat="43.6403400392011" lon="7.14010406457401"><ele>7.0</ele><time>2026-04-29T06:30:35Z</time></trkpt><trkpt lat="43.64027381441248" lon="7.139963802602874"><ele>7.0</ele><time>2026-04-29T06:30:36Z</time></trkpt><trkpt lat="43.6402081135956" lon="7.139824180070334"><ele>7.0</ele><time>2026-04-29T06:30:37Z</time></trkpt><trkpt lat="43.64013759806377" lon="7.139694802382947"><ele>7.0</ele><time>2026-04-29T06:30:38Z</time></trkpt><trkpt lat="43.64007553446938" lon="7.139564812330399"><ele>7.0</ele><time>2026-04-29T06:30:39Z</time></trkpt><trkpt lat="43.64001390209053" lon="7.139434279079778"><ele>7.000000000000001</ele><time>2026-04-29T06:30:40Z</time></trkpt><trkpt lat="43.639953892817836" lon="7.139316528335832"><ele>7.0</ele><time>2026-04-29T06:30:41Z</time></trkpt><trkpt lat="43.63989775005909" lon="7.139207505266176"><ele>7.0</ele><time>2026-04-29T06:30:42Z</time></trkpt><trkpt lat="43.639848436812066" lon="7.139101027597453"><ele>7.0</ele><time>2026-04-29T06:30:43Z</time></trkpt><trkpt lat="43.639800866615765" lon="7.139005061442092"><ele>7.000000000000001</ele><time>2026-04-29T06:30:44Z</time></trkpt><trkpt lat="43.63975972268677" lon="7.138926165893216"><ele>7.0</ele><time>2026-04-29T06:30:45Z</time></trkpt><trkpt lat="43.639696575998634" lon="7.13881024318821"><ele>7.000000000000001</ele><time>2026-04-29T06:30:47Z</time></trkpt><trkpt lat="43.63963653622749" lon="7.138724565485667"><ele>7.0</ele><time>2026-04-29T06:30:49Z</time></trkpt><trkpt lat="43.639591211448284" lon="7.138650559661412"><ele>7.0</ele><time>2026-04-29T06:30:53Z</time></trkpt><trkpt lat="43.639520195145074" lon="7.138518178138544"><ele>7.0</ele><time>2026-04-29T06:32:05.999Z</time></trkpt><trkpt lat="43.639479756387644" lon="7.1384295590374895"><ele>7.000000000000001</ele><time>2026-04-29T06:32:06.999Z</time></trkpt><trkpt lat="43.63943329960579" lon="7.1383239040778514"><ele>7.0</ele><time>2026-04-29T06:32:07.999Z</time></trkpt><trkpt lat="43.63937273895395" lon="7.1381998671006555"><ele>7.0</ele><time>2026-04-29T06:32:08.999Z</time></trkpt><trkpt lat="43.639305919501226" lon="7.138058560752007"><ele>7.0</ele><time>2026-04-29T06:32:09.999Z</time></trkpt><trkpt lat="43.63923877830707" lon="7.137914713786024"><ele>7.0</ele><time>2026-04-29T06:32:10.999Z</time></trkpt><trkpt lat="43.639162595008436" lon="7.137755697636395"><ele>7.0</ele><time>2026-04-29T06:32:11.999Z</time></trkpt><trkpt lat="43.639085504294854" lon="7.137581032701888"><ele>7.666666666666667</ele><time>2026-04-29T06:32:12.999Z</time></trkpt><trkpt lat="43.638997764640216" lon="7.137380663944518"><ele>8.333333333333334</ele><time>2026-04-29T06:32:13.999Z</time></trkpt><trkpt lat="43.63891342637641" lon="7.137186657158819"><ele>9.0</ele><time>2026-04-29T06:32:14.999Z</time></trkpt><trkpt lat="43.638833273970654" lon="7.137001581594902"><ele>9.0</ele><time>2026-04-29T06:32:16Z</time></trkpt><trkpt lat="43.63875410585773" lon="7.1368265301218505"><ele>9.0</ele><time>2026-04-29T06:32:17Z</time></trkpt><trkpt lat="43.63867337810282" lon="7.136646353359615"><ele>9.0</ele><time>2026-04-29T06:32:18Z</time></trkpt><trkpt lat="43.63859164476964" lon="7.136471689295811"><ele>9.25</ele><time>2026-04-29T06:32:19Z</time></trkpt><trkpt lat="43.638511068306" lon="7.1362976996928715"><ele>9.5</ele><time>2026-04-29T06:32:20Z</time></trkpt><trkpt lat="43.63843473503249" lon="7.136129205883476"><ele>9.75</ele><time>2026-04-29T06:32:21Z</time></trkpt><trkpt lat="43.63835961613612" lon="7.1359616387158615"><ele>10.0</ele><time>2026-04-29T06:32:22Z</time></trkpt><trkpt lat="43.63828524853314" lon="7.135799171136351"><ele>10.75</ele><time>2026-04-29T06:32:23Z</time></trkpt><trkpt lat="43.638206949526705" lon="7.135636766420908"><ele>11.5</ele><time>2026-04-29T06:32:24Z</time></trkpt><trkpt lat="43.63813060345492" lon="7.135480463769284"><ele>12.25</ele><time>2026-04-29T06:32:25Z</time></trkpt><trkpt lat="43.63805533620606" lon="7.135317391086316"><ele>13.0</ele><time>2026-04-29T06:32:26Z</time></trkpt><trkpt lat="43.63798027517487" lon="7.13515802412882"><ele>13.0</ele><time>2026-04-29T06:32:27Z</time></trkpt><trkpt lat="43.637905977879115" lon="7.134994216606447"><ele>13.0</ele><time>2026-04-29T06:32:28Z</time></trkpt><trkpt lat="43.637824465892834" lon="7.134834764921784"><ele>13.0</ele><time>2026-04-29T06:32:29Z</time></trkpt><trkpt lat="43.637744160119475" lon="7.1346695855619755"><ele>13.0</ele><time>2026-04-29T06:32:30Z</time></trkpt><trkpt lat="43.63766701035056" lon="7.134506269761941"><ele>13.25</ele><time>2026-04-29T06:32:31Z</time></trkpt><trkpt lat="43.63759288437658" lon="7.134345601801641"><ele>13.5</ele><time>2026-04-29T06:32:32Z</time></trkpt><trkpt lat="43.63751786349429" lon="7.134187648174369"><ele>13.75</ele><time>2026-04-29T06:32:33Z</time></trkpt><trkpt lat="43.63744151154479" lon="7.13403244113946"><ele>14.0</ele><time>2026-04-29T06:32:34Z</time></trkpt><trkpt lat="43.63736520801405" lon="7.1338762631196"><ele>14.75</ele><time>2026-04-29T06:32:35Z</time></trkpt><trkpt lat="43.637293217738936" lon="7.133717529146983"><ele>15.5</ele><time>2026-04-29T06:32:36Z</time></trkpt><trkpt lat="43.637225315298224" lon="7.1335657274533055"><ele>16.25</ele><time>2026-04-29T06:32:37Z</time></trkpt><trkpt lat="43.63715961447129" lon="7.133425935898291"><ele>17.0</ele><time>2026-04-29T06:32:38Z</time></trkpt><trkpt lat="43.63710209051099" lon="7.133300567871926"><ele>17.0</ele><time>2026-04-29T06:32:39Z</time></trkpt><trkpt lat="43.637051750277664" lon="7.1331834748306715"><ele>17.0</ele><time>2026-04-29T06:32:40Z</time></trkpt><trkpt lat="43.63700890385524" lon="7.133077304987295"><ele>17.0</ele><time>2026-04-29T06:32:41Z</time></trkpt><trkpt lat="43.636987798823206" lon="7.132973652519239"><ele>17.0</ele><time>2026-04-29T06:32:42Z</time></trkpt><trkpt lat="43.63698398103933" lon="7.132870386086431"><ele>17.0</ele><time>2026-04-29T06:32:43Z</time></trkpt><trkpt lat="43.63700168553944" lon="7.132773682510082"><ele>17.0</ele><time>2026-04-29T06:32:44Z</time></trkpt><trkpt lat="43.637044953007404" lon="7.132680240192562"><ele>17.0</ele><time>2026-04-29T06:32:45Z</time></trkpt><trkpt lat="43.63710719848414" lon="7.132611124290286"><ele>17.0</ele><time>2026-04-29T06:32:46Z</time></trkpt><trkpt lat="43.63718248350861" lon="7.132580306199725"><ele>17.0</ele><time>2026-04-29T06:32:47Z</time></trkpt><trkpt lat="43.637260234570306" lon="7.132571697165551"><ele>17.0</ele><time>2026-04-29T06:32:48Z</time></trkpt><trkpt lat="43.63733853346203" lon="7.132559740207462"><ele>17.0</ele><time>2026-04-29T06:32:49Z</time></trkpt><trkpt lat="43.63742420635916" lon="7.132652255959377"><ele>17.0</ele><time>2026-04-29T06:32:50Z</time></trkpt><trkpt lat="43.637496776437885" lon="7.13272449374382"><ele>17.0</ele><time>2026-04-29T06:32:51Z</time></trkpt><trkpt lat="43.63755253957072" lon="7.132808219274987"><ele>17.0</ele><time>2026-04-29T06:32:52Z</time></trkpt><trkpt lat="43.63759244687457" lon="7.1328984490460225"><ele>17.0</ele><time>2026-04-29T06:32:53Z</time></trkpt><trkpt lat="43.63759292495167" lon="7.133080075920949"><ele>17.0</ele><time>2026-04-29T06:32:55Z</time></trkpt><trkpt lat="43.637548108606005" lon="7.133182443789241"><ele>17.0</ele><time>2026-04-29T06:32:57Z</time></trkpt><trkpt lat="43.6375016813615" lon="7.1332438442609805"><ele>17.0</ele><time>2026-04-29T06:32:59Z</time></trkpt><trkpt lat="43.63742067623917" lon="7.133336323331001"><ele>17.0</ele><time>2026-04-29T06:33:01Z</time></trkpt><trkpt lat="43.637361667239496" lon="7.133378787692192"><ele>17.0</ele><time>2026-04-29T06:33:02Z</time></trkpt><trkpt lat="43.637262895577145" lon="7.13332828877092"><ele>17.0</ele><time>2026-04-29T06:33:03Z</time></trkpt><trkpt lat="43.637191460143896" lon="7.133335613297771"><ele>17.0</ele><time>2026-04-29T06:33:04Z</time></trkpt><trkpt lat="43.63712098013511" lon="7.133340771516296"><ele>17.0</ele><time>2026-04-29T06:33:05Z</time></trkpt><trkpt lat="43.63699661815135" lon="7.133337533454868"><ele>17.0</ele><time>2026-04-29T06:33:07Z</time></trkpt><trkpt lat="43.63691840293675" lon="7.133354292816084"><ele>16.0</ele><time>2026-04-29T06:33:08Z</time></trkpt><trkpt lat="43.63684356794796" lon="7.133395107278646"><ele>15.0</ele><time>2026-04-29T06:33:09.999Z</time></trkpt><trkpt lat="43.63672682610901" lon="7.133403996301077"><ele>14.0</ele><time>2026-04-29T06:33:11.999Z</time></trkpt><trkpt lat="43.636632332456394" lon="7.133417862036502"><ele>13.0</ele><time>2026-04-29T06:33:12.999Z</time></trkpt><trkpt lat="43.63653301130433" lon="7.133432436148023"><ele>12.0</ele><time>2026-04-29T06:33:13.999Z</time></trkpt><trkpt lat="43.636444642200615" lon="7.133445616681598"><ele>12.0</ele><time>2026-04-29T06:33:14.999Z</time></trkpt><trkpt lat="43.63637255795605" lon="7.133456401321622"><ele>12.0</ele><time>2026-04-29T06:33:15.999Z</time></trkpt><trkpt lat="43.636309463960124" lon="7.133465840917049"><ele>12.0</ele><time>2026-04-29T06:33:16.999Z</time></trkpt><trkpt lat="43.63618057570228" lon="7.1334860112197624"><ele>12.0</ele><time>2026-04-29T06:33:18.999Z</time></trkpt><trkpt lat="43.63609499164012" lon="7.133500618903107"><ele>12.0</ele><time>2026-04-29T06:33:19.999Z</time></trkpt><trkpt lat="43.63599167509329" lon="7.133519693365926"><ele>12.0</ele><time>2026-04-29T06:33:20.999Z</time></trkpt><trkpt lat="43.635886861804074" lon="7.133540995806949"><ele>12.0</ele><time>2026-04-29T06:33:21.999Z</time></trkpt><trkpt lat="43.635783087377824" lon="7.1335838913160705"><ele>12.0</ele><time>2026-04-29T06:33:22.999Z</time></trkpt><trkpt lat="43.63566791516494" lon="7.1335956728667265"><ele>12.0</ele><time>2026-04-29T06:33:23.999Z</time></trkpt><trkpt lat="43.63554849649171" lon="7.1336085925676755"><ele>12.0</ele><time>2026-04-29T06:33:24.999Z</time></trkpt><trkpt lat="43.635429692322106" lon="7.133624091090399"><ele>12.0</ele><time>2026-04-29T06:33:25.999Z</time></trkpt><trkpt lat="43.63531509491915" lon="7.133641617864565"><ele>12.0</ele><time>2026-04-29T06:33:26.999Z</time></trkpt><trkpt lat="43.63519707172066" lon="7.133658614738037"><ele>12.0</ele><time>2026-04-29T06:33:27.999Z</time></trkpt><trkpt lat="43.63507949397162" lon="7.133675755813603"><ele>11.5</ele><time>2026-04-29T06:33:28.999Z</time></trkpt><trkpt lat="43.634960218906734" lon="7.133694383046255"><ele>11.0</ele><time>2026-04-29T06:33:29.999Z</time></trkpt><trkpt lat="43.63483600198224" lon="7.13371191731418"><ele>10.5</ele><time>2026-04-29T06:33:30.999Z</time></trkpt><trkpt lat="43.63471434435902" lon="7.133726500028966"><ele>10.0</ele><time>2026-04-29T06:33:31.999Z</time></trkpt><trkpt lat="43.63459140009935" lon="7.133746724245496"><ele>9.5</ele><time>2026-04-29T06:33:32.999Z</time></trkpt><trkpt lat="43.63446890279955" lon="7.133768324559423"><ele>9.0</ele><time>2026-04-29T06:33:33.999Z</time></trkpt><trkpt lat="43.63434721455758" lon="7.133792330726283"><ele>8.5</ele><time>2026-04-29T06:33:34.999Z</time></trkpt><trkpt lat="43.634226775376106" lon="7.133823607094409"><ele>8.0</ele><time>2026-04-29T06:33:35.999Z</time></trkpt><trkpt lat="43.6341076960898" lon="7.133862268994919"><ele>8.0</ele><time>2026-04-29T06:33:36.999Z</time></trkpt><trkpt lat="43.63399044060859" lon="7.1339051724128115"><ele>8.0</ele><time>2026-04-29T06:33:37.999Z</time></trkpt><trkpt lat="43.63387995176009" lon="7.1339482480413"><ele>8.0</ele><time>2026-04-29T06:33:38.999Z</time></trkpt><trkpt lat="43.63377094412962" lon="7.133988815208515"><ele>8.0</ele><time>2026-04-29T06:33:39.999Z</time></trkpt><trkpt lat="43.63367177218025" lon="7.134032740556721"><ele>7.999999999999999</ele><time>2026-04-29T06:33:40.999Z</time></trkpt><trkpt lat="43.63357928766288" lon="7.13407673325824"><ele>8.0</ele><time>2026-04-29T06:33:41.999Z</time></trkpt><trkpt lat="43.63349628907387" lon="7.134120012648364"><ele>8.0</ele><time>2026-04-29T06:33:42.999Z</time></trkpt><trkpt lat="43.633413424969696" lon="7.134156675347263"><ele>8.0</ele><time>2026-04-29T06:33:43.999Z</time></trkpt><trkpt lat="43.633341368195715" lon="7.1341922561491975"><ele>7.999999999999999</ele><time>2026-04-29T06:33:44.999Z</time></trkpt><trkpt lat="43.63326822410919" lon="7.134200947951152"><ele>8.0</ele><time>2026-04-29T06:33:45.999Z</time></trkpt><trkpt lat="43.63315252083911" lon="7.134249943809079"><ele>7.999999999999999</ele><time>2026-04-29T06:33:47.999Z</time></trkpt><trkpt lat="43.633077973598944" lon="7.134281654855352"><ele>8.0</ele><time>2026-04-29T06:33:48.999Z</time></trkpt><trkpt lat="43.63299153504607" lon="7.134318424251876"><ele>8.0</ele><time>2026-04-29T06:33:49.999Z</time></trkpt><trkpt lat="43.632908426143814" lon="7.134353777207416"><ele>8.0</ele><time>2026-04-29T06:33:50.999Z</time></trkpt><trkpt lat="43.632837344882496" lon="7.134403714642676"><ele>7.999999999999999</ele><time>2026-04-29T06:33:51.999Z</time></trkpt><trkpt lat="43.63276283602328" lon="7.134425468589816"><ele>8.0</ele><time>2026-04-29T06:33:52.999Z</time></trkpt><trkpt lat="43.63269175378854" lon="7.1344523881950295"><ele>7.833333333333333</ele><time>2026-04-29T06:33:53.999Z</time></trkpt><trkpt lat="43.632614413050234" lon="7.134479794490312"><ele>7.666666666666666</ele><time>2026-04-29T06:33:54.999Z</time></trkpt><trkpt lat="43.63253430868429" lon="7.134510924441952"><ele>7.5</ele><time>2026-04-29T06:33:55.999Z</time></trkpt><trkpt lat="43.63246016245417" lon="7.134539284175151"><ele>7.333333333333334</ele><time>2026-04-29T06:33:56.999Z</time></trkpt><trkpt lat="43.63238599108365" lon="7.13456589762197"><ele>7.166666666666667</ele><time>2026-04-29T06:33:57.999Z</time></trkpt><trkpt lat="43.63231000032205" lon="7.134587084565996"><ele>7.0</ele><time>2026-04-29T06:33:58.999Z</time></trkpt><trkpt lat="43.6322252617447" lon="7.134607501389257"><ele>7.0</ele><time>2026-04-29T06:33:59.999Z</time></trkpt><trkpt lat="43.63213622428734" lon="7.134622480032539"><ele>6.999999999999999</ele><time>2026-04-29T06:34:00.999Z</time></trkpt><trkpt lat="43.63204694520891" lon="7.134635821303617"><ele>6.999999999999999</ele><time>2026-04-29T06:34:01.999Z</time></trkpt><trkpt lat="43.6319572692705" lon="7.134640904861244"><ele>7.0</ele><time>2026-04-29T06:34:02.999Z</time></trkpt><trkpt lat="43.63186195589186" lon="7.134643342396588"><ele>7.0</ele><time>2026-04-29T06:34:03.999Z</time></trkpt><trkpt lat="43.631769309146456" lon="7.134635641466247"><ele>6.833333333333334</ele><time>2026-04-29T06:34:04.999Z</time></trkpt><trkpt lat="43.63168527006798" lon="7.134624014659427"><ele>6.666666666666667</ele><time>2026-04-29T06:34:05.999Z</time></trkpt><trkpt lat="43.631603938813385" lon="7.1346077440677815"><ele>6.5</ele><time>2026-04-29T06:34:06.999Z</time></trkpt><trkpt lat="43.63152699324459" lon="7.134585573500252"><ele>6.333333333333334</ele><time>2026-04-29T06:34:07.999Z</time></trkpt><trkpt lat="43.631452531281866" lon="7.134562891791292"><ele>6.166666666666667</ele><time>2026-04-29T06:34:08.999Z</time></trkpt><trkpt lat="43.631378607895655" lon="7.134539281276473"><ele>6.0</ele><time>2026-04-29T06:34:09.999Z</time></trkpt><trkpt lat="43.63131085830847" lon="7.1345148425017735"><ele>6.0</ele><time>2026-04-29T06:34:10.999Z</time></trkpt><trkpt lat="43.63124182634533" lon="7.134483627808952"><ele>6.0</ele><time>2026-04-29T06:34:11.999Z</time></trkpt><trkpt lat="43.631177425056194" lon="7.134453993159145"><ele>6.0</ele><time>2026-04-29T06:34:12.999Z</time></trkpt><trkpt lat="43.63111322561319" lon="7.134426484538031"><ele>6.0</ele><time>2026-04-29T06:34:13.999Z</time></trkpt><trkpt lat="43.63105075906789" lon="7.134399710237655"><ele>6.0</ele><time>2026-04-29T06:34:14.999Z</time></trkpt><trkpt lat="43.630989640919" lon="7.13437322408883"><ele>6.0</ele><time>2026-04-29T06:34:15.999Z</time></trkpt><trkpt lat="43.63087417040122" lon="7.134323798193594"><ele>5.833333333333333</ele><time>2026-04-29T06:34:17.999Z</time></trkpt><trkpt lat="43.63075156159097" lon="7.134284638076384"><ele>5.666666666666667</ele><time>2026-04-29T06:34:19.999Z</time></trkpt><trkpt lat="43.6306837542369" lon="7.134269651675213"><ele>5.5</ele><time>2026-04-29T06:34:21Z</time></trkpt><trkpt lat="43.63062703381246" lon="7.134215363680299"><ele>5.333333333333334</ele><time>2026-04-29T06:34:22Z</time></trkpt><trkpt lat="43.63056012783817" lon="7.134204089311427"><ele>5.166666666666667</ele><time>2026-04-29T06:34:23Z</time></trkpt><trkpt lat="43.63047737037982" lon="7.134158940260637"><ele>5.0</ele><time>2026-04-29T06:34:25Z</time></trkpt><trkpt lat="43.630405944926935" lon="7.13412576437195"><ele>5.0</ele><time>2026-04-29T06:34:28Z</time></trkpt><trkpt lat="43.630345233076454" lon="7.1340875142898605"><ele>5.0</ele><time>2026-04-29T06:34:35Z</time></trkpt><trkpt lat="43.630268728716345" lon="7.134051305660444"><ele>5.0</ele><time>2026-04-29T06:34:37Z</time></trkpt><trkpt lat="43.63019154344327" lon="7.134010142000884"><ele>5.0</ele><time>2026-04-29T06:34:39Z</time></trkpt><trkpt lat="43.63010063137639" lon="7.133966178542334"><ele>5.0</ele><time>2026-04-29T06:34:41Z</time></trkpt><trkpt lat="43.63002131473305" lon="7.133928707313681"><ele>5.0</ele><time>2026-04-29T06:34:43Z</time></trkpt><trkpt lat="43.62995582060276" lon="7.13389768612605"><ele>5.166666666666667</ele><time>2026-04-29T06:34:45Z</time></trkpt><trkpt lat="43.62988683518609" lon="7.133868947806341"><ele>5.333333333333334</ele><time>2026-04-29T06:34:48Z</time></trkpt><trkpt lat="43.62979358664958" lon="7.133828570883886"><ele>5.5</ele><time>2026-04-29T06:35:32.999Z</time></trkpt><trkpt lat="43.62971419984661" lon="7.133796012711176"><ele>5.666666666666667</ele><time>2026-04-29T06:35:34.999Z</time></trkpt><trkpt lat="43.62963490682656" lon="7.133758082573979"><ele>5.833333333333333</ele><time>2026-04-29T06:35:36.999Z</time></trkpt><trkpt lat="43.62956568497592" lon="7.133655496414648"><ele>6.0</ele><time>2026-04-29T06:35:38.999Z</time></trkpt><trkpt lat="43.6295623784448" lon="7.133484950496523"><ele>6.0</ele><time>2026-04-29T06:35:40.999Z</time></trkpt><trkpt lat="43.629587551390294" lon="7.133381142431395"><ele>6.0</ele><time>2026-04-29T06:35:41.999Z</time></trkpt><trkpt lat="43.629621116541166" lon="7.133274067610561"><ele>6.0</ele><time>2026-04-29T06:35:42.999Z</time></trkpt><trkpt lat="43.629661476790425" lon="7.133157451776642"><ele>6.0</ele><time>2026-04-29T06:35:43.999Z</time></trkpt><trkpt lat="43.62970557246376" lon="7.1330419554815485"><ele>6.0</ele><time>2026-04-29T06:35:44.999Z</time></trkpt><trkpt lat="43.62975672228003" lon="7.132918379270818"><ele>6.0</ele><time>2026-04-29T06:35:45.999Z</time></trkpt><trkpt lat="43.629797185630416" lon="7.132793241492763"><ele>6.0</ele><time>2026-04-29T06:35:46.999Z</time></trkpt><trkpt lat="43.629836775461214" lon="7.132673458444234"><ele>6.0</ele><time>2026-04-29T06:35:47.999Z</time></trkpt><trkpt lat="43.6298801709217" lon="7.132556521875066"><ele>6.0</ele><time>2026-04-29T06:35:48.999Z</time></trkpt><trkpt lat="43.6299212318768" lon="7.132443692856392"><ele>6.0</ele><time>2026-04-29T06:35:49.999Z</time></trkpt><trkpt lat="43.62996162987131" lon="7.13234012201625"><ele>6.0</ele><time>2026-04-29T06:35:50.999Z</time></trkpt><trkpt lat="43.62999925722053" lon="7.132243356306218"><ele>6.0</ele><time>2026-04-29T06:35:51.999Z</time></trkpt><trkpt lat="43.63003487188738" lon="7.132146434904991"><ele>6.0</ele><time>2026-04-29T06:35:52.999Z</time></trkpt><trkpt lat="43.630067832410276" lon="7.132036483306382"><ele>6.0</ele><time>2026-04-29T06:35:53.999Z</time></trkpt><trkpt lat="43.63009579176227" lon="7.13193033288666"><ele>6.0</ele><time>2026-04-29T06:35:54.999Z</time></trkpt><trkpt lat="43.630128432760856" lon="7.131829074550768"><ele>6.0</ele><time>2026-04-29T06:35:55.999Z</time></trkpt><trkpt lat="43.630160117369385" lon="7.131746624767458"><ele>6.0</ele><time>2026-04-29T06:35:56.999Z</time></trkpt><trkpt lat="43.63019636967542" lon="7.131670832501184"><ele>6.0</ele><time>2026-04-29T06:35:58.999Z</time></trkpt><trkpt lat="43.630242124112435" lon="7.131536503964941"><ele>6.0</ele><time>2026-04-29T06:36:01.999Z</time></trkpt><trkpt lat="43.63027424184687" lon="7.131438689510296"><ele>6.0</ele><time>2026-04-29T06:36:02.999Z</time></trkpt><trkpt lat="43.630315697589744" lon="7.131328617538762"><ele>6.0</ele><time>2026-04-29T06:36:03.999Z</time></trkpt><trkpt lat="43.63035739946658" lon="7.131216246748701"><ele>6.0</ele><time>2026-04-29T06:36:04.999Z</time></trkpt><trkpt lat="43.630399155719466" lon="7.131081514626823"><ele>7.0</ele><time>2026-04-29T06:36:05.999Z</time></trkpt><trkpt lat="43.630445665363794" lon="7.130942014138823"><ele>8.0</ele><time>2026-04-29T06:36:06.999Z</time></trkpt><trkpt lat="43.63049873452927" lon="7.130796974808449"><ele>9.0</ele><time>2026-04-29T06:36:07.999Z</time></trkpt><trkpt lat="43.630555413717644" lon="7.130666526170564"><ele>10.0</ele><time>2026-04-29T06:36:08.999Z</time></trkpt><trkpt lat="43.63060309547365" lon="7.130551250117465"><ele>11.0</ele><time>2026-04-29T06:36:09.999Z</time></trkpt><trkpt lat="43.63064303137249" lon="7.130440712488607"><ele>11.333333333333332</ele><time>2026-04-29T06:36:10.999Z</time></trkpt><trkpt lat="43.63068090953245" lon="7.1303281625117805"><ele>11.666666666666666</ele><time>2026-04-29T06:36:11.999Z</time></trkpt><trkpt lat="43.630712205204254" lon="7.1302305689939445"><ele>12.0</ele><time>2026-04-29T06:36:12.999Z</time></trkpt><trkpt lat="43.63074383305059" lon="7.130139564597221"><ele>12.333333333333332</ele><time>2026-04-29T06:36:13.999Z</time></trkpt><trkpt lat="43.63077608120219" lon="7.130050900402515"><ele>12.666666666666666</ele><time>2026-04-29T06:36:14.999Z</time></trkpt><trkpt lat="43.630831712890455" lon="7.129935808215179"><ele>13.0</ele><time>2026-04-29T06:36:16.999Z</time></trkpt><trkpt lat="43.63088779831344" lon="7.129876698415393"><ele>14.0</ele><time>2026-04-29T06:36:18.999Z</time></trkpt><trkpt lat="43.63090632684867" lon="7.1297749297513855"><ele>15.0</ele><time>2026-04-29T06:36:20.999Z</time></trkpt><trkpt lat="43.63081905497437" lon="7.129628437456272"><ele>16.0</ele><time>2026-04-29T06:36:22.999Z</time></trkpt><trkpt lat="43.630758622244194" lon="7.129530709939396"><ele>17.0</ele><time>2026-04-29T06:36:23.999Z</time></trkpt><trkpt lat="43.63070045407469" lon="7.12943382569581"><ele>18.0</ele><time>2026-04-29T06:36:24.999Z</time></trkpt><trkpt lat="43.63063429634842" lon="7.129369832355011"><ele>18.0</ele><time>2026-04-29T06:36:25.999Z</time></trkpt><trkpt lat="43.630563231494044" lon="7.129346299475206"><ele>18.0</ele><time>2026-04-29T06:36:27Z</time></trkpt><trkpt lat="43.630427184839334" lon="7.129346110498987"><ele>18.0</ele><time>2026-04-29T06:36:29Z</time></trkpt><trkpt lat="43.630343012566215" lon="7.129341904126355"><ele>18.0</ele><time>2026-04-29T06:36:30Z</time></trkpt><trkpt lat="43.63026195822888" lon="7.129320606699014"><ele>18.0</ele><time>2026-04-29T06:36:31Z</time></trkpt><trkpt lat="43.63018791299411" lon="7.129292140228045"><ele>18.166666666666668</ele><time>2026-04-29T06:36:32Z</time></trkpt><trkpt lat="43.63012630421698" lon="7.129256130853677"><ele>18.333333333333332</ele><time>2026-04-29T06:36:33Z</time></trkpt><trkpt lat="43.630078641338315" lon="7.129192227583871"><ele>18.5</ele><time>2026-04-29T06:36:34Z</time></trkpt><trkpt lat="43.6300162256546" lon="7.129161830462424"><ele>18.666666666666664</ele><time>2026-04-29T06:36:35Z</time></trkpt><trkpt lat="43.62992398179115" lon="7.1290564564597005"><ele>18.833333333333332</ele><time>2026-04-29T06:36:37Z</time></trkpt><trkpt lat="43.62987271899646" lon="7.1290013372721415"><ele>19.0</ele><time>2026-04-29T06:36:38Z</time></trkpt><trkpt lat="43.6298091992008" lon="7.128938568696166"><ele>19.0</ele><time>2026-04-29T06:36:39Z</time></trkpt><trkpt lat="43.629735035347366" lon="7.128865047566371"><ele>19.0</ele><time>2026-04-29T06:36:40Z</time></trkpt><trkpt lat="43.62966415011877" lon="7.128788626771913"><ele>19.0</ele><time>2026-04-29T06:36:41Z</time></trkpt><trkpt lat="43.62958616932406" lon="7.12870825154293"><ele>19.0</ele><time>2026-04-29T06:36:42Z</time></trkpt><trkpt lat="43.62951644250025" lon="7.128636337791669"><ele>19.0</ele><time>2026-04-29T06:36:43Z</time></trkpt><trkpt lat="43.62944749276815" lon="7.128565039473371"><ele>18.833333333333332</ele><time>2026-04-29T06:36:44Z</time></trkpt><trkpt lat="43.629394481664725" lon="7.12850903325938"><ele>18.666666666666664</ele><time>2026-04-29T06:36:45Z</time></trkpt><trkpt lat="43.62933625720977" lon="7.128458703135241"><ele>18.5</ele><time>2026-04-29T06:36:46Z</time></trkpt><trkpt lat="43.62927138177941" lon="7.128396272244578"><ele>18.333333333333332</ele><time>2026-04-29T06:36:47Z</time></trkpt><trkpt lat="43.62919836966768" lon="7.128329487263135"><ele>18.166666666666668</ele><time>2026-04-29T06:36:48Z</time></trkpt><trkpt lat="43.62913461538035" lon="7.128265277663078"><ele>18.0</ele><time>2026-04-29T06:36:49Z</time></trkpt><trkpt lat="43.62904029119604" lon="7.128168802411707"><ele>18.0</ele><time>2026-04-29T06:36:51Z</time></trkpt><trkpt lat="43.62893374391575" lon="7.128065987912282"><ele>18.0</ele><time>2026-04-29T06:36:53Z</time></trkpt><trkpt lat="43.628862471358175" lon="7.1280166577507975"><ele>18.0</ele><time>2026-04-29T06:36:54Z</time></trkpt><trkpt lat="43.628798041935134" lon="7.127952841214237"><ele>18.0</ele><time>2026-04-29T06:36:55Z</time></trkpt><trkpt lat="43.62873950031414" lon="7.127882580725038"><ele>18.0</ele><time>2026-04-29T06:36:56Z</time></trkpt><trkpt lat="43.62870875971011" lon="7.127772175897612"><ele>18.0</ele><time>2026-04-29T06:36:57Z</time></trkpt><trkpt lat="43.62867841845975" lon="7.127661387012786"><ele>18.0</ele><time>2026-04-29T06:36:58Z</time></trkpt><trkpt lat="43.62867045284976" lon="7.127528129112319"><ele>18.0</ele><time>2026-04-29T06:36:59Z</time></trkpt><trkpt lat="43.62865653412872" lon="7.127371712808832"><ele>18.0</ele><time>2026-04-29T06:37:00Z</time></trkpt><trkpt lat="43.62861514629483" lon="7.127234246864869"><ele>18.0</ele><time>2026-04-29T06:37:01Z</time></trkpt><trkpt lat="43.62857879795848" lon="7.127111028258818"><ele>17.2</ele><time>2026-04-29T06:37:02Z</time></trkpt><trkpt lat="43.62854594876836" lon="7.126983382140849"><ele>16.4</ele><time>2026-04-29T06:37:03Z</time></trkpt><trkpt lat="43.62851953324456" lon="7.1268567216781324"><ele>15.599999999999998</ele><time>2026-04-29T06:37:04Z</time></trkpt><trkpt lat="43.62850018993754" lon="7.126732114164019"><ele>14.799999999999999</ele><time>2026-04-29T06:37:05Z</time></trkpt><trkpt lat="43.628487733390806" lon="7.126603491621879"><ele>14.0</ele><time>2026-04-29T06:37:06Z</time></trkpt><trkpt lat="43.628497055100645" lon="7.126459060400165"><ele>13.399999999999999</ele><time>2026-04-29T06:37:07Z</time></trkpt><trkpt lat="43.62847707392201" lon="7.126309893233906"><ele>12.799999999999999</ele><time>2026-04-29T06:37:08Z</time></trkpt><trkpt lat="43.62848855088734" lon="7.126183712760911"><ele>12.2</ele><time>2026-04-29T06:37:09Z</time></trkpt><trkpt lat="43.628490744002534" lon="7.126067288454863"><ele>11.600000000000001</ele><time>2026-04-29T06:37:10Z</time></trkpt><trkpt lat="43.6285012132291" lon="7.125957880276845"><ele>11.0</ele><time>2026-04-29T06:37:11Z</time></trkpt><trkpt lat="43.62855242234351" lon="7.12585520330572"><ele>11.0</ele><time>2026-04-29T06:37:12Z</time></trkpt><trkpt lat="43.62862632880207" lon="7.125750179817804"><ele>11.0</ele><time>2026-04-29T06:37:13Z</time></trkpt><trkpt lat="43.62871543286347" lon="7.125650528521559"><ele>11.0</ele><time>2026-04-29T06:37:14Z</time></trkpt><trkpt lat="43.628810662130235" lon="7.125537142125775"><ele>11.0</ele><time>2026-04-29T06:37:15Z</time></trkpt><trkpt lat="43.6288975071181" lon="7.125428760890923"><ele>11.4</ele><time>2026-04-29T06:37:16Z</time></trkpt><trkpt lat="43.62896001929868" lon="7.12532402360833"><ele>11.8</ele><time>2026-04-29T06:37:17Z</time></trkpt><trkpt lat="43.62900828316178" lon="7.125209180577139"><ele>12.200000000000001</ele><time>2026-04-29T06:37:18Z</time></trkpt><trkpt lat="43.62903682706258" lon="7.125068251564986"><ele>12.600000000000001</ele><time>2026-04-29T06:37:19Z</time></trkpt><trkpt lat="43.629063972445635" lon="7.1249217917445575"><ele>13.0</ele><time>2026-04-29T06:37:20Z</time></trkpt><trkpt lat="43.62909631197864" lon="7.124777513783022"><ele>12.999999999999998</ele><time>2026-04-29T06:37:21Z</time></trkpt><trkpt lat="43.62912593029923" lon="7.124637892477175"><ele>13.0</ele><time>2026-04-29T06:37:22Z</time></trkpt><trkpt lat="43.62915543865375" lon="7.124505830201333"><ele>13.0</ele><time>2026-04-29T06:37:23Z</time></trkpt><trkpt lat="43.6291800397492" lon="7.124406244931088"><ele>13.0</ele><time>2026-04-29T06:37:24Z</time></trkpt><trkpt lat="43.62920429041326" lon="7.124314340329894"><ele>12.999999999999998</ele><time>2026-04-29T06:37:25Z</time></trkpt><trkpt lat="43.62922658741746" lon="7.124217805314587"><ele>13.0</ele><time>2026-04-29T06:37:26Z</time></trkpt><trkpt lat="43.62925122188227" lon="7.12411314904795"><ele>12.833333333333332</ele><time>2026-04-29T06:37:27Z</time></trkpt><trkpt lat="43.629273532483566" lon="7.124014751641092"><ele>12.666666666666666</ele><time>2026-04-29T06:37:28Z</time></trkpt><trkpt lat="43.62929345109983" lon="7.1239218446954355"><ele>12.5</ele><time>2026-04-29T06:37:29Z</time></trkpt><trkpt lat="43.62932368115761" lon="7.123813671660602"><ele>12.333333333333332</ele><time>2026-04-29T06:37:30Z</time></trkpt><trkpt lat="43.62935268477874" lon="7.1237232846880785"><ele>12.166666666666666</ele><time>2026-04-29T06:37:31Z</time></trkpt><trkpt lat="43.62940452308638" lon="7.12356695284476"><ele>12.0</ele><time>2026-04-29T06:37:33Z</time></trkpt><trkpt lat="43.62944298417213" lon="7.123496238237787"><ele>12.0</ele><time>2026-04-29T06:37:34Z</time></trkpt><trkpt lat="43.62947100083589" lon="7.123417097540211"><ele>12.0</ele><time>2026-04-29T06:37:35Z</time></trkpt><trkpt lat="43.62951289914759" lon="7.123312472336841"><ele>12.0</ele><time>2026-04-29T06:37:36Z</time></trkpt><trkpt lat="43.62955210527744" lon="7.123191087431097"><ele>12.0</ele><time>2026-04-29T06:37:37Z</time></trkpt><trkpt lat="43.62959212483034" lon="7.12306152787396"><ele>12.0</ele><time>2026-04-29T06:37:38Z</time></trkpt><trkpt lat="43.62961501512942" lon="7.122935409801896"><ele>12.0</ele><time>2026-04-29T06:37:39Z</time></trkpt><trkpt lat="43.62962490799604" lon="7.122807877521094"><ele>13.8</ele><time>2026-04-29T06:37:40Z</time></trkpt><trkpt lat="43.62963536653494" lon="7.122655102799499"><ele>15.6</ele><time>2026-04-29T06:37:41Z</time></trkpt><trkpt lat="43.6296216074043" lon="7.122505944027557"><ele>17.400000000000002</ele><time>2026-04-29T06:37:42Z</time></trkpt><trkpt lat="43.6296093473339" lon="7.122375369198491"><ele>19.2</ele><time>2026-04-29T06:37:42.999Z</time></trkpt><trkpt lat="43.629612539175504" lon="7.122242460448666"><ele>21.0</ele><time>2026-04-29T06:37:43.999Z</time></trkpt><trkpt lat="43.62963649852111" lon="7.122105724292342"><ele>21.0</ele><time>2026-04-29T06:37:44.999Z</time></trkpt><trkpt lat="43.629666480096695" lon="7.121952671106806"><ele>21.0</ele><time>2026-04-29T06:37:45.999Z</time></trkpt><trkpt lat="43.62969436318453" lon="7.121798483141832"><ele>21.0</ele><time>2026-04-29T06:37:46.999Z</time></trkpt><trkpt lat="43.62972145582998" lon="7.121653842703669"><ele>21.0</ele><time>2026-04-29T06:37:47.999Z</time></trkpt><trkpt lat="43.629741160693406" lon="7.121519634348185"><ele>21.0</ele><time>2026-04-29T06:37:48.999Z</time></trkpt><trkpt lat="43.629740033689785" lon="7.121379485591637"><ele>20.6</ele><time>2026-04-29T06:37:49.999Z</time></trkpt><trkpt lat="43.62971505563971" lon="7.121249108285687"><ele>20.200000000000003</ele><time>2026-04-29T06:37:50.999Z</time></trkpt><trkpt lat="43.62966263457561" lon="7.121125387511661"><ele>19.799999999999997</ele><time>2026-04-29T06:37:51.999Z</time></trkpt><trkpt lat="43.62958941161666" lon="7.121007771487373"><ele>19.4</ele><time>2026-04-29T06:37:52.999Z</time></trkpt><trkpt lat="43.62953077716824" lon="7.120867935999634"><ele>19.0</ele><time>2026-04-29T06:37:53.999Z</time></trkpt><trkpt lat="43.62944666432614" lon="7.120751491202714"><ele>18.8</ele><time>2026-04-29T06:37:54.999Z</time></trkpt><trkpt lat="43.629374302964905" lon="7.1206224207296085"><ele>18.599999999999998</ele><time>2026-04-29T06:37:55.999Z</time></trkpt><trkpt lat="43.62928740435837" lon="7.120513446408655"><ele>18.4</ele><time>2026-04-29T06:37:56.999Z</time></trkpt><trkpt lat="43.62919709204173" lon="7.120417602474668"><ele>18.2</ele><time>2026-04-29T06:37:57.999Z</time></trkpt><trkpt lat="43.62913192193238" lon="7.120324311581699"><ele>18.0</ele><time>2026-04-29T06:37:58.999Z</time></trkpt><trkpt lat="43.62906561641628" lon="7.120248147173007"><ele>18.0</ele><time>2026-04-29T06:37:59.999Z</time></trkpt><trkpt lat="43.62900435407343" lon="7.120204335866228"><ele>18.0</ele><time>2026-04-29T06:38:00.999Z</time></trkpt><trkpt lat="43.628932693673256" lon="7.120101811140288"><ele>18.0</ele><time>2026-04-29T06:38:02.999Z</time></trkpt><trkpt lat="43.62889032891353" lon="7.120032702748883"><ele>18.0</ele><time>2026-04-29T06:38:06.999Z</time></trkpt><trkpt lat="43.628823713168984" lon="7.119944463330839"><ele>18.0</ele><time>2026-04-29T06:38:11.999Z</time></trkpt><trkpt lat="43.62876163264933" lon="7.1198671870806916"><ele>18.0</ele><time>2026-04-29T06:38:13.999Z</time></trkpt><trkpt lat="43.62869419318126" lon="7.119764142662891"><ele>19.5</ele><time>2026-04-29T06:38:15.999Z</time></trkpt><trkpt lat="43.62861698372955" lon="7.1196303367430644"><ele>21.0</ele><time>2026-04-29T06:38:17.999Z</time></trkpt><trkpt lat="43.628572187553104" lon="7.119547770496945"><ele>22.5</ele><time>2026-04-29T06:38:18.999Z</time></trkpt><trkpt lat="43.628524858898686" lon="7.119454933323596"><ele>24.0</ele><time>2026-04-29T06:38:19.999Z</time></trkpt><trkpt lat="43.6284728140928" lon="7.11935915700027"><ele>25.5</ele><time>2026-04-29T06:38:20.999Z</time></trkpt><trkpt lat="43.62842131679466" lon="7.119271757875487"><ele>27.0</ele><time>2026-04-29T06:38:21.999Z</time></trkpt><trkpt lat="43.628378145776075" lon="7.119196319165262"><ele>27.0</ele><time>2026-04-29T06:38:22.999Z</time></trkpt><trkpt lat="43.62832246167643" lon="7.119076585417395"><ele>27.0</ele><time>2026-04-29T06:38:24.999Z</time></trkpt><trkpt lat="43.628265922000885" lon="7.118940559191557"><ele>27.0</ele><time>2026-04-29T06:38:26.999Z</time></trkpt><trkpt lat="43.628235802700864" lon="7.118853665974567"><ele>27.0</ele><time>2026-04-29T06:38:27.999Z</time></trkpt><trkpt lat="43.628209436424555" lon="7.118764383004642"><ele>27.0</ele><time>2026-04-29T06:38:28.999Z</time></trkpt><trkpt lat="43.62817939990848" lon="7.118669502729351"><ele>27.0</ele><time>2026-04-29T06:38:29.999Z</time></trkpt><trkpt lat="43.62814439748087" lon="7.1185654120547115"><ele>26.6</ele><time>2026-04-29T06:38:30.999Z</time></trkpt><trkpt lat="43.62809794235269" lon="7.1184355491323785"><ele>26.200000000000003</ele><time>2026-04-29T06:38:31.999Z</time></trkpt><trkpt lat="43.62804399432554" lon="7.118301840426718"><ele>25.8</ele><time>2026-04-29T06:38:33Z</time></trkpt><trkpt lat="43.627985648686646" lon="7.118159414118132"><ele>25.4</ele><time>2026-04-29T06:38:34Z</time></trkpt><trkpt lat="43.627940395872855" lon="7.1180268838652765"><ele>25.0</ele><time>2026-04-29T06:38:35Z</time></trkpt><trkpt lat="43.627907252464496" lon="7.117919016290196"><ele>25.666666666666668</ele><time>2026-04-29T06:38:36Z</time></trkpt><trkpt lat="43.62786656359875" lon="7.117809667436215"><ele>26.333333333333336</ele><time>2026-04-29T06:38:37Z</time></trkpt><trkpt lat="43.627852014517195" lon="7.117695440980063"><ele>27.0</ele><time>2026-04-29T06:38:38Z</time></trkpt><trkpt lat="43.62781675397201" lon="7.117584908174343"><ele>27.666666666666664</ele><time>2026-04-29T06:38:39Z</time></trkpt><trkpt lat="43.62780998181947" lon="7.117485666067514"><ele>28.333333333333332</ele><time>2026-04-29T06:38:40Z</time></trkpt><trkpt lat="43.62779225955172" lon="7.117377330465673"><ele>29.0</ele><time>2026-04-29T06:38:41Z</time></trkpt><trkpt lat="43.6277641371544" lon="7.117270944179719"><ele>30.166666666666664</ele><time>2026-04-29T06:38:42Z</time></trkpt><trkpt lat="43.627734185346846" lon="7.117156108020028"><ele>31.333333333333332</ele><time>2026-04-29T06:38:43Z</time></trkpt><trkpt lat="43.62768285503981" lon="7.1170613239814795"><ele>32.5</ele><time>2026-04-29T06:38:44Z</time></trkpt><trkpt lat="43.62761632684159" lon="7.116976189443432"><ele>33.666666666666664</ele><time>2026-04-29T06:38:45Z</time></trkpt><trkpt lat="43.62754593681092" lon="7.116907317588318"><ele>34.833333333333336</ele><time>2026-04-29T06:38:46Z</time></trkpt><trkpt lat="43.627484617095945" lon="7.116833913351881"><ele>36.0</ele><time>2026-04-29T06:38:47Z</time></trkpt><trkpt lat="43.62744433657987" lon="7.116761075973194"><ele>36.0</ele><time>2026-04-29T06:38:48Z</time></trkpt><trkpt lat="43.627423135161045" lon="7.116673737202319"><ele>36.0</ele><time>2026-04-29T06:38:49Z</time></trkpt><trkpt lat="43.62744807145569" lon="7.1165670251389335"><ele>36.0</ele><time>2026-04-29T06:38:50Z</time></trkpt><trkpt lat="43.62745041390837" lon="7.1164368994197185"><ele>36.0</ele><time>2026-04-29T06:38:51Z</time></trkpt><trkpt lat="43.62743730264626" lon="7.11630381052678"><ele>36.0</ele><time>2026-04-29T06:38:52Z</time></trkpt><trkpt lat="43.62744034132906" lon="7.11617251586612"><ele>36.0</ele><time>2026-04-29T06:38:53Z</time></trkpt><trkpt lat="43.627443030520574" lon="7.116055333904736"><ele>36.2</ele><time>2026-04-29T06:38:54Z</time></trkpt><trkpt lat="43.62744722907775" lon="7.11593669450338"><ele>36.400000000000006</ele><time>2026-04-29T06:38:55Z</time></trkpt><trkpt lat="43.62744713044195" lon="7.115814456444406"><ele>36.6</ele><time>2026-04-29T06:38:56Z</time></trkpt><trkpt lat="43.627442283455096" lon="7.115704626811311"><ele>36.800000000000004</ele><time>2026-04-29T06:38:57Z</time></trkpt><trkpt lat="43.62741887621082" lon="7.115584387504688"><ele>37.0</ele><time>2026-04-29T06:38:58Z</time></trkpt><trkpt lat="43.62736724289672" lon="7.115456804248287"><ele>37.2</ele><time>2026-04-29T06:38:59Z</time></trkpt><trkpt lat="43.62730379375141" lon="7.115324660743102"><ele>37.400000000000006</ele><time>2026-04-29T06:39:00Z</time></trkpt><trkpt lat="43.62725105420344" lon="7.115198083151329"><ele>37.599999999999994</ele><time>2026-04-29T06:39:01Z</time></trkpt><trkpt lat="43.62720157916433" lon="7.115073116173511"><ele>37.8</ele><time>2026-04-29T06:39:02Z</time></trkpt><trkpt lat="43.62715111583816" lon="7.114956793996713"><ele>38.0</ele><time>2026-04-29T06:39:03Z</time></trkpt><trkpt lat="43.62709626517118" lon="7.114853108558357"><ele>37.8</ele><time>2026-04-29T06:39:04Z</time></trkpt><trkpt lat="43.627024189499934" lon="7.114758543579641"><ele>37.599999999999994</ele><time>2026-04-29T06:39:05Z</time></trkpt><trkpt lat="43.62693978004689" lon="7.114687576214871"><ele>37.400000000000006</ele><time>2026-04-29T06:39:06Z</time></trkpt><trkpt lat="43.62683657452308" lon="7.114634482996519"><ele>37.2</ele><time>2026-04-29T06:39:07Z</time></trkpt><trkpt lat="43.62675531782347" lon="7.114579231685711"><ele>37.0</ele><time>2026-04-29T06:39:08Z</time></trkpt><trkpt lat="43.626682420062885" lon="7.114530880339234"><ele>37.0</ele><time>2026-04-29T06:39:09Z</time></trkpt><trkpt lat="43.62662717928862" lon="7.114461435889252"><ele>37.0</ele><time>2026-04-29T06:39:10Z</time></trkpt><trkpt lat="43.62657303180581" lon="7.1144150295442214"><ele>37.0</ele><time>2026-04-29T06:39:11Z</time></trkpt><trkpt lat="43.626515071276266" lon="7.114363611971856"><ele>37.0</ele><time>2026-04-29T06:39:12Z</time></trkpt><trkpt lat="43.62645330465183" lon="7.114332554499958"><ele>37.0</ele><time>2026-04-29T06:39:13Z</time></trkpt><trkpt lat="43.62638935008892" lon="7.1142783447499705"><ele>37.0</ele><time>2026-04-29T06:39:14Z</time></trkpt><trkpt lat="43.62632157006595" lon="7.114215441743242"><ele>37.0</ele><time>2026-04-29T06:39:15Z</time></trkpt><trkpt lat="43.62625736560304" lon="7.114156281033636"><ele>37.0</ele><time>2026-04-29T06:39:16Z</time></trkpt><trkpt lat="43.62619473332094" lon="7.114099599192687"><ele>37.0</ele><time>2026-04-29T06:39:17Z</time></trkpt><trkpt lat="43.62613533561091" lon="7.1140311543913475"><ele>37.0</ele><time>2026-04-29T06:39:18Z</time></trkpt><trkpt lat="43.62607439784993" lon="7.113975974597714"><ele>37.0</ele><time>2026-04-29T06:39:19Z</time></trkpt><trkpt lat="43.62602675392369" lon="7.11389655264895"><ele>37.0</ele><time>2026-04-29T06:39:20Z</time></trkpt><trkpt lat="43.625980178686945" lon="7.113828474745377"><ele>37.0</ele><time>2026-04-29T06:39:21Z</time></trkpt><trkpt lat="43.62594332930317" lon="7.113756787515419"><ele>37.0</ele><time>2026-04-29T06:39:22Z</time></trkpt><trkpt lat="43.62590458263868" lon="7.113681770664476"><ele>37.333333333333336</ele><time>2026-04-29T06:39:23Z</time></trkpt><trkpt lat="43.625862081723604" lon="7.113594590588566"><ele>37.66666666666667</ele><time>2026-04-29T06:39:24Z</time></trkpt><trkpt lat="43.625816726613095" lon="7.113503276208302"><ele>38.0</ele><time>2026-04-29T06:39:25Z</time></trkpt><trkpt lat="43.62574917165752" lon="7.1134291733034685"><ele>38.333333333333336</ele><time>2026-04-29T06:39:26Z</time></trkpt><trkpt lat="43.62568612998802" lon="7.113348295879841"><ele>38.666666666666664</ele><time>2026-04-29T06:39:27Z</time></trkpt><trkpt lat="43.6256109569242" lon="7.113273193349022"><ele>39.0</ele><time>2026-04-29T06:39:28Z</time></trkpt><trkpt lat="43.6255324466928" lon="7.113200105318587"><ele>39.166666666666664</ele><time>2026-04-29T06:39:29Z</time></trkpt><trkpt lat="43.62545064327225" lon="7.113129495824429"><ele>39.333333333333336</ele><time>2026-04-29T06:39:30Z</time></trkpt><trkpt lat="43.62537151260312" lon="7.113072121098496"><ele>39.5</ele><time>2026-04-29T06:39:31Z</time></trkpt><trkpt lat="43.62529981814737" lon="7.113017274455002"><ele>39.66666666666667</ele><time>2026-04-29T06:39:32Z</time></trkpt><trkpt lat="43.62523367407917" lon="7.112967791721348"><ele>39.833333333333336</ele><time>2026-04-29T06:39:33Z</time></trkpt><trkpt lat="43.62516627563082" lon="7.112918108477425"><ele>40.0</ele><time>2026-04-29T06:39:34Z</time></trkpt><trkpt lat="43.62509992932136" lon="7.112866679122829"><ele>40.0</ele><time>2026-04-29T06:39:35Z</time></trkpt><trkpt lat="43.625022783413044" lon="7.112808754417444"><ele>40.0</ele><time>2026-04-29T06:39:36Z</time></trkpt><trkpt lat="43.624950502162946" lon="7.112721681952886"><ele>40.0</ele><time>2026-04-29T06:39:37Z</time></trkpt><trkpt lat="43.6248671117873" lon="7.112662583060151"><ele>40.0</ele><time>2026-04-29T06:39:38Z</time></trkpt><trkpt lat="43.624787473366645" lon="7.112586639372406"><ele>40.0</ele><time>2026-04-29T06:39:39Z</time></trkpt><trkpt lat="43.62470682898364" lon="7.1125097525140974"><ele>40.0</ele><time>2026-04-29T06:39:40Z</time></trkpt><trkpt lat="43.624636491287276" lon="7.112433830540889"><ele>40.0</ele><time>2026-04-29T06:39:41Z</time></trkpt><trkpt lat="43.624581091539746" lon="7.112367288163795"><ele>40.0</ele><time>2026-04-29T06:39:42Z</time></trkpt><trkpt lat="43.62452746286341" lon="7.112316051367797"><ele>40.0</ele><time>2026-04-29T06:39:43Z</time></trkpt><trkpt lat="43.62445275616785" lon="7.112257596862578"><ele>40.0</ele><time>2026-04-29T06:39:44Z</time></trkpt><trkpt lat="43.62437291815798" lon="7.112162315537631"><ele>40.0</ele><time>2026-04-29T06:39:45Z</time></trkpt><trkpt lat="43.624281484867794" lon="7.112095292666784"><ele>39.333333333333336</ele><time>2026-04-29T06:39:46Z</time></trkpt><trkpt lat="43.624201659195414" lon="7.112062088952499"><ele>38.66666666666667</ele><time>2026-04-29T06:39:47Z</time></trkpt><trkpt lat="43.62414387002039" lon="7.111971441187457"><ele>38.0</ele><time>2026-04-29T06:39:48Z</time></trkpt><trkpt lat="43.62409019536091" lon="7.111897162222703"><ele>37.333333333333336</ele><time>2026-04-29T06:39:49Z</time></trkpt><trkpt lat="43.62404955429324" lon="7.1118083533857215"><ele>36.666666666666664</ele><time>2026-04-29T06:39:50Z</time></trkpt><trkpt lat="43.62403542710731" lon="7.1116899222685905"><ele>36.0</ele><time>2026-04-29T06:39:51Z</time></trkpt><trkpt lat="43.62401014430205" lon="7.111565602206281"><ele>34.25</ele><time>2026-04-29T06:39:52Z</time></trkpt><trkpt lat="43.62401730773808" lon="7.111439003678285"><ele>32.5</ele><time>2026-04-29T06:39:53Z</time></trkpt><trkpt lat="43.62404591840722" lon="7.111283047834696"><ele>30.75</ele><time>2026-04-29T06:39:54Z</time></trkpt><trkpt lat="43.624082604390146" lon="7.111115315325674"><ele>29.0</ele><time>2026-04-29T06:39:55Z</time></trkpt><trkpt lat="43.62411878731337" lon="7.1109308122707"><ele>29.0</ele><time>2026-04-29T06:39:56Z</time></trkpt><trkpt lat="43.624154617509966" lon="7.110756279390102"><ele>29.0</ele><time>2026-04-29T06:39:57Z</time></trkpt><trkpt lat="43.62418983897463" lon="7.1105876799964625"><ele>29.0</ele><time>2026-04-29T06:39:58Z</time></trkpt><trkpt lat="43.62422102060816" lon="7.11042074240565"><ele>29.0</ele><time>2026-04-29T06:39:59Z</time></trkpt><trkpt lat="43.62425330033023" lon="7.110264674472999"><ele>27.799999999999997</ele><time>2026-04-29T06:40:00Z</time></trkpt><trkpt lat="43.62428136488386" lon="7.1101306453671045"><ele>26.599999999999998</ele><time>2026-04-29T06:40:01Z</time></trkpt><trkpt lat="43.62431325500354" lon="7.110016158304724"><ele>25.4</ele><time>2026-04-29T06:40:02Z</time></trkpt><trkpt lat="43.62434682354694" lon="7.109922151978515"><ele>24.2</ele><time>2026-04-29T06:40:03Z</time></trkpt><trkpt lat="43.624389103666324" lon="7.109788244396662"><ele>23.0</ele><time>2026-04-29T06:40:05Z</time></trkpt><trkpt lat="43.62431902527386" lon="7.109708160185259"><ele>23.0</ele><time>2026-04-29T06:40:07Z</time></trkpt><trkpt lat="43.624257418339866" lon="7.10972740076035"><ele>23.0</ele><time>2026-04-29T06:40:08Z</time></trkpt><trkpt lat="43.624204046427245" lon="7.109801537960509"><ele>23.0</ele><time>2026-04-29T06:40:09Z</time></trkpt><trkpt lat="43.62415374788547" lon="7.109912170372363"><ele>23.0</ele><time>2026-04-29T06:40:10Z</time></trkpt><trkpt lat="43.6240989236165" lon="7.110027109577174"><ele>23.0</ele><time>2026-04-29T06:40:11Z</time></trkpt><trkpt lat="43.62405243040316" lon="7.110108067771512"><ele>23.0</ele><time>2026-04-29T06:40:12Z</time></trkpt><trkpt lat="43.623959142514586" lon="7.110196516106175"><ele>23.0</ele><time>2026-04-29T06:40:14Z</time></trkpt><trkpt lat="43.62385236505653" lon="7.110083492910093"><ele>23.0</ele><time>2026-04-29T06:40:16Z</time></trkpt><trkpt lat="43.62379537048812" lon="7.110002683249211"><ele>23.0</ele><time>2026-04-29T06:40:17Z</time></trkpt><trkpt lat="43.6237827073603" lon="7.109862121412396"><ele>23.0</ele><time>2026-04-29T06:40:18Z</time></trkpt><trkpt lat="43.623721791674114" lon="7.109718989176644"><ele>23.0</ele><time>2026-04-29T06:40:19Z</time></trkpt><trkpt lat="43.62366526073775" lon="7.109585661497619"><ele>22.75</ele><time>2026-04-29T06:40:20Z</time></trkpt><trkpt lat="43.62358824066723" lon="7.109479385826794"><ele>22.5</ele><time>2026-04-29T06:40:21Z</time></trkpt><trkpt lat="43.62348148047887" lon="7.109402949193933"><ele>22.25</ele><time>2026-04-29T06:40:22Z</time></trkpt><trkpt lat="43.62336315508644" lon="7.109335604655456"><ele>22.0</ele><time>2026-04-29T06:40:23Z</time></trkpt><trkpt lat="43.62324890568889" lon="7.1092452566456545"><ele>22.0</ele><time>2026-04-29T06:40:23.999Z</time></trkpt><trkpt lat="43.623136680256785" lon="7.109163208430718"><ele>22.0</ele><time>2026-04-29T06:40:24.999Z</time></trkpt><trkpt lat="43.623042263950964" lon="7.109085101660709"><ele>22.0</ele><time>2026-04-29T06:40:25.999Z</time></trkpt><trkpt lat="43.62294896661278" lon="7.109019212851317"><ele>22.0</ele><time>2026-04-29T06:40:26.999Z</time></trkpt><trkpt lat="43.622850568585676" lon="7.108942615223853"><ele>22.6</ele><time>2026-04-29T06:40:27.999Z</time></trkpt><trkpt lat="43.62275633442912" lon="7.1088677784601675"><ele>23.200000000000003</ele><time>2026-04-29T06:40:28.999Z</time></trkpt><trkpt lat="43.62266981606988" lon="7.108797654396371"><ele>23.8</ele><time>2026-04-29T06:40:29.999Z</time></trkpt><trkpt lat="43.622593046583496" lon="7.108701797515267"><ele>24.4</ele><time>2026-04-29T06:40:30.999Z</time></trkpt><trkpt lat="43.622518582062575" lon="7.108583457324726"><ele>25.0</ele><time>2026-04-29T06:40:31.999Z</time></trkpt><trkpt lat="43.62246647948414" lon="7.108423990882553"><ele>25.0</ele><time>2026-04-29T06:40:32.999Z</time></trkpt><trkpt lat="43.62237504368175" lon="7.108289276453542"><ele>25.0</ele><time>2026-04-29T06:40:33.999Z</time></trkpt><trkpt lat="43.62229472999534" lon="7.108159438148406"><ele>25.0</ele><time>2026-04-29T06:40:34.999Z</time></trkpt><trkpt lat="43.62221545761107" lon="7.108058949377861"><ele>25.0</ele><time>2026-04-29T06:40:35.999Z</time></trkpt><trkpt lat="43.622165500722105" lon="7.107956138653151"><ele>24.4</ele><time>2026-04-29T06:40:36.999Z</time></trkpt><trkpt lat="43.62216483852035" lon="7.107821178993156"><ele>23.8</ele><time>2026-04-29T06:40:37.999Z</time></trkpt><trkpt lat="43.62215252340955" lon="7.107675315472099"><ele>23.200000000000003</ele><time>2026-04-29T06:40:39Z</time></trkpt><trkpt lat="43.6221264809034" lon="7.107546950484125"><ele>22.6</ele><time>2026-04-29T06:40:40Z</time></trkpt><trkpt lat="43.62211704934148" lon="7.107436985593247"><ele>22.0</ele><time>2026-04-29T06:40:41Z</time></trkpt><trkpt lat="43.62208439377246" lon="7.107295042402444"><ele>22.0</ele><time>2026-04-29T06:40:43Z</time></trkpt><trkpt lat="43.6220732513188" lon="7.107193808883983"><ele>22.0</ele><time>2026-04-29T06:40:49Z</time></trkpt><trkpt lat="43.62214207224259" lon="7.107041297799525"><ele>22.0</ele><time>2026-04-29T06:40:51Z</time></trkpt><trkpt lat="43.62221483006314" lon="7.106943025544873"><ele>22.0</ele><time>2026-04-29T06:40:52Z</time></trkpt><trkpt lat="43.62228947822827" lon="7.106823091924242"><ele>22.0</ele><time>2026-04-29T06:40:53Z</time></trkpt><trkpt lat="43.62236679090103" lon="7.106702072767201"><ele>22.0</ele><time>2026-04-29T06:40:54Z</time></trkpt><trkpt lat="43.62244251679636" lon="7.106582283735739"><ele>22.0</ele><time>2026-04-29T06:40:55Z</time></trkpt><trkpt lat="43.62251058676567" lon="7.106451795399863"><ele>22.0</ele><time>2026-04-29T06:40:56Z</time></trkpt><trkpt lat="43.62257196763928" lon="7.106320829547343"><ele>22.0</ele><time>2026-04-29T06:40:57Z</time></trkpt><trkpt lat="43.62262465314599" lon="7.106189251021366"><ele>21.6</ele><time>2026-04-29T06:40:58Z</time></trkpt><trkpt lat="43.622671833954406" lon="7.106060607486175"><ele>21.200000000000003</ele><time>2026-04-29T06:40:59Z</time></trkpt><trkpt lat="43.622717543620624" lon="7.105939284683698"><ele>20.8</ele><time>2026-04-29T06:41:00Z</time></trkpt><trkpt lat="43.62276286720853" lon="7.105819535855642"><ele>20.4</ele><time>2026-04-29T06:41:01Z</time></trkpt><trkpt lat="43.62280353891248" lon="7.1057077263346295"><ele>20.0</ele><time>2026-04-29T06:41:02Z</time></trkpt><trkpt lat="43.622844550427025" lon="7.105594260361597"><ele>20.0</ele><time>2026-04-29T06:41:03Z</time></trkpt><trkpt lat="43.622885741440406" lon="7.105480385828098"><ele>20.0</ele><time>2026-04-29T06:41:04Z</time></trkpt><trkpt lat="43.6229272895798" lon="7.105365767418455"><ele>20.0</ele><time>2026-04-29T06:41:05Z</time></trkpt><trkpt lat="43.622974040838635" lon="7.105243942459801"><ele>20.0</ele><time>2026-04-29T06:41:06Z</time></trkpt><trkpt lat="43.623024191042475" lon="7.105115064711592"><ele>20.0</ele><time>2026-04-29T06:41:07Z</time></trkpt><trkpt lat="43.623072319042116" lon="7.10500191181824"><ele>19.2</ele><time>2026-04-29T06:41:08Z</time></trkpt><trkpt lat="43.623124561327025" lon="7.104899472734895"><ele>18.4</ele><time>2026-04-29T06:41:09Z</time></trkpt><trkpt lat="43.623186801687375" lon="7.104804556855743"><ele>17.6</ele><time>2026-04-29T06:41:10Z</time></trkpt><trkpt lat="43.62326177066636" lon="7.104707592340415"><ele>16.8</ele><time>2026-04-29T06:41:11Z</time></trkpt><trkpt lat="43.623352593200885" lon="7.104613936078432"><ele>16.0</ele><time>2026-04-29T06:41:12Z</time></trkpt><trkpt lat="43.62344478289163" lon="7.104517737761253"><ele>16.0</ele><time>2026-04-29T06:41:13Z</time></trkpt><trkpt lat="43.623536988337335" lon="7.10443540175011"><ele>16.0</ele><time>2026-04-29T06:41:14Z</time></trkpt><trkpt lat="43.62362812861846" lon="7.1043642034465"><ele>16.0</ele><time>2026-04-29T06:41:15Z</time></trkpt><trkpt lat="43.62372803144629" lon="7.104289580941607"><ele>16.0</ele><time>2026-04-29T06:41:16Z</time></trkpt><trkpt lat="43.62382629193627" lon="7.104214475368232"><ele>16.0</ele><time>2026-04-29T06:41:17Z</time></trkpt><trkpt lat="43.623916415674316" lon="7.104146764132069"><ele>16.2</ele><time>2026-04-29T06:41:18Z</time></trkpt><trkpt lat="43.624002561149354" lon="7.104076719050528"><ele>16.400000000000002</ele><time>2026-04-29T06:41:19Z</time></trkpt><trkpt lat="43.624090660311545" lon="7.104012936732533"><ele>16.6</ele><time>2026-04-29T06:41:20Z</time></trkpt><trkpt lat="43.62417705748728" lon="7.103950097989347"><ele>16.8</ele><time>2026-04-29T06:41:21Z</time></trkpt><trkpt lat="43.62426814140409" lon="7.103884158991043"><ele>17.0</ele><time>2026-04-29T06:41:22Z</time></trkpt><trkpt lat="43.62435079187996" lon="7.103816029474333"><ele>17.0</ele><time>2026-04-29T06:41:23Z</time></trkpt><trkpt lat="43.624420041795624" lon="7.103736346944926"><ele>17.0</ele><time>2026-04-29T06:41:24Z</time></trkpt><trkpt lat="43.624475399800914" lon="7.103646824252329"><ele>17.0</ele><time>2026-04-29T06:41:25Z</time></trkpt><trkpt lat="43.62451418197879" lon="7.103536134153233"><ele>17.0</ele><time>2026-04-29T06:41:26Z</time></trkpt><trkpt lat="43.62454832626066" lon="7.103414944723124"><ele>17.0</ele><time>2026-04-29T06:41:27Z</time></trkpt><trkpt lat="43.62457921126524" lon="7.103291966009027"><ele>17.0</ele><time>2026-04-29T06:41:28Z</time></trkpt><trkpt lat="43.624606935344055" lon="7.10319199473081"><ele>17.0</ele><time>2026-04-29T06:41:29Z</time></trkpt><trkpt lat="43.624634550729695" lon="7.103103085358801"><ele>17.0</ele><time>2026-04-29T06:41:30Z</time></trkpt><trkpt lat="43.624661919088226" lon="7.103019419543836"><ele>17.0</ele><time>2026-04-29T06:41:31Z</time></trkpt><trkpt lat="43.62470200369909" lon="7.102872955415313"><ele>17.0</ele><time>2026-04-29T06:41:33Z</time></trkpt><trkpt lat="43.62473543245771" lon="7.10272711409977"><ele>17.0</ele><time>2026-04-29T06:41:35Z</time></trkpt><trkpt lat="43.624758997775324" lon="7.102636888919038"><ele>17.0</ele><time>2026-04-29T06:41:36Z</time></trkpt><trkpt lat="43.62478347189679" lon="7.102535720564783"><ele>17.0</ele><time>2026-04-29T06:41:37Z</time></trkpt><trkpt lat="43.62480400980696" lon="7.102430589175815"><ele>17.0</ele><time>2026-04-29T06:41:38Z</time></trkpt><trkpt lat="43.62482238978417" lon="7.102320966701423"><ele>17.0</ele><time>2026-04-29T06:41:39Z</time></trkpt><trkpt lat="43.62484378759168" lon="7.102191534587378"><ele>17.0</ele><time>2026-04-29T06:41:40Z</time></trkpt><trkpt lat="43.62486784084083" lon="7.102065486831895"><ele>17.0</ele><time>2026-04-29T06:41:41Z</time></trkpt><trkpt lat="43.62489081033714" lon="7.101948253999767"><ele>17.2</ele><time>2026-04-29T06:41:42Z</time></trkpt><trkpt lat="43.62491351302518" lon="7.101822129180221"><ele>17.4</ele><time>2026-04-29T06:41:43Z</time></trkpt><trkpt lat="43.62493991229555" lon="7.101685764380874"><ele>17.6</ele><time>2026-04-29T06:41:44Z</time></trkpt><trkpt lat="43.62496948426633" lon="7.101547110591171"><ele>17.8</ele><time>2026-04-29T06:41:45Z</time></trkpt><trkpt lat="43.624998408574115" lon="7.101400739134192"><ele>18.0</ele><time>2026-04-29T06:41:46Z</time></trkpt><trkpt lat="43.625025849064" lon="7.101258945623715"><ele>19.0</ele><time>2026-04-29T06:41:47Z</time></trkpt><trkpt lat="43.6250499006136" lon="7.1011197301253866"><ele>20.0</ele><time>2026-04-29T06:41:48Z</time></trkpt><trkpt lat="43.62506837483296" lon="7.100984336166885"><ele>21.0</ele><time>2026-04-29T06:41:49Z</time></trkpt><trkpt lat="43.62508772017621" lon="7.100849398376016"><ele>22.0</ele><time>2026-04-29T06:41:50Z</time></trkpt><trkpt lat="43.62511172414346" lon="7.10071259107378"><ele>23.0</ele><time>2026-04-29T06:41:51Z</time></trkpt><trkpt lat="43.62513936701609" lon="7.100576589624143"><ele>23.0</ele><time>2026-04-29T06:41:52Z</time></trkpt><trkpt lat="43.62516263880882" lon="7.100444098311987"><ele>23.0</ele><time>2026-04-29T06:41:53Z</time></trkpt><trkpt lat="43.62519525940928" lon="7.100322090222091"><ele>23.0</ele><time>2026-04-29T06:41:54Z</time></trkpt><trkpt lat="43.6252367504096" lon="7.100203230744954"><ele>23.0</ele><time>2026-04-29T06:41:55Z</time></trkpt><trkpt lat="43.62528783975002" lon="7.100088754002338"><ele>23.0</ele><time>2026-04-29T06:41:56Z</time></trkpt><trkpt lat="43.62533293923925" lon="7.09997805011396"><ele>26.166666666666668</ele><time>2026-04-29T06:41:57Z</time></trkpt><trkpt lat="43.62537565246925" lon="7.099874309707338"><ele>29.333333333333336</ele><time>2026-04-29T06:41:58Z</time></trkpt><trkpt lat="43.625414322938276" lon="7.099778847964491"><ele>32.5</ele><time>2026-04-29T06:41:59Z</time></trkpt><trkpt lat="43.62545940551299" lon="7.099680025767265"><ele>35.666666666666664</ele><time>2026-04-29T06:42:00Z</time></trkpt><trkpt lat="43.625499624273715" lon="7.099576111764233"><ele>38.833333333333336</ele><time>2026-04-29T06:42:01Z</time></trkpt><trkpt lat="43.62553863644264" lon="7.099480263265862"><ele>42.0</ele><time>2026-04-29T06:42:02Z</time></trkpt><trkpt lat="43.62557798378401" lon="7.099381882062653"><ele>42.0</ele><time>2026-04-29T06:42:03Z</time></trkpt><trkpt lat="43.625616821721934" lon="7.099287255141889"><ele>42.0</ele><time>2026-04-29T06:42:04Z</time></trkpt><trkpt lat="43.625654245347626" lon="7.099194842891935"><ele>42.0</ele><time>2026-04-29T06:42:05Z</time></trkpt><trkpt lat="43.625689751846984" lon="7.099097796689456"><ele>42.0</ele><time>2026-04-29T06:42:06Z</time></trkpt><trkpt lat="43.62573137499487" lon="7.098992418522865"><ele>42.0</ele><time>2026-04-29T06:42:07Z</time></trkpt><trkpt lat="43.62577288482502" lon="7.098884224221375"><ele>42.0</ele><time>2026-04-29T06:42:08Z</time></trkpt><trkpt lat="43.625816525492844" lon="7.098768093730985"><ele>39.800000000000004</ele><time>2026-04-29T06:42:09Z</time></trkpt><trkpt lat="43.62586196600263" lon="7.098651025301561"><ele>37.6</ele><time>2026-04-29T06:42:10Z</time></trkpt><trkpt lat="43.62590771595468" lon="7.098533607583868"><ele>35.400000000000006</ele><time>2026-04-29T06:42:11Z</time></trkpt><trkpt lat="43.62595461012617" lon="7.098411574821762"><ele>33.2</ele><time>2026-04-29T06:42:12Z</time></trkpt><trkpt lat="43.62600577564229" lon="7.098289455860471"><ele>31.0</ele><time>2026-04-29T06:42:13Z</time></trkpt><trkpt lat="43.626053514723154" lon="7.0981688073241695"><ele>30.200000000000003</ele><time>2026-04-29T06:42:14Z</time></trkpt><trkpt lat="43.62609325515378" lon="7.098051672642833"><ele>29.400000000000002</ele><time>2026-04-29T06:42:15Z</time></trkpt><trkpt lat="43.626126423289925" lon="7.097938709285412"><ele>28.6</ele><time>2026-04-29T06:42:16Z</time></trkpt><trkpt lat="43.626151052906856" lon="7.097817995282187"><ele>27.8</ele><time>2026-04-29T06:42:17Z</time></trkpt><trkpt lat="43.626170442693706" lon="7.097684996826188"><ele>27.0</ele><time>2026-04-29T06:42:18Z</time></trkpt><trkpt lat="43.626190703115086" lon="7.097543919964029"><ele>30.0</ele><time>2026-04-29T06:42:19Z</time></trkpt><trkpt lat="43.62619843572774" lon="7.097411846780741"><ele>33.0</ele><time>2026-04-29T06:42:20Z</time></trkpt><trkpt lat="43.626203795492856" lon="7.0972944074939806"><ele>36.0</ele><time>2026-04-29T06:42:21Z</time></trkpt><trkpt lat="43.62620746624806" lon="7.097194382384763"><ele>39.0</ele><time>2026-04-29T06:42:22Z</time></trkpt><trkpt lat="43.62620805611963" lon="7.097051988518294"><ele>42.0</ele><time>2026-04-29T06:42:24Z</time></trkpt><trkpt lat="43.62620552836541" lon="7.0969516516274975"><ele>45.0</ele><time>2026-04-29T06:42:26Z</time></trkpt><trkpt lat="43.62619243955875" lon="7.0968606701645776"><ele>45.0</ele><time>2026-04-29T06:42:57Z</time></trkpt><trkpt lat="43.6262015486767" lon="7.0967300950390895"><ele>45.0</ele><time>2026-04-29T06:42:59Z</time></trkpt><trkpt lat="43.626054582678876" lon="7.096675039072241"><ele>45.0</ele><time>2026-04-29T06:43:01Z</time></trkpt><trkpt lat="43.625987943070484" lon="7.096689373638727"><ele>45.0</ele><time>2026-04-29T06:43:02Z</time></trkpt><trkpt lat="43.625917597907694" lon="7.096715402808434"><ele>45.0</ele><time>2026-04-29T06:43:03Z</time></trkpt><trkpt lat="43.625841919052185" lon="7.096711731363847"><ele>42.333333333333336</ele><time>2026-04-29T06:43:04Z</time></trkpt><trkpt lat="43.62576399984403" lon="7.0967497211811645"><ele>39.666666666666664</ele><time>2026-04-29T06:43:05Z</time></trkpt><trkpt lat="43.62567925837" lon="7.09676359430779"><ele>37.0</ele><time>2026-04-29T06:43:06Z</time></trkpt><trkpt lat="43.625591162164476" lon="7.096780560124549"><ele>34.33333333333333</ele><time>2026-04-29T06:43:07Z</time></trkpt><trkpt lat="43.62550088943526" lon="7.096799091501018"><ele>31.666666666666664</ele><time>2026-04-29T06:43:08Z</time></trkpt><trkpt lat="43.62540415421883" lon="7.096818819946013"><ele>29.0</ele><time>2026-04-29T06:43:09Z</time></trkpt><trkpt lat="43.62530368360684" lon="7.09684640325837"><ele>27.4</ele><time>2026-04-29T06:43:10Z</time></trkpt><trkpt lat="43.62520382613864" lon="7.096873864590006"><ele>25.799999999999997</ele><time>2026-04-29T06:43:11Z</time></trkpt><trkpt lat="43.62510920569831" lon="7.096914247573627"><ele>24.200000000000003</ele><time>2026-04-29T06:43:12Z</time></trkpt><trkpt lat="43.625022302728794" lon="7.096954201840949"><ele>22.6</ele><time>2026-04-29T06:43:13Z</time></trkpt><trkpt lat="43.62492721990553" lon="7.096994068752952"><ele>21.0</ele><time>2026-04-29T06:43:14Z</time></trkpt><trkpt lat="43.62483222501368" lon="7.097035450949041"><ele>21.0</ele><time>2026-04-29T06:43:15Z</time></trkpt><trkpt lat="43.624737327828925" lon="7.097068546713587"><ele>21.0</ele><time>2026-04-29T06:43:16Z</time></trkpt><trkpt lat="43.62464103528555" lon="7.09707858618297"><ele>21.0</ele><time>2026-04-29T06:43:17Z</time></trkpt><trkpt lat="43.624541795935976" lon="7.097106639704864"><ele>21.0</ele><time>2026-04-29T06:43:18Z</time></trkpt><trkpt lat="43.62444105638719" lon="7.097136398879426"><ele>21.0</ele><time>2026-04-29T06:43:19Z</time></trkpt><trkpt lat="43.624338277251134" lon="7.097166490522346"><ele>20.2</ele><time>2026-04-29T06:43:20Z</time></trkpt><trkpt lat="43.62423894591457" lon="7.097207354531254"><ele>19.400000000000002</ele><time>2026-04-29T06:43:21Z</time></trkpt><trkpt lat="43.6241510452349" lon="7.097272295540092"><ele>18.6</ele><time>2026-04-29T06:43:22Z</time></trkpt><trkpt lat="43.6240840275156" lon="7.097363652956698"><ele>17.8</ele><time>2026-04-29T06:43:23Z</time></trkpt><trkpt lat="43.62403032101689" lon="7.097474265341653"><ele>17.0</ele><time>2026-04-29T06:43:24Z</time></trkpt><trkpt lat="43.62397847119965" lon="7.097590488053482"><ele>17.0</ele><time>2026-04-29T06:43:25Z</time></trkpt><trkpt lat="43.623925166452906" lon="7.097699794348881"><ele>17.0</ele><time>2026-04-29T06:43:26Z</time></trkpt><trkpt lat="43.62387284138682" lon="7.0978087929926525"><ele>17.0</ele><time>2026-04-29T06:43:27Z</time></trkpt><trkpt lat="43.62382086278358" lon="7.0979109313786575"><ele>17.0</ele><time>2026-04-29T06:43:28Z</time></trkpt><trkpt lat="43.62377091177946" lon="7.09801437111826"><ele>17.0</ele><time>2026-04-29T06:43:29Z</time></trkpt><trkpt lat="43.62372166579862" lon="7.0981121302021934"><ele>17.0</ele><time>2026-04-29T06:43:30Z</time></trkpt><trkpt lat="43.62367273445615" lon="7.0982045857392"><ele>17.0</ele><time>2026-04-29T06:43:31Z</time></trkpt><trkpt lat="43.6236257516202" lon="7.098294005829858"><ele>17.0</ele><time>2026-04-29T06:43:32Z</time></trkpt><trkpt lat="43.623581737875696" lon="7.098378426624292"><ele>17.0</ele><time>2026-04-29T06:43:33Z</time></trkpt><trkpt lat="43.62353662482158" lon="7.098464666107153"><ele>17.0</ele><time>2026-04-29T06:43:34Z</time></trkpt><trkpt lat="43.623489630949834" lon="7.0985680146051635"><ele>17.0</ele><time>2026-04-29T06:43:35Z</time></trkpt><trkpt lat="43.62344609291504" lon="7.098664834146562"><ele>17.0</ele><time>2026-04-29T06:43:36Z</time></trkpt><trkpt lat="43.623414250834124" lon="7.09876475836028"><ele>17.0</ele><time>2026-04-29T06:43:37Z</time></trkpt><trkpt lat="43.62338567188001" lon="7.09886549951464"><ele>17.0</ele><time>2026-04-29T06:43:38Z</time></trkpt><trkpt lat="43.62335350206856" lon="7.098961900407376"><ele>17.0</ele><time>2026-04-29T06:43:39Z</time></trkpt><trkpt lat="43.62330881615797" lon="7.099041977490948"><ele>17.0</ele><time>2026-04-29T06:43:40Z</time></trkpt><trkpt lat="43.623244108834584" lon="7.099088189623579"><ele>17.0</ele><time>2026-04-29T06:43:41Z</time></trkpt><trkpt lat="43.62316504348509" lon="7.099100518747537"><ele>17.0</ele><time>2026-04-29T06:43:42Z</time></trkpt><trkpt lat="43.623073551419616" lon="7.099099024420623"><ele>17.0</ele><time>2026-04-29T06:43:43Z</time></trkpt><trkpt lat="43.62297547855936" lon="7.099095896177368"><ele>17.0</ele><time>2026-04-29T06:43:44Z</time></trkpt><trkpt lat="43.62287917210831" lon="7.099108824347909"><ele>17.0</ele><time>2026-04-29T06:43:45Z</time></trkpt><trkpt lat="43.622785451946925" lon="7.099142211775289"><ele>17.0</ele><time>2026-04-29T06:43:46Z</time></trkpt><trkpt lat="43.62269213981804" lon="7.099197478919267"><ele>17.666666666666668</ele><time>2026-04-29T06:43:47Z</time></trkpt><trkpt lat="43.62260673279492" lon="7.099280902954813"><ele>18.333333333333336</ele><time>2026-04-29T06:43:48Z</time></trkpt><trkpt lat="43.622526966434734" lon="7.099367428095115"><ele>19.0</ele><time>2026-04-29T06:43:49Z</time></trkpt><trkpt lat="43.622454901050446" lon="7.099448248896616"><ele>19.666666666666668</ele><time>2026-04-29T06:43:50Z</time></trkpt><trkpt lat="43.62239064906869" lon="7.099517612174452"><ele>20.333333333333332</ele><time>2026-04-29T06:43:51Z</time></trkpt><trkpt lat="43.62233732544274" lon="7.099564890961768"><ele>21.0</ele><time>2026-04-29T06:43:52Z</time></trkpt><trkpt lat="43.62225522121435" lon="7.099581038952014"><ele>21.0</ele><time>2026-04-29T06:43:54Z</time></trkpt><trkpt lat="43.62219209054999" lon="7.099500538083654"><ele>21.0</ele><time>2026-04-29T06:43:55Z</time></trkpt><trkpt lat="43.62207996830779" lon="7.099450520615299"><ele>21.0</ele><time>2026-04-29T06:43:57Z</time></trkpt><trkpt lat="43.62199546695176" lon="7.099436194979903"><ele>21.0</ele><time>2026-04-29T06:43:58Z</time></trkpt><trkpt lat="43.62190261826719" lon="7.099406659713877"><ele>21.0</ele><time>2026-04-29T06:43:59Z</time></trkpt><trkpt lat="43.62179312787038" lon="7.0993789467244"><ele>22.6</ele><time>2026-04-29T06:44:00Z</time></trkpt><trkpt lat="43.62169225447398" lon="7.099345270809308"><ele>24.200000000000003</ele><time>2026-04-29T06:44:01Z</time></trkpt><trkpt lat="43.62161640634025" lon="7.099303414057745"><ele>25.799999999999997</ele><time>2026-04-29T06:44:02Z</time></trkpt><trkpt lat="43.621549176705116" lon="7.0992805445211955"><ele>27.4</ele><time>2026-04-29T06:44:03Z</time></trkpt><trkpt lat="43.6214575986835" lon="7.099201481860149"><ele>29.0</ele><time>2026-04-29T06:44:05Z</time></trkpt><trkpt lat="43.62150574005883" lon="7.0990432150993765"><ele>32.0</ele><time>2026-04-29T06:44:07Z</time></trkpt><trkpt lat="43.621594367534215" lon="7.09904675957281"><ele>35.0</ele><time>2026-04-29T06:44:08Z</time></trkpt><trkpt lat="43.62167479798941" lon="7.098986633133184"><ele>38.0</ele><time>2026-04-29T06:44:09Z</time></trkpt><trkpt lat="43.62176619353269" lon="7.098945651845042"><ele>41.0</ele><time>2026-04-29T06:44:10Z</time></trkpt><trkpt lat="43.62185771122358" lon="7.098876587313344"><ele>44.0</ele><time>2026-04-29T06:44:11Z</time></trkpt><trkpt lat="43.62191930336544" lon="7.098786190050248"><ele>44.0</ele><time>2026-04-29T06:44:12Z</time></trkpt><trkpt lat="43.62195256194811" lon="7.0986903131586745"><ele>44.0</ele><time>2026-04-29T06:44:13Z</time></trkpt><trkpt lat="43.62197567447204" lon="7.098596056909792"><ele>44.0</ele><time>2026-04-29T06:44:14Z</time></trkpt><trkpt lat="43.62194137665674" lon="7.098474716604396"><ele>44.0</ele><time>2026-04-29T06:44:15Z</time></trkpt><trkpt lat="43.62184574050853" lon="7.09839598177107"><ele>44.0</ele><time>2026-04-29T06:44:16Z</time></trkpt><trkpt lat="43.62172731702021" lon="7.098406774388687"><ele>44.0</ele><time>2026-04-29T06:44:17Z</time></trkpt><trkpt lat="43.62162444782289" lon="7.098372362247247"><ele>44.0</ele><time>2026-04-29T06:44:18Z</time></trkpt><trkpt lat="43.62151343358051" lon="7.098368980595921"><ele>44.0</ele><time>2026-04-29T06:44:19Z</time></trkpt><trkpt lat="43.621401330526886" lon="7.0983311868227705"><ele>44.0</ele><time>2026-04-29T06:44:20Z</time></trkpt><trkpt lat="43.621300459934936" lon="7.098310250552419"><ele>44.0</ele><time>2026-04-29T06:44:21Z</time></trkpt><trkpt lat="43.62122452594161" lon="7.098291771771129"><ele>43.83333333333333</ele><time>2026-04-29T06:44:22Z</time></trkpt><trkpt lat="43.62112524145062" lon="7.0982725242793485"><ele>43.666666666666664</ele><time>2026-04-29T06:44:24Z</time></trkpt><trkpt lat="43.62107532337972" lon="7.0981819958969385"><ele>43.5</ele><time>2026-04-29T06:44:26Z</time></trkpt><trkpt lat="43.62112282438091" lon="7.098051698571036"><ele>43.333333333333336</ele><time>2026-04-29T06:44:28Z</time></trkpt><trkpt lat="43.621191329081405" lon="7.0980114364889015"><ele>43.16666666666667</ele><time>2026-04-29T06:44:29Z</time></trkpt><trkpt lat="43.621272730758506" lon="7.09798795048917"><ele>43.0</ele><time>2026-04-29T06:44:30Z</time></trkpt><trkpt lat="43.62136620618808" lon="7.097966905505352"><ele>44.16666666666667</ele><time>2026-04-29T06:44:31Z</time></trkpt><trkpt lat="43.62143974228641" lon="7.097929670662439"><ele>45.333333333333336</ele><time>2026-04-29T06:44:32Z</time></trkpt><trkpt lat="43.621508644324145" lon="7.097785964644481"><ele>46.5</ele><time>2026-04-29T06:44:34Z</time></trkpt><trkpt lat="43.62145453142581" lon="7.097690191157183"><ele>47.66666666666667</ele><time>2026-04-29T06:44:35Z</time></trkpt><trkpt lat="43.62138986515292" lon="7.097626597967919"><ele>48.833333333333336</ele><time>2026-04-29T06:44:36Z</time></trkpt><trkpt lat="43.62131818561871" lon="7.097625661395058"><ele>50.0</ele><time>2026-04-29T06:44:37Z</time></trkpt><trkpt lat="43.62123934168901" lon="7.097666736093092"><ele>50.00000000000001</ele><time>2026-04-29T06:44:38Z</time></trkpt><trkpt lat="43.62115149591159" lon="7.097682110621354"><ele>50.0</ele><time>2026-04-29T06:44:39Z</time></trkpt><trkpt lat="43.6210499161113" lon="7.097698570488816"><ele>50.0</ele><time>2026-04-29T06:44:40Z</time></trkpt><trkpt lat="43.62094512019393" lon="7.0977127407608585"><ele>50.0</ele><time>2026-04-29T06:44:41Z</time></trkpt><trkpt lat="43.62086120820034" lon="7.097718478742811"><ele>50.00000000000001</ele><time>2026-04-29T06:44:42Z</time></trkpt><trkpt lat="43.620792545499654" lon="7.0977112427280415"><ele>50.0</ele><time>2026-04-29T06:44:43Z</time></trkpt><trkpt lat="43.62067527278927" lon="7.0976621644673585"><ele>51.16666666666667</ele><time>2026-04-29T06:44:45Z</time></trkpt><trkpt lat="43.620623332448396" lon="7.09758955714135"><ele>52.333333333333336</ele><time>2026-04-29T06:44:46Z</time></trkpt><trkpt lat="43.62061328783768" lon="7.097480819950446"><ele>53.5</ele><time>2026-04-29T06:44:47Z</time></trkpt><trkpt lat="43.62060401271036" lon="7.0973595482786305"><ele>54.66666666666667</ele><time>2026-04-29T06:44:48Z</time></trkpt><trkpt lat="43.62057834909901" lon="7.097221992722243"><ele>55.833333333333336</ele><time>2026-04-29T06:44:49Z</time></trkpt><trkpt lat="43.620567377265225" lon="7.097089727485646"><ele>57.0</ele><time>2026-04-29T06:44:50Z</time></trkpt><trkpt lat="43.62055704136731" lon="7.096982835898823"><ele>58.2</ele><time>2026-04-29T06:44:51.001Z</time></trkpt><trkpt lat="43.62053956353685" lon="7.096885851392975"><ele>59.400000000000006</ele><time>2026-04-29T06:44:52.001Z</time></trkpt><trkpt lat="43.62052306320849" lon="7.096719542435197"><ele>60.599999999999994</ele><time>2026-04-29T06:44:54.001Z</time></trkpt><trkpt lat="43.62053406308015" lon="7.096595860624686"><ele>61.8</ele><time>2026-04-29T06:44:56.001Z</time></trkpt><trkpt lat="43.620570594097074" lon="7.096446468565347"><ele>63.0</ele><time>2026-04-29T06:44:58.001Z</time></trkpt><trkpt lat="43.620577396916524" lon="7.096347910214289"><ele>63.4</ele><time>2026-04-29T06:44:59.001Z</time></trkpt><trkpt lat="43.62059917508975" lon="7.096261632769022"><ele>63.8</ele><time>2026-04-29T06:45:00.001Z</time></trkpt><trkpt lat="43.620629137504764" lon="7.096124778852433"><ele>64.2</ele><time>2026-04-29T06:45:02.001Z</time></trkpt><trkpt lat="43.62063548320995" lon="7.095988680965069"><ele>64.6</ele><time>2026-04-29T06:45:04.001Z</time></trkpt><trkpt lat="43.62063139141823" lon="7.09585544951954"><ele>65.0</ele><time>2026-04-29T06:45:06Z</time></trkpt><trkpt lat="43.62064122671578" lon="7.09572869201156"><ele>66.0</ele><time>2026-04-29T06:45:08Z</time></trkpt><trkpt lat="43.620612845529784" lon="7.0955761301085065"><ele>67.0</ele><time>2026-04-29T06:45:10Z</time></trkpt><trkpt lat="43.62059360647132" lon="7.0954205301711175"><ele>68.0</ele><time>2026-04-29T06:45:12Z</time></trkpt><trkpt lat="43.62053427112329" lon="7.095275740453494"><ele>69.0</ele><time>2026-04-29T06:45:14Z</time></trkpt><trkpt lat="43.62045121732588" lon="7.095148846046325"><ele>69.0</ele><time>2026-04-29T06:45:16Z</time></trkpt><trkpt lat="43.62038523789921" lon="7.095103330172116"><ele>69.0</ele><time>2026-04-29T06:45:17Z</time></trkpt><trkpt lat="43.6203141385092" lon="7.095062528675607"><ele>69.0</ele><time>2026-04-29T06:45:18Z</time></trkpt><trkpt lat="43.62023193956465" lon="7.09502090062577"><ele>69.0</ele><time>2026-04-29T06:45:19Z</time></trkpt><trkpt lat="43.620145166062166" lon="7.094979637589048"><ele>69.0</ele><time>2026-04-29T06:45:20Z</time></trkpt><trkpt lat="43.62006855323271" lon="7.094948751135845"><ele>69.0</ele><time>2026-04-29T06:45:21Z</time></trkpt><trkpt lat="43.61998987605092" lon="7.094905591683414"><ele>71.2</ele><time>2026-04-29T06:45:22Z</time></trkpt><trkpt lat="43.61990819819424" lon="7.094863975771256"><ele>73.4</ele><time>2026-04-29T06:45:23Z</time></trkpt><trkpt lat="43.619824573430925" lon="7.094828240302776"><ele>75.6</ele><time>2026-04-29T06:45:24Z</time></trkpt><trkpt lat="43.61972859037925" lon="7.094763855953301"><ele>77.8</ele><time>2026-04-29T06:45:25Z</time></trkpt><trkpt lat="43.61963729989855" lon="7.094694525386156"><ele>80.0</ele><time>2026-04-29T06:45:26Z</time></trkpt><trkpt lat="43.61955350165889" lon="7.094617190135014"><ele>78.6</ele><time>2026-04-29T06:45:27Z</time></trkpt><trkpt lat="43.61946824329519" lon="7.09453722323586"><ele>77.2</ele><time>2026-04-29T06:45:28Z</time></trkpt><trkpt lat="43.61938618549416" lon="7.094450880926252"><ele>75.8</ele><time>2026-04-29T06:45:29Z</time></trkpt><trkpt lat="43.61930673773585" lon="7.094360432880527"><ele>74.4</ele><time>2026-04-29T06:45:30Z</time></trkpt><trkpt lat="43.619240081332144" lon="7.094246330238523"><ele>73.0</ele><time>2026-04-29T06:45:31Z</time></trkpt><trkpt lat="43.61917996896004" lon="7.094114199827143"><ele>76.0</ele><time>2026-04-29T06:45:32Z</time></trkpt><trkpt lat="43.61912424286502" lon="7.093970553736995"><ele>79.0</ele><time>2026-04-29T06:45:33Z</time></trkpt><trkpt lat="43.619052995916284" lon="7.093827787709944"><ele>82.0</ele><time>2026-04-29T06:45:34Z</time></trkpt><trkpt lat="43.61898072171869" lon="7.093690915162117"><ele>85.0</ele><time>2026-04-29T06:45:35Z</time></trkpt><trkpt lat="43.618907804051126" lon="7.093569494120918"><ele>85.0</ele><time>2026-04-29T06:45:36Z</time></trkpt><trkpt lat="43.61884569372654" lon="7.093446116392312"><ele>85.0</ele><time>2026-04-29T06:45:37Z</time></trkpt><trkpt lat="43.61879724306837" lon="7.093310105032648"><ele>85.0</ele><time>2026-04-29T06:45:38Z</time></trkpt><trkpt lat="43.618753060804316" lon="7.093177105617328"><ele>85.0</ele><time>2026-04-29T06:45:39Z</time></trkpt><trkpt lat="43.618712966112255" lon="7.093039463942899"><ele>85.0</ele><time>2026-04-29T06:45:40Z</time></trkpt><trkpt lat="43.618701220705184" lon="7.092888276126481"><ele>84.0</ele><time>2026-04-29T06:45:41Z</time></trkpt><trkpt lat="43.61866218639946" lon="7.092748368855084"><ele>83.0</ele><time>2026-04-29T06:45:42Z</time></trkpt><trkpt lat="43.61864338048035" lon="7.092593100586937"><ele>82.0</ele><time>2026-04-29T06:45:43Z</time></trkpt><trkpt lat="43.618629062986955" lon="7.092453630115152"><ele>81.0</ele><time>2026-04-29T06:45:44Z</time></trkpt><trkpt lat="43.61861267517378" lon="7.092307810842971"><ele>80.0</ele><time>2026-04-29T06:45:45Z</time></trkpt><trkpt lat="43.61858624438518" lon="7.092190769956676"><ele>82.2</ele><time>2026-04-29T06:45:46Z</time></trkpt><trkpt lat="43.61856277957237" lon="7.092072108921198"><ele>84.4</ele><time>2026-04-29T06:45:47Z</time></trkpt><trkpt lat="43.618531736779744" lon="7.091943788616671"><ele>86.6</ele><time>2026-04-29T06:45:48Z</time></trkpt><trkpt lat="43.61850399899233" lon="7.091829724926487"><ele>88.8</ele><time>2026-04-29T06:45:49Z</time></trkpt><trkpt lat="43.61844978760179" lon="7.0916758200767"><ele>91.0</ele><time>2026-04-29T06:45:51Z</time></trkpt><trkpt lat="43.618406608608595" lon="7.09154753677609"><ele>92.33333333333333</ele><time>2026-04-29T06:45:53Z</time></trkpt><trkpt lat="43.618390326627726" lon="7.091456367399781"><ele>93.66666666666666</ele><time>2026-04-29T06:45:55Z</time></trkpt><trkpt lat="43.618371997945694" lon="7.091347736859351"><ele>95.0</ele><time>2026-04-29T06:45:57Z</time></trkpt><trkpt lat="43.61833801105272" lon="7.091247914434132"><ele>96.33333333333333</ele><time>2026-04-29T06:45:59Z</time></trkpt><trkpt lat="43.61829026450195" lon="7.091128443390018"><ele>97.66666666666667</ele><time>2026-04-29T06:46:01Z</time></trkpt><trkpt lat="43.618233028912464" lon="7.0910085525981925"><ele>99.0</ele><time>2026-04-29T06:46:03Z</time></trkpt><trkpt lat="43.61818491717766" lon="7.09089286497438"><ele>99.0</ele><time>2026-04-29T06:46:05Z</time></trkpt><trkpt lat="43.6181428606366" lon="7.090758404879873"><ele>99.0</ele><time>2026-04-29T06:46:07Z</time></trkpt><trkpt lat="43.618100085601846" lon="7.090614011896828"><ele>99.0</ele><time>2026-04-29T06:46:09Z</time></trkpt><trkpt lat="43.61809034744788" lon="7.090526720716217"><ele>99.0</ele><time>2026-04-29T06:46:10Z</time></trkpt><trkpt lat="43.618035234843994" lon="7.09038460789377"><ele>99.0</ele><time>2026-04-29T06:46:12Z</time></trkpt><trkpt lat="43.618031303157146" lon="7.090290746665211"><ele>99.57142857142857</ele><time>2026-04-29T06:46:13Z</time></trkpt><trkpt lat="43.61803248204676" lon="7.090191548388095"><ele>100.14285714285714</ele><time>2026-04-29T06:46:14Z</time></trkpt><trkpt lat="43.61804494728143" lon="7.0900919733941326"><ele>100.71428571428571</ele><time>2026-04-29T06:46:15Z</time></trkpt><trkpt lat="43.61805717023458" lon="7.090000500244819"><ele>101.28571428571428</ele><time>2026-04-29T06:46:16Z</time></trkpt><trkpt lat="43.618071304423616" lon="7.089915641953172"><ele>101.85714285714286</ele><time>2026-04-29T06:46:17Z</time></trkpt><trkpt lat="43.61808695196884" lon="7.089824757454715"><ele>102.42857142857142</ele><time>2026-04-29T06:46:18Z</time></trkpt><trkpt lat="43.618117426209444" lon="7.08974361072934"><ele>103.0</ele><time>2026-04-29T06:46:19Z</time></trkpt><trkpt lat="43.6181325994804" lon="7.089569355053187"><ele>103.80000000000001</ele><time>2026-04-29T06:46:21Z</time></trkpt><trkpt lat="43.61811338996294" lon="7.089478421495289"><ele>104.6</ele><time>2026-04-29T06:46:22Z</time></trkpt><trkpt lat="43.618076131812586" lon="7.089386560393262"><ele>105.39999999999999</ele><time>2026-04-29T06:46:23Z</time></trkpt><trkpt lat="43.61802014456135" lon="7.0893169888760985"><ele>106.19999999999999</ele><time>2026-04-29T06:46:24Z</time></trkpt><trkpt lat="43.61791570175239" lon="7.089189475161874"><ele>107.0</ele><time>2026-04-29T06:46:26Z</time></trkpt><trkpt lat="43.617862652404575" lon="7.089056826152317"><ele>108.19999999999999</ele><time>2026-04-29T06:46:28Z</time></trkpt><trkpt lat="43.617832785466895" lon="7.08897026436198"><ele>109.39999999999999</ele><time>2026-04-29T06:46:29Z</time></trkpt><trkpt lat="43.6177876213291" lon="7.088816747743385"><ele>110.60000000000001</ele><time>2026-04-29T06:46:31Z</time></trkpt><trkpt lat="43.61774200015244" lon="7.088641325567296"><ele>111.80000000000001</ele><time>2026-04-29T06:46:33Z</time></trkpt><trkpt lat="43.6177179181021" lon="7.088538192845242"><ele>113.0</ele><time>2026-04-29T06:46:34Z</time></trkpt><trkpt lat="43.61769838096793" lon="7.088445725276247"><ele>110.0</ele><time>2026-04-29T06:46:35Z</time></trkpt><trkpt lat="43.61768474608788" lon="7.088358959946997"><ele>107.00000000000001</ele><time>2026-04-29T06:46:36Z</time></trkpt><trkpt lat="43.61766510841864" lon="7.088202502774484"><ele>104.0</ele><time>2026-04-29T06:46:38Z</time></trkpt><trkpt lat="43.61762834771257" lon="7.088045820317959"><ele>101.0</ele><time>2026-04-29T06:46:40Z</time></trkpt><trkpt lat="43.617603216549426" lon="7.087881581608648"><ele>98.0</ele><time>2026-04-29T06:46:42Z</time></trkpt><trkpt lat="43.61757477377987" lon="7.08771403359796"><ele>97.99999999999999</ele><time>2026-04-29T06:46:44Z</time></trkpt><trkpt lat="43.617542592828705" lon="7.087553875956333"><ele>98.0</ele><time>2026-04-29T06:46:46Z</time></trkpt><trkpt lat="43.617528421183316" lon="7.087458510731605"><ele>98.0</ele><time>2026-04-29T06:46:47Z</time></trkpt><trkpt lat="43.61750705011944" lon="7.087359174330493"><ele>98.0</ele><time>2026-04-29T06:46:48Z</time></trkpt><trkpt lat="43.61748569996305" lon="7.087261440582792"><ele>97.99999999999999</ele><time>2026-04-29T06:46:49Z</time></trkpt><trkpt lat="43.61746204604326" lon="7.087159539714172"><ele>98.0</ele><time>2026-04-29T06:46:50Z</time></trkpt><trkpt lat="43.61744056947293" lon="7.08705605232578"><ele>97.99999999999999</ele><time>2026-04-29T06:46:51Z</time></trkpt><trkpt lat="43.617416666544116" lon="7.086961587296746"><ele>98.0</ele><time>2026-04-29T06:46:52Z</time></trkpt><trkpt lat="43.617387643645486" lon="7.086861567086184"><ele>98.0</ele><time>2026-04-29T06:46:53Z</time></trkpt><trkpt lat="43.61736317117079" lon="7.0867663184450755"><ele>98.0</ele><time>2026-04-29T06:46:54Z</time></trkpt><trkpt lat="43.61733534099956" lon="7.086663973925018"><ele>97.99999999999999</ele><time>2026-04-29T06:46:55Z</time></trkpt><trkpt lat="43.61731591496834" lon="7.086559659444524"><ele>98.0</ele><time>2026-04-29T06:46:56Z</time></trkpt><trkpt lat="43.61730735501942" lon="7.086444159052039"><ele>98.0</ele><time>2026-04-29T06:46:57.001Z</time></trkpt><trkpt lat="43.617301686391535" lon="7.086332403366679"><ele>98.0</ele><time>2026-04-29T06:46:58.001Z</time></trkpt><trkpt lat="43.61731104990482" lon="7.086204714656993"><ele>98.0</ele><time>2026-04-29T06:46:59.001Z</time></trkpt><trkpt lat="43.61732934473445" lon="7.086070383318085"><ele>98.0</ele><time>2026-04-29T06:47:00.001Z</time></trkpt><trkpt lat="43.61735794621622" lon="7.085948547872552"><ele>98.0</ele><time>2026-04-29T06:47:01.001Z</time></trkpt><trkpt lat="43.6173911254034" lon="7.085827313153873"><ele>97.60000000000001</ele><time>2026-04-29T06:47:02Z</time></trkpt><trkpt lat="43.617430758397624" lon="7.085710397983735"><ele>97.2</ele><time>2026-04-29T06:47:03Z</time></trkpt><trkpt lat="43.61744965559942" lon="7.085603963055776"><ele>96.8</ele><time>2026-04-29T06:47:04Z</time></trkpt><trkpt lat="43.61743003406847" lon="7.08547789044468"><ele>96.4</ele><time>2026-04-29T06:47:05Z</time></trkpt><trkpt lat="43.617398975842335" lon="7.0853499836888805"><ele>96.0</ele><time>2026-04-29T06:47:06Z</time></trkpt><trkpt lat="43.617304085151225" lon="7.085255636871931"><ele>96.0</ele><time>2026-04-29T06:47:07Z</time></trkpt><trkpt lat="43.61721660859521" lon="7.085155867008626"><ele>96.0</ele><time>2026-04-29T06:47:08Z</time></trkpt><trkpt lat="43.61714726589145" lon="7.085027745362089"><ele>96.0</ele><time>2026-04-29T06:47:09Z</time></trkpt><trkpt lat="43.61705581029763" lon="7.084930597432137"><ele>96.0</ele><time>2026-04-29T06:47:10Z</time></trkpt><trkpt lat="43.61697139610779" lon="7.084810411454017"><ele>98.25</ele><time>2026-04-29T06:47:11Z</time></trkpt><trkpt lat="43.61689763066152" lon="7.084681956414661"><ele>100.5</ele><time>2026-04-29T06:47:12Z</time></trkpt><trkpt lat="43.616816558108475" lon="7.084544617293812"><ele>102.75</ele><time>2026-04-29T06:47:13Z</time></trkpt><trkpt lat="43.61673733873145" lon="7.0844000164961844"><ele>105.0</ele><time>2026-04-29T06:47:14Z</time></trkpt><trkpt lat="43.616653452615736" lon="7.084276969464949"><ele>105.0</ele><time>2026-04-29T06:47:15Z</time></trkpt><trkpt lat="43.61657989144265" lon="7.084157017915782"><ele>105.0</ele><time>2026-04-29T06:47:16Z</time></trkpt><trkpt lat="43.61650662406488" lon="7.084035735198873"><ele>105.0</ele><time>2026-04-29T06:47:17Z</time></trkpt><trkpt lat="43.61644150147853" lon="7.083925858614033"><ele>105.0</ele><time>2026-04-29T06:47:18Z</time></trkpt><trkpt lat="43.61636478398171" lon="7.083830248649078"><ele>105.0</ele><time>2026-04-29T06:47:19Z</time></trkpt><trkpt lat="43.61628948144493" lon="7.083748283398919"><ele>105.33333333333333</ele><time>2026-04-29T06:47:20Z</time></trkpt><trkpt lat="43.61622255935663" lon="7.083668014459692"><ele>105.66666666666666</ele><time>2026-04-29T06:47:21Z</time></trkpt><trkpt lat="43.61616322280963" lon="7.083594927916496"><ele>106.0</ele><time>2026-04-29T06:47:22Z</time></trkpt><trkpt lat="43.61611270788385" lon="7.083528339398173"><ele>106.33333333333333</ele><time>2026-04-29T06:47:23Z</time></trkpt><trkpt lat="43.61603340199849" lon="7.083443493550204"><ele>106.66666666666666</ele><time>2026-04-29T06:47:25Z</time></trkpt><trkpt lat="43.615979918946394" lon="7.083392900031559"><ele>107.0</ele><time>2026-04-29T06:47:27Z</time></trkpt><trkpt lat="43.61596679303427" lon="7.08327901978977"><ele>107.39999999999999</ele><time>2026-04-29T06:47:28Z</time></trkpt><trkpt lat="43.61598392133533" lon="7.083100884210051"><ele>107.79999999999998</ele><time>2026-04-29T06:47:30Z</time></trkpt><trkpt lat="43.61598351009064" lon="7.082985419051029"><ele>108.2</ele><time>2026-04-29T06:47:31Z</time></trkpt><trkpt lat="43.615970747233725" lon="7.082846465758154"><ele>108.6</ele><time>2026-04-29T06:47:32Z</time></trkpt><trkpt lat="43.615959898399495" lon="7.082694253804731"><ele>109.0</ele><time>2026-04-29T06:47:33Z</time></trkpt><trkpt lat="43.615921738439106" lon="7.082549338174955"><ele>110.2</ele><time>2026-04-29T06:47:34Z</time></trkpt><trkpt lat="43.615878844287394" lon="7.082406215617519"><ele>111.4</ele><time>2026-04-29T06:47:35Z</time></trkpt><trkpt lat="43.615829262329136" lon="7.082268757601507"><ele>112.6</ele><time>2026-04-29T06:47:36Z</time></trkpt><trkpt lat="43.61577887602925" lon="7.08213552116023"><ele>113.8</ele><time>2026-04-29T06:47:37Z</time></trkpt><trkpt lat="43.61573229047647" lon="7.082005932606426"><ele>115.0</ele><time>2026-04-29T06:47:38Z</time></trkpt><trkpt lat="43.61568331397208" lon="7.081877313561752"><ele>115.00000000000001</ele><time>2026-04-29T06:47:39Z</time></trkpt><trkpt lat="43.61564099817553" lon="7.081760649218842"><ele>115.0</ele><time>2026-04-29T06:47:40Z</time></trkpt><trkpt lat="43.6156030942813" lon="7.081655416931096"><ele>115.0</ele><time>2026-04-29T06:47:41Z</time></trkpt><trkpt lat="43.61556909328692" lon="7.081555934321507"><ele>115.0</ele><time>2026-04-29T06:47:42Z</time></trkpt><trkpt lat="43.61554058256306" lon="7.081469121234161"><ele>115.00000000000001</ele><time>2026-04-29T06:47:43Z</time></trkpt><trkpt lat="43.615495363288275" lon="7.081323399725245"><ele>115.0</ele><time>2026-04-29T06:47:45Z</time></trkpt><trkpt lat="43.61545422701889" lon="7.081177279390403"><ele>116.2</ele><time>2026-04-29T06:47:47Z</time></trkpt><trkpt lat="43.61542324813321" lon="7.081034755657977"><ele>117.4</ele><time>2026-04-29T06:47:49Z</time></trkpt><trkpt lat="43.6154028965936" lon="7.08092711002931"><ele>118.6</ele><time>2026-04-29T06:47:51Z</time></trkpt><trkpt lat="43.61538047146308" lon="7.080830094636225"><ele>119.8</ele><time>2026-04-29T06:47:58Z</time></trkpt><trkpt lat="43.6154052746763" lon="7.080671278590397"><ele>121.0</ele><time>2026-04-29T06:48:00Z</time></trkpt><trkpt lat="43.61539969652977" lon="7.0805517798071484"><ele>121.8</ele><time>2026-04-29T06:48:01Z</time></trkpt><trkpt lat="43.615365903406925" lon="7.080442963298943"><ele>122.6</ele><time>2026-04-29T06:48:02Z</time></trkpt><trkpt lat="43.61529038316239" lon="7.080347509008984"><ele>123.4</ele><time>2026-04-29T06:48:03Z</time></trkpt><trkpt lat="43.61522334021534" lon="7.080250987931769"><ele>124.2</ele><time>2026-04-29T06:48:04Z</time></trkpt><trkpt lat="43.615217708834244" lon="7.080080756025935"><ele>125.0</ele><time>2026-04-29T06:48:05Z</time></trkpt><trkpt lat="43.61521125559932" lon="7.079914463680521"><ele>123.0</ele><time>2026-04-29T06:48:06Z</time></trkpt><trkpt lat="43.61521385649671" lon="7.079737718238511"><ele>121.0</ele><time>2026-04-29T06:48:07Z</time></trkpt><trkpt lat="43.61522646451953" lon="7.079572083604681"><ele>119.0</ele><time>2026-04-29T06:48:08Z</time></trkpt><trkpt lat="43.61524250153277" lon="7.079407137699098"><ele>117.0</ele><time>2026-04-29T06:48:09Z</time></trkpt><trkpt lat="43.61526492019125" lon="7.079235380517565"><ele>117.0</ele><time>2026-04-29T06:48:10Z</time></trkpt><trkpt lat="43.61529402259136" lon="7.079063885270657"><ele>117.0</ele><time>2026-04-29T06:48:11Z</time></trkpt><trkpt lat="43.61534001941134" lon="7.0789035811124155"><ele>117.0</ele><time>2026-04-29T06:48:12Z</time></trkpt><trkpt lat="43.61539779772589" lon="7.078746164293815"><ele>117.0</ele><time>2026-04-29T06:48:13Z</time></trkpt><trkpt lat="43.61546273897484" lon="7.078592666320801"><ele>117.25</ele><time>2026-04-29T06:48:14Z</time></trkpt><trkpt lat="43.61553367946579" lon="7.078443876258212"><ele>117.5</ele><time>2026-04-29T06:48:15Z</time></trkpt><trkpt lat="43.615612755626216" lon="7.078290953774919"><ele>117.75</ele><time>2026-04-29T06:48:16Z</time></trkpt><trkpt lat="43.615695481270414" lon="7.078144141370356"><ele>118.0</ele><time>2026-04-29T06:48:17Z</time></trkpt><trkpt lat="43.61578201834941" lon="7.078018578828158"><ele>118.0</ele><time>2026-04-29T06:48:18Z</time></trkpt><trkpt lat="43.61586234169814" lon="7.077901529299349"><ele>118.00000000000001</ele><time>2026-04-29T06:48:19Z</time></trkpt><trkpt lat="43.61593384332907" lon="7.077781615612515"><ele>118.00000000000001</ele><time>2026-04-29T06:48:20Z</time></trkpt><trkpt lat="43.61599972759172" lon="7.0776608214647085"><ele>118.0</ele><time>2026-04-29T06:48:21Z</time></trkpt><trkpt lat="43.61605867550339" lon="7.077540343464601"><ele>118.0</ele><time>2026-04-29T06:48:22Z</time></trkpt><trkpt lat="43.61610449334818" lon="7.0774231928294915"><ele>118.80000000000001</ele><time>2026-04-29T06:48:23Z</time></trkpt><trkpt lat="43.61614875806145" lon="7.077305098997128"><ele>119.60000000000001</ele><time>2026-04-29T06:48:24Z</time></trkpt><trkpt lat="43.61619056356167" lon="7.077175777180777"><ele>120.39999999999999</ele><time>2026-04-29T06:48:25Z</time></trkpt><trkpt lat="43.61622712852707" lon="7.077057082650477"><ele>121.19999999999999</ele><time>2026-04-29T06:48:26Z</time></trkpt><trkpt lat="43.61625990403522" lon="7.07694605599468"><ele>122.0</ele><time>2026-04-29T06:48:27Z</time></trkpt><trkpt lat="43.61629117604347" lon="7.076835572892846"><ele>121.99999999999999</ele><time>2026-04-29T06:48:28Z</time></trkpt><trkpt lat="43.61632240921357" lon="7.07671764468672"><ele>122.0</ele><time>2026-04-29T06:48:29Z</time></trkpt><trkpt lat="43.61635545104666" lon="7.0766060395059185"><ele>122.0</ele><time>2026-04-29T06:48:30Z</time></trkpt><trkpt lat="43.61638884755325" lon="7.076503138687185"><ele>122.0</ele><time>2026-04-29T06:48:31Z</time></trkpt><trkpt lat="43.61641850062341" lon="7.076409270178349"><ele>121.99999999999999</ele><time>2026-04-29T06:48:32Z</time></trkpt><trkpt lat="43.616447985354014" lon="7.076315365854591"><ele>122.0</ele><time>2026-04-29T06:48:33Z</time></trkpt><trkpt lat="43.61647859092052" lon="7.076208328681193"><ele>121.49999999999999</ele><time>2026-04-29T06:48:34Z</time></trkpt><trkpt lat="43.61651404705913" lon="7.0761071706854235"><ele>121.0</ele><time>2026-04-29T06:48:35Z</time></trkpt><trkpt lat="43.616545697735674" lon="7.07600475258861"><ele>120.5</ele><time>2026-04-29T06:48:36Z</time></trkpt><trkpt lat="43.61658010827013" lon="7.075917742255418"><ele>120.0</ele><time>2026-04-29T06:48:37Z</time></trkpt><trkpt lat="43.616620691318026" lon="7.075830220059252"><ele>119.49999999999999</ele><time>2026-04-29T06:48:38Z</time></trkpt><trkpt lat="43.616665245085926" lon="7.075743400657154"><ele>119.0</ele><time>2026-04-29T06:48:39Z</time></trkpt><trkpt lat="43.616708693908144" lon="7.075661885472178"><ele>118.33333333333333</ele><time>2026-04-29T06:48:40Z</time></trkpt><trkpt lat="43.61675549424095" lon="7.075580865698258"><ele>117.66666666666666</ele><time>2026-04-29T06:48:41Z</time></trkpt><trkpt lat="43.61680283810398" lon="7.075496178093532"><ele>117.0</ele><time>2026-04-29T06:48:42Z</time></trkpt><trkpt lat="43.616862296328726" lon="7.075376065954727"><ele>116.33333333333334</ele><time>2026-04-29T06:48:44Z</time></trkpt><trkpt lat="43.61689487448514" lon="7.075299717967748"><ele>115.66666666666667</ele><time>2026-04-29T06:48:47Z</time></trkpt><trkpt lat="43.61694195780175" lon="7.075174455575539"><ele>115.0</ele><time>2026-04-29T06:48:49Z</time></trkpt><trkpt lat="43.61697393613856" lon="7.075055446568452"><ele>115.00000000000001</ele><time>2026-04-29T06:48:51Z</time></trkpt><trkpt lat="43.61700335802716" lon="7.07492562833937"><ele>115.0</ele><time>2026-04-29T06:48:53Z</time></trkpt><trkpt lat="43.617030767366636" lon="7.074846551236396"><ele>115.0</ele><time>2026-04-29T06:48:54Z</time></trkpt><trkpt lat="43.61707678747055" lon="7.074765892274712"><ele>115.0</ele><time>2026-04-29T06:48:55Z</time></trkpt><trkpt lat="43.617137259627484" lon="7.074685443113301"><ele>115.00000000000001</ele><time>2026-04-29T06:48:56Z</time></trkpt><trkpt lat="43.617199496589684" lon="7.0746042006070065"><ele>115.0</ele><time>2026-04-29T06:48:57Z</time></trkpt><trkpt lat="43.61725668118649" lon="7.074487711922365"><ele>115.0</ele><time>2026-04-29T06:48:58Z</time></trkpt><trkpt lat="43.61730374435227" lon="7.0743590293421175"><ele>115.0</ele><time>2026-04-29T06:48:59Z</time></trkpt><trkpt lat="43.617331378926295" lon="7.074212121323096"><ele>115.0</ele><time>2026-04-29T06:49:00Z</time></trkpt><trkpt lat="43.61733718440504" lon="7.074067559801214"><ele>115.0</ele><time>2026-04-29T06:49:01Z</time></trkpt><trkpt lat="43.617328645443024" lon="7.073932652823775"><ele>115.0</ele><time>2026-04-29T06:49:02Z</time></trkpt><trkpt lat="43.61730122461527" lon="7.073800136830339"><ele>115.25</ele><time>2026-04-29T06:49:03Z</time></trkpt><trkpt lat="43.61725624734827" lon="7.073661069079798"><ele>115.5</ele><time>2026-04-29T06:49:04Z</time></trkpt><trkpt lat="43.617216460643974" lon="7.073504552190612"><ele>115.75</ele><time>2026-04-29T06:49:05Z</time></trkpt><trkpt lat="43.61719932804843" lon="7.073329037049885"><ele>116.0</ele><time>2026-04-29T06:49:06Z</time></trkpt><trkpt lat="43.617229332856155" lon="7.073150619137605"><ele>117.0</ele><time>2026-04-29T06:49:07Z</time></trkpt><trkpt lat="43.61726686525485" lon="7.072975202910605"><ele>118.0</ele><time>2026-04-29T06:49:08Z</time></trkpt><trkpt lat="43.61732262830232" lon="7.072800354650618"><ele>119.0</ele><time>2026-04-29T06:49:09Z</time></trkpt><trkpt lat="43.617369345781015" lon="7.072624126150036"><ele>120.0</ele><time>2026-04-29T06:49:10Z</time></trkpt><trkpt lat="43.61743561935789" lon="7.072474825687406"><ele>121.25</ele><time>2026-04-29T06:49:11Z</time></trkpt><trkpt lat="43.61749447625118" lon="7.072306371323714"><ele>122.5</ele><time>2026-04-29T06:49:12Z</time></trkpt><trkpt lat="43.61755363965374" lon="7.072139473625541"><ele>123.75</ele><time>2026-04-29T06:49:13Z</time></trkpt><trkpt lat="43.61758787587015" lon="7.071956474205618"><ele>125.0</ele><time>2026-04-29T06:49:14Z</time></trkpt><trkpt lat="43.617610406608" lon="7.071783059249467"><ele>125.5</ele><time>2026-04-29T06:49:15Z</time></trkpt><trkpt lat="43.61762157683286" lon="7.071605165734704"><ele>126.0</ele><time>2026-04-29T06:49:16Z</time></trkpt><trkpt lat="43.617623245811366" lon="7.071439555367828"><ele>126.5</ele><time>2026-04-29T06:49:17Z</time></trkpt><trkpt lat="43.61761465008847" lon="7.0712892828163305"><ele>127.0</ele><time>2026-04-29T06:49:18Z</time></trkpt><trkpt lat="43.61759891711631" lon="7.071160130524845"><ele>127.00000000000001</ele><time>2026-04-29T06:49:19Z</time></trkpt><trkpt lat="43.61758496399398" lon="7.071050538377048"><ele>127.0</ele><time>2026-04-29T06:49:20Z</time></trkpt><trkpt lat="43.617578262684106" lon="7.07094715395232"><ele>127.0</ele><time>2026-04-29T06:49:21Z</time></trkpt><trkpt lat="43.61759025236665" lon="7.0708363875155715"><ele>127.0</ele><time>2026-04-29T06:49:22Z</time></trkpt><trkpt lat="43.61761424571239" lon="7.070718074570415"><ele>127.00000000000001</ele><time>2026-04-29T06:49:23Z</time></trkpt><trkpt lat="43.61762679112384" lon="7.070598593973061"><ele>127.0</ele><time>2026-04-29T06:49:24Z</time></trkpt><trkpt lat="43.6176009734359" lon="7.070507518123444"><ele>126.6</ele><time>2026-04-29T06:49:25Z</time></trkpt><trkpt lat="43.61755123969055" lon="7.0704365986632"><ele>126.19999999999999</ele><time>2026-04-29T06:49:26Z</time></trkpt><trkpt lat="43.61748050540088" lon="7.070375590170003"><ele>125.8</ele><time>2026-04-29T06:49:27Z</time></trkpt><trkpt lat="43.61739573635852" lon="7.070304474139939"><ele>125.4</ele><time>2026-04-29T06:49:28Z</time></trkpt><trkpt lat="43.617318236976004" lon="7.070188784818826"><ele>125.0</ele><time>2026-04-29T06:49:29Z</time></trkpt><trkpt lat="43.61726033379675" lon="7.0700352924432845"><ele>123.75</ele><time>2026-04-29T06:49:30Z</time></trkpt><trkpt lat="43.61719731722738" lon="7.069867242992947"><ele>122.5</ele><time>2026-04-29T06:49:31Z</time></trkpt><trkpt lat="43.61713451616019" lon="7.06970702278505"><ele>121.25</ele><time>2026-04-29T06:49:32Z</time></trkpt><trkpt lat="43.61706341233713" lon="7.069532910612375"><ele>120.0</ele><time>2026-04-29T06:49:33Z</time></trkpt><trkpt lat="43.61699347425149" lon="7.069350023139464"><ele>121.5</ele><time>2026-04-29T06:49:34Z</time></trkpt><trkpt lat="43.61692297236252" lon="7.0691854919191375"><ele>123.0</ele><time>2026-04-29T06:49:35Z</time></trkpt><trkpt lat="43.61685383292304" lon="7.069037063808522"><ele>124.5</ele><time>2026-04-29T06:49:36Z</time></trkpt><trkpt lat="43.61678401556963" lon="7.068901534965767"><ele>126.0</ele><time>2026-04-29T06:49:37Z</time></trkpt><trkpt lat="43.616718936635024" lon="7.068770085409306"><ele>126.0</ele><time>2026-04-29T06:49:38Z</time></trkpt><trkpt lat="43.616662804197404" lon="7.068650751588547"><ele>126.0</ele><time>2026-04-29T06:49:39Z</time></trkpt><trkpt lat="43.61661617105811" lon="7.068553019148938"><ele>126.0</ele><time>2026-04-29T06:49:40Z</time></trkpt><trkpt lat="43.61657006985455" lon="7.0684616696514135"><ele>126.0</ele><time>2026-04-29T06:49:41Z</time></trkpt><trkpt lat="43.616535973991425" lon="7.068386870395475"><ele>126.0</ele><time>2026-04-29T06:49:42Z</time></trkpt><trkpt lat="43.616485710850455" lon="7.068271922407106"><ele>126.0</ele><time>2026-04-29T06:49:44Z</time></trkpt><trkpt lat="43.616431142738925" lon="7.068110518578838"><ele>126.16666666666667</ele><time>2026-04-29T06:49:46Z</time></trkpt><trkpt lat="43.616405688488065" lon="7.068026990387618"><ele>126.33333333333334</ele><time>2026-04-29T06:49:47Z</time></trkpt><trkpt lat="43.61638313367939" lon="7.0679347518455335"><ele>126.5</ele><time>2026-04-29T06:49:48Z</time></trkpt><trkpt lat="43.61636279688429" lon="7.067818543544756"><ele>126.66666666666667</ele><time>2026-04-29T06:49:49Z</time></trkpt><trkpt lat="43.616336904522164" lon="7.0676912048432925"><ele>126.83333333333334</ele><time>2026-04-29T06:49:50Z</time></trkpt><trkpt lat="43.61630714730661" lon="7.0675362142141"><ele>127.0</ele><time>2026-04-29T06:49:51Z</time></trkpt><trkpt lat="43.61628514420316" lon="7.067368649989152"><ele>128.25</ele><time>2026-04-29T06:49:52Z</time></trkpt><trkpt lat="43.61627168727087" lon="7.067207433775457"><ele>129.5</ele><time>2026-04-29T06:49:53Z</time></trkpt><trkpt lat="43.6162630926638" lon="7.067043735850121"><ele>130.75</ele><time>2026-04-29T06:49:54Z</time></trkpt><trkpt lat="43.616256496324965" lon="7.066864477662098"><ele>132.0</ele><time>2026-04-29T06:49:55Z</time></trkpt><trkpt lat="43.61625758568161" lon="7.066684122144791"><ele>133.0</ele><time>2026-04-29T06:49:56Z</time></trkpt><trkpt lat="43.616265419577374" lon="7.066520280963436"><ele>134.0</ele><time>2026-04-29T06:49:57Z</time></trkpt><trkpt lat="43.6162712356216" lon="7.0663751038196585"><ele>135.0</ele><time>2026-04-29T06:49:58Z</time></trkpt><trkpt lat="43.61627278200551" lon="7.066262495106959"><ele>136.0</ele><time>2026-04-29T06:49:59Z</time></trkpt><trkpt lat="43.61628412729065" lon="7.066135517174191"><ele>137.0</ele><time>2026-04-29T06:50:01Z</time></trkpt><trkpt lat="43.61631776567527" lon="7.065986374383738"><ele>137.0</ele><time>2026-04-29T06:50:04Z</time></trkpt><trkpt lat="43.616340886291525" lon="7.065900112903231"><ele>137.0</ele><time>2026-04-29T06:50:05Z</time></trkpt><trkpt lat="43.616383303543905" lon="7.06580952134928"><ele>137.0</ele><time>2026-04-29T06:50:06Z</time></trkpt><trkpt lat="43.61635047341091" lon="7.0656734487534445"><ele>137.0</ele><time>2026-04-29T06:50:07Z</time></trkpt><trkpt lat="43.61634457248108" lon="7.065538569919094"><ele>137.0</ele><time>2026-04-29T06:50:08Z</time></trkpt><trkpt lat="43.6163575522912" lon="7.065374387290409"><ele>137.25</ele><time>2026-04-29T06:50:09Z</time></trkpt><trkpt lat="43.61638013166235" lon="7.065203883328437"><ele>137.5</ele><time>2026-04-29T06:50:10Z</time></trkpt><trkpt lat="43.61641388454563" lon="7.065023517741175"><ele>137.75</ele><time>2026-04-29T06:50:11Z</time></trkpt><trkpt lat="43.616442144956125" lon="7.064824426366138"><ele>138.0</ele><time>2026-04-29T06:50:12Z</time></trkpt><trkpt lat="43.61647230078034" lon="7.064607267243923"><ele>136.33333333333334</ele><time>2026-04-29T06:50:13Z</time></trkpt><trkpt lat="43.61650874982102" lon="7.064370695131153"><ele>134.66666666666669</ele><time>2026-04-29T06:50:14Z</time></trkpt><trkpt lat="43.61654874122147" lon="7.064133068916643"><ele>133.0</ele><time>2026-04-29T06:50:15Z</time></trkpt><trkpt lat="43.616579609263965" lon="7.063924366039544"><ele>132.25</ele><time>2026-04-29T06:50:16Z</time></trkpt><trkpt lat="43.61660717120958" lon="7.0637287947355585"><ele>131.5</ele><time>2026-04-29T06:50:17Z</time></trkpt><trkpt lat="43.61663669629151" lon="7.063532789041544"><ele>130.75</ele><time>2026-04-29T06:50:18Z</time></trkpt><trkpt lat="43.61666784293055" lon="7.063338839848382"><ele>130.0</ele><time>2026-04-29T06:50:19Z</time></trkpt><trkpt lat="43.61669904939359" lon="7.063145800768012"><ele>130.0</ele><time>2026-04-29T06:50:20Z</time></trkpt><trkpt lat="43.61672984742668" lon="7.062954582171123"><ele>130.0</ele><time>2026-04-29T06:50:21Z</time></trkpt><trkpt lat="43.616761311871144" lon="7.062759653120025"><ele>130.0</ele><time>2026-04-29T06:50:22Z</time></trkpt><trkpt lat="43.6167923921889" lon="7.062556887023828"><ele>130.0</ele><time>2026-04-29T06:50:23Z</time></trkpt><trkpt lat="43.61682740731513" lon="7.062353099235493"><ele>129.5</ele><time>2026-04-29T06:50:24Z</time></trkpt><trkpt lat="43.61686306001936" lon="7.062141858019458"><ele>129.0</ele><time>2026-04-29T06:50:25Z</time></trkpt><trkpt lat="43.61689456912124" lon="7.061936859932763"><ele>128.5</ele><time>2026-04-29T06:50:26Z</time></trkpt><trkpt lat="43.61692403823438" lon="7.061752149627182"><ele>128.0</ele><time>2026-04-29T06:50:27Z</time></trkpt><trkpt lat="43.616951538824274" lon="7.061575882850561"><ele>127.25</ele><time>2026-04-29T06:50:28Z</time></trkpt><trkpt lat="43.61698193027122" lon="7.0613876413879035"><ele>126.5</ele><time>2026-04-29T06:50:29Z</time></trkpt><trkpt lat="43.61701596007254" lon="7.0611897590826835"><ele>125.75</ele><time>2026-04-29T06:50:30Z</time></trkpt><trkpt lat="43.61704776623615" lon="7.060984482266014"><ele>125.0</ele><time>2026-04-29T06:50:31Z</time></trkpt><trkpt lat="43.617081210150424" lon="7.060782017995057"><ele>126.75</ele><time>2026-04-29T06:50:32Z</time></trkpt><trkpt lat="43.6171152803066" lon="7.060586571052176"><ele>128.5</ele><time>2026-04-29T06:50:33Z</time></trkpt><trkpt lat="43.61714432972195" lon="7.060409955543317"><ele>130.25</ele><time>2026-04-29T06:50:34Z</time></trkpt><trkpt lat="43.617169216547765" lon="7.060252754848858"><ele>132.0</ele><time>2026-04-29T06:50:35Z</time></trkpt><trkpt lat="43.617190522213654" lon="7.060110208929828"><ele>132.0</ele><time>2026-04-29T06:50:36Z</time></trkpt><trkpt lat="43.61721202285119" lon="7.0599816491725855"><ele>132.0</ele><time>2026-04-29T06:50:37Z</time></trkpt><trkpt lat="43.61723639352209" lon="7.059873131116353"><ele>132.0</ele><time>2026-04-29T06:50:38Z</time></trkpt><trkpt lat="43.617271445706045" lon="7.059780110789088"><ele>132.0</ele><time>2026-04-29T06:50:39Z</time></trkpt><trkpt lat="43.61731923511792" lon="7.0597053220608945"><ele>132.0</ele><time>2026-04-29T06:50:40Z</time></trkpt><trkpt lat="43.61735004136811" lon="7.0596122875443506"><ele>132.0</ele><time>2026-04-29T06:50:41Z</time></trkpt><trkpt lat="43.6173547258561" lon="7.0595038067018345"><ele>132.6</ele><time>2026-04-29T06:50:42Z</time></trkpt><trkpt lat="43.61735472875696" lon="7.059378392041974"><ele>133.2</ele><time>2026-04-29T06:50:43Z</time></trkpt><trkpt lat="43.61737151046396" lon="7.059241077557302"><ele>133.8</ele><time>2026-04-29T06:50:44Z</time></trkpt><trkpt lat="43.61740928420053" lon="7.0590975262594915"><ele>134.4</ele><time>2026-04-29T06:50:45Z</time></trkpt><trkpt lat="43.61745445057315" lon="7.058944801712484"><ele>135.0</ele><time>2026-04-29T06:50:46Z</time></trkpt><trkpt lat="43.617500246885264" lon="7.058794325724771"><ele>135.6</ele><time>2026-04-29T06:50:47Z</time></trkpt><trkpt lat="43.61755038967925" lon="7.058660990965831"><ele>136.2</ele><time>2026-04-29T06:50:48Z</time></trkpt><trkpt lat="43.61759165143506" lon="7.058517331228843"><ele>136.8</ele><time>2026-04-29T06:50:49Z</time></trkpt><trkpt lat="43.61763718584727" lon="7.058377917440961"><ele>137.4</ele><time>2026-04-29T06:50:50Z</time></trkpt><trkpt lat="43.617684374990205" lon="7.058242061763134"><ele>138.0</ele><time>2026-04-29T06:50:51Z</time></trkpt><trkpt lat="43.61773206138976" lon="7.058106018064989"><ele>138.5</ele><time>2026-04-29T06:50:52Z</time></trkpt><trkpt lat="43.617782698254494" lon="7.057971001053201"><ele>139.0</ele><time>2026-04-29T06:50:53Z</time></trkpt><trkpt lat="43.617836678418186" lon="7.057828560139538"><ele>139.5</ele><time>2026-04-29T06:50:54Z</time></trkpt><trkpt lat="43.61789178616084" lon="7.057685692696424"><ele>140.0</ele><time>2026-04-29T06:50:55Z</time></trkpt><trkpt lat="43.6179366485315" lon="7.057545088921103"><ele>141.8</ele><time>2026-04-29T06:50:56Z</time></trkpt><trkpt lat="43.617979043482684" lon="7.057404856312533"><ele>143.6</ele><time>2026-04-29T06:50:57Z</time></trkpt><trkpt lat="43.6180064359945" lon="7.0572609624502896"><ele>145.4</ele><time>2026-04-29T06:50:58Z</time></trkpt><trkpt lat="43.61802927503187" lon="7.05711081727768"><ele>147.2</ele><time>2026-04-29T06:50:59Z</time></trkpt><trkpt lat="43.618048282767326" lon="7.056957190040542"><ele>149.0</ele><time>2026-04-29T06:51:00Z</time></trkpt><trkpt lat="43.61806798193846" lon="7.056801788724598"><ele>149.0</ele><time>2026-04-29T06:51:01Z</time></trkpt><trkpt lat="43.61808828049954" lon="7.056644276424095"><ele>149.0</ele><time>2026-04-29T06:51:02Z</time></trkpt><trkpt lat="43.61810892756123" lon="7.056485928215067"><ele>149.0</ele><time>2026-04-29T06:51:03Z</time></trkpt><trkpt lat="43.61813100468374" lon="7.056325728075208"><ele>149.0</ele><time>2026-04-29T06:51:04Z</time></trkpt><trkpt lat="43.61816401082301" lon="7.056165314231723"><ele>151.0</ele><time>2026-04-29T06:51:05Z</time></trkpt><trkpt lat="43.61821179353045" lon="7.05600578358825"><ele>153.0</ele><time>2026-04-29T06:51:06Z</time></trkpt><trkpt lat="43.61826634133826" lon="7.055835752817771"><ele>155.0</ele><time>2026-04-29T06:51:07Z</time></trkpt><trkpt lat="43.61832345989576" lon="7.055666704492553"><ele>157.0</ele><time>2026-04-29T06:51:08Z</time></trkpt><trkpt lat="43.61837214774564" lon="7.055503344192287"><ele>159.0</ele><time>2026-04-29T06:51:09Z</time></trkpt><trkpt lat="43.61841606950492" lon="7.055345125244058"><ele>161.0</ele><time>2026-04-29T06:51:10Z</time></trkpt><trkpt lat="43.61845242759459" lon="7.055184340943687"><ele>163.0</ele><time>2026-04-29T06:51:11Z</time></trkpt><trkpt lat="43.61847434584351" lon="7.055017900836944"><ele>165.0</ele><time>2026-04-29T06:51:12Z</time></trkpt><trkpt lat="43.61848360501067" lon="7.054842504541728"><ele>165.0</ele><time>2026-04-29T06:51:13Z</time></trkpt><trkpt lat="43.61848219789527" lon="7.054675687572397"><ele>165.0</ele><time>2026-04-29T06:51:14Z</time></trkpt><trkpt lat="43.61846674543516" lon="7.054510887067077"><ele>165.0</ele><time>2026-04-29T06:51:15Z</time></trkpt><trkpt lat="43.61844052598046" lon="7.0543430001103955"><ele>165.0</ele><time>2026-04-29T06:51:16Z</time></trkpt><trkpt lat="43.61839574130273" lon="7.0541679524318806"><ele>164.75</ele><time>2026-04-29T06:51:17Z</time></trkpt><trkpt lat="43.61833871568678" lon="7.054008228449992"><ele>164.5</ele><time>2026-04-29T06:51:18Z</time></trkpt><trkpt lat="43.618282877407204" lon="7.053868151934218"><ele>164.25</ele><time>2026-04-29T06:51:19Z</time></trkpt><trkpt lat="43.6182248239628" lon="7.053727578269297"><ele>164.0</ele><time>2026-04-29T06:51:20Z</time></trkpt><trkpt lat="43.618161421904375" lon="7.0535689231104834"><ele>164.0</ele><time>2026-04-29T06:51:21Z</time></trkpt><trkpt lat="43.618090721427315" lon="7.053396937354616"><ele>164.0</ele><time>2026-04-29T06:51:22Z</time></trkpt><trkpt lat="43.618020754340876" lon="7.053215760580526"><ele>164.0</ele><time>2026-04-29T06:51:23Z</time></trkpt><trkpt lat="43.61796746089612" lon="7.053046305348926"><ele>164.0</ele><time>2026-04-29T06:51:24Z</time></trkpt><trkpt lat="43.617915507021706" lon="7.052885197328648"><ele>164.75</ele><time>2026-04-29T06:51:25Z</time></trkpt><trkpt lat="43.617871993255044" lon="7.052713200748494"><ele>165.5</ele><time>2026-04-29T06:51:26Z</time></trkpt><trkpt lat="43.61783502828948" lon="7.0525356761703835"><ele>166.25</ele><time>2026-04-29T06:51:27Z</time></trkpt><trkpt lat="43.61781318939814" lon="7.052374720989452"><ele>167.0</ele><time>2026-04-29T06:51:28Z</time></trkpt><trkpt lat="43.61780009342858" lon="7.052226483454102"><ele>168.0</ele><time>2026-04-29T06:51:29Z</time></trkpt><trkpt lat="43.61778748904088" lon="7.0520831255766065"><ele>169.0</ele><time>2026-04-29T06:51:30Z</time></trkpt><trkpt lat="43.61778026914007" lon="7.05195348690945"><ele>170.0</ele><time>2026-04-29T06:51:31Z</time></trkpt><trkpt lat="43.61777841691592" lon="7.05184421705524"><ele>171.0</ele><time>2026-04-29T06:51:32Z</time></trkpt><trkpt lat="43.617774645224486" lon="7.051756487160864"><ele>172.0</ele><time>2026-04-29T06:51:33Z</time></trkpt><trkpt lat="43.617765250460735" lon="7.051628532605717"><ele>173.0</ele><time>2026-04-29T06:51:35Z</time></trkpt><trkpt lat="43.61765013540106" lon="7.051506792305416"><ele>173.66666666666666</ele><time>2026-04-29T06:51:37Z</time></trkpt><trkpt lat="43.6175786171344" lon="7.051630791712859"><ele>174.33333333333331</ele><time>2026-04-29T06:51:38Z</time></trkpt><trkpt lat="43.6175112507356" lon="7.051659640463022"><ele>175.0</ele><time>2026-04-29T06:51:39Z</time></trkpt><trkpt lat="43.61745272590218" lon="7.051698185316803"><ele>175.66666666666666</ele><time>2026-04-29T06:51:40Z</time></trkpt><trkpt lat="43.61739345053345" lon="7.0517544057452"><ele>176.33333333333334</ele><time>2026-04-29T06:51:41Z</time></trkpt><trkpt lat="43.61734149052772" lon="7.05183761024745"><ele>177.0</ele><time>2026-04-29T06:51:42Z</time></trkpt><trkpt lat="43.61730769746563" lon="7.051938837049287"><ele>177.0</ele><time>2026-04-29T06:51:43Z</time></trkpt><trkpt lat="43.61727799694207" lon="7.052055550466592"><ele>177.0</ele><time>2026-04-29T06:51:44Z</time></trkpt><trkpt lat="43.617246526843985" lon="7.052145396721271"><ele>177.0</ele><time>2026-04-29T06:51:45Z</time></trkpt><trkpt lat="43.617197549687845" lon="7.052205420871131"><ele>177.0</ele><time>2026-04-29T06:51:46Z</time></trkpt><trkpt lat="43.61708089224981" lon="7.052305391632878"><ele>177.0</ele><time>2026-04-29T06:51:48Z</time></trkpt><trkpt lat="43.61700854945076" lon="7.052378408359732"><ele>178.39999999999998</ele><time>2026-04-29T06:51:49Z</time></trkpt><trkpt lat="43.61692000984287" lon="7.052410131530305"><ele>179.79999999999998</ele><time>2026-04-29T06:51:50Z</time></trkpt><trkpt lat="43.61685088025988" lon="7.052445545492572"><ele>181.2</ele><time>2026-04-29T06:51:51Z</time></trkpt><trkpt lat="43.616797039349116" lon="7.0525001797239995"><ele>182.6</ele><time>2026-04-29T06:51:52Z</time></trkpt><trkpt lat="43.61670321588919" lon="7.052566890412226"><ele>184.0</ele><time>2026-04-29T06:51:54Z</time></trkpt><trkpt lat="43.61672247653776" lon="7.0527478825242"><ele>184.0</ele><time>2026-04-29T06:51:55Z</time></trkpt><trkpt lat="43.61671361006311" lon="7.052834032538908"><ele>184.0</ele><time>2026-04-29T06:51:56Z</time></trkpt><trkpt lat="43.61671568261905" lon="7.052930736941126"><ele>184.0</ele><time>2026-04-29T06:51:57Z</time></trkpt><trkpt lat="43.61672952343364" lon="7.053047022693731"><ele>184.0</ele><time>2026-04-29T06:51:58Z</time></trkpt><trkpt lat="43.616758070979294" lon="7.053161048461883"><ele>184.0</ele><time>2026-04-29T06:51:59Z</time></trkpt><trkpt lat="43.61676808646239" lon="7.053252827210797"><ele>184.0</ele><time>2026-04-29T06:52:00Z</time></trkpt><trkpt lat="43.61675418437029" lon="7.053429515890869"><ele>183.2</ele><time>2026-04-29T06:52:02Z</time></trkpt><trkpt lat="43.61674971220923" lon="7.0535210323661115"><ele>182.39999999999998</ele><time>2026-04-29T06:52:03Z</time></trkpt><trkpt lat="43.61670740869522" lon="7.053597153826298"><ele>181.6</ele><time>2026-04-29T06:52:04Z</time></trkpt><trkpt lat="43.61669450992008" lon="7.053752027116804"><ele>180.8</ele><time>2026-04-29T06:52:06Z</time></trkpt><trkpt lat="43.616687964381015" lon="7.053867743907177"><ele>180.0</ele><time>2026-04-29T06:52:08Z</time></trkpt><trkpt lat="43.61667797381522" lon="7.054032131328746"><ele>179.4</ele><time>2026-04-29T06:52:10Z</time></trkpt><trkpt lat="43.616651747603555" lon="7.054167321952383"><ele>178.8</ele><time>2026-04-29T06:52:12Z</time></trkpt><trkpt lat="43.61663105270565" lon="7.054301590771195"><ele>178.2</ele><time>2026-04-29T06:52:14Z</time></trkpt><trkpt lat="43.61659145115181" lon="7.05441074019001"><ele>177.6</ele><time>2026-04-29T06:52:16Z</time></trkpt><trkpt lat="43.6165145666078" lon="7.054498540066541"><ele>177.0</ele><time>2026-04-29T06:52:18Z</time></trkpt><trkpt lat="43.616483703437424" lon="7.054589921801147"><ele>177.0</ele><time>2026-04-29T06:52:20Z</time></trkpt><trkpt lat="43.61644290114666" lon="7.054669778178515"><ele>177.0</ele><time>2026-04-29T06:52:22Z</time></trkpt><trkpt lat="43.616360301247504" lon="7.0547406177457725"><ele>177.0</ele><time>2026-04-29T06:52:25Z</time></trkpt><trkpt lat="43.61628556554954" lon="7.054745968569442"><ele>177.0</ele><time>2026-04-29T06:52:27Z</time></trkpt><trkpt lat="43.616201675917054" lon="7.054754858773853"><ele>177.0</ele><time>2026-04-29T06:52:30Z</time></trkpt><trkpt lat="43.61613635174674" lon="7.054740959058244"><ele>172.0</ele><time>2026-04-29T06:52:58.999Z</time></trkpt></trkseg></trk></gpx>